GFSGBSN_850_thetae_000.txt.gz
Theta_e
310 310 310 310 311 312 313 314 314 314 314 313 313 313 313 312 312 312 313 314 312 314 314 313 317 316 315 317 317 318 318 318 317 317 319 318 318 318 316 316 317 315 314 315 316 315 315
311 311 310 310 311 312 313 314 314 314 313 313 312 312 311 312 312 313 315 313 312 313 313 317 319 318 316 316 318 318 318 317 317 318 318 318 318 317 317 316 315 317 316 316 316 316 316
313 311 311 312 312 312 314 314 314 314 313 313 312 312 313 314 315 315 315 315 313 313 316 318 317 317 317 317 317 318 317 317 316 318 319 319 319 318 317 317 317 316 316 312 313 314 315
313 312 312 313 312 312 314 314 315 315 314 315 315 315 314 314 315 315 315 315 315 316 318 319 319 318 317 317 317 317 315 316 316 318 319 319 319 318 316 316 314 311 310 312 312 313 313
313 313 313 313 313 313 314 314 315 315 315 316 316 315 315 315 315 315 315 315 316 317 317 318 318 318 318 317 316 316 315 315 318 319 319 319 319 315 314 309 310 308 311 312 312 313 314
313 314 313 313 313 313 313 314 315 316 316 317 316 316 316 316 316 316 316 316 317 317 318 318 318 317 316 316 316 316 313 317 318 318 318 318 316 309 308 308 310 313 312 312 312 312 313
314 314 313 313 312 313 313 314 315 316 316 316 316 316 316 316 320 319 316 317 318 317 316 315 315 315 316 316 316 316 313 317 317 315 311 314 310 311 312 312 313 313 313 314 313 313 314
314 315 314 313 312 312 313 313 315 316 316 316 316 316 316 316 319 319 318 319 319 319 316 316 316 315 316 316 316 316 316 317 315 312 312 312 313 313 312 311 312 313 315 312 312 312 314
314 314 315 313 312 312 313 313 314 315 316 315 315 315 315 316 316 319 320 317 318 319 315 316 316 316 316 316 316 316 317 317 314 312 312 312 313 312 312 311 313 313 314 314 314 312 313
312 313 314 314 313 312 313 314 313 314 315 316 315 315 315 317 315 317 318 317 316 320 311 314 316 316 316 316 315 317 317 316 314 313 313 314 311 312 313 314 312 315 312 313 313 316 317
309 311 312 314 313 313 313 314 315 314 313 315 316 315 315 315 315 315 316 315 316 322 311 314 315 317 316 315 315 317 316 317 315 314 313 313 312 313 315 314 313 315 313 314 315 315 315
309 309 310 313 314 313 312 314 314 314 314 313 315 315 315 318 316 317 315 314 320 314 316 316 316 315 315 315 316 317 316 316 315 313 314 315 314 313 314 314 314 313 314 312 312 313 316
309 310 310 310 314 313 313 314 314 315 315 312 314 315 315 319 318 318 317 315 316 314 317 317 316 315 313 313 315 314 314 313 314 313 315 315 316 315 315 315 314 313 311 311 313 312 316
310 310 310 310 312 314 313 313 315 314 317 315 314 314 315 315 315 317 316 316 316 317 316 315 315 314 315 314 315 314 315 314 313 313 314 317 314 316 315 315 316 316 314 311 314 313 314
310 309 309 310 311 314 313 313 316 315 317 317 316 314 314 317 318 316 323 311 312 313 314 316 315 316 316 317 315 314 314 315 314 314 316 316 317 315 316 315 315 317 315 313 312 302 309
310 309 309 310 311 312 314 313 317 315 319 318 315 315 315 315 317 323 313 313 313 313 315 316 317 316 317 317 317 315 316 315 315 314 314 316 318 315 315 315 315 314 313 314 311 312 316
309 308 308 309 310 311 314 314 317 316 319 323 323 316 321 321 323 318 309 308 313 317 317 317 317 318 317 318 316 317 317 316 315 315 314 313 314 313 313 314 316 315 314 313 314 312 312
309 309 308 308 309 311 313 314 315 321 320 325 320 313 322 322 316 310 311 314 316 316 317 316 316 316 317 316 317 318 318 316 315 316 316 313 310 311 314 313 313 314 314 312 309 312 310
309 309 308 307 308 310 312 314 314 320 323 322 319 320 320 321 310 304 314 315 315 315 315 315 316 316 315 315 316 316 316 316 316 315 315 313 310 309 309 311 311 315 315 312 307 307 314
309 309 308 308 307 309 311 314 314 317 321 319 318 312 319 316 314 312 314 315 316 316 315 316 315 315 314 314 313 316 316 315 316 316 315 313 310 310 310 310 310 313 314 313 312 314 313
308 308 308 308 307 308 310 312 314 315 320 318 317 315 316 309 313 314 314 315 317 316 315 315 315 315 314 314 314 317 315 314 314 315 314 311 314 312 311 311 311 313 313 313 312 312 315
308 308 308 307 307 308 309 310 314 314 318 318 317 317 316 315 314 312 309 315 317 315 315 316 315 315 315 315 315 317 316 314 314 314 313 309 309 312 311 311 311 311 311 312 312 312 311
308 308 307 307 307 307 308 309 313 314 316 318 318 317 318 310 308 307 309 314 314 315 315 315 315 312 311 315 316 316 316 316 314 313 310 311 305 307 308 308 307 307 308 310 311 310 310
308 308 307 307 307 307 308 309 312 314 315 317 318 317 315 306 303 308 314 314 313 314 314 314 315 310 315 317 317 316 314 309 309 310 312 304 303 303 306 311 313 310 310 309 309 308 308
310 309 308 308 308 307 308 310 312 314 315 317 318 316 314 303 308 314 314 313 314 315 315 315 316 315 317 316 305 304 303 301 303 308 308 306 305 307 313 313 309 312 310 310 309 308 308
310 310 309 309 308 308 308 311 313 315 316 318 317 318 315 314 309 315 314 314 306 307 310 316 316 316 316 306 302 303 304 306 310 308 305 304 299 303 308 312 313 309 307 308 310 309 310
311 310 310 310 309 309 310 312 314 315 316 316 315 316 316 314 314 315 314 311 313 312 307 311 315 314 314 301 304 302 306 306 308 303 301 302 304 312 312 310 307 306 307 309 312 310 310
311 311 311 311 310 310 311 313 314 315 315 316 316 315 316 315 315 316 315 314 314 313 305 312 311 310 305 307 304 304 296 303 306 306 305 305 302 300 304 307 307 307 309 310 310 311 310
312 311 311 312 312 312 313 314 314 314 315 314 315 316 315 315 314 316 316 316 315 315 314 313 312 312 312 304 303 300 301 301 304 311 305 308 306 308 310 306 307 309 310 310 309 309 308

GFSGBSN_850_thetae_003.txt.gz
Theta_e
311 311 310 310 311 312 312 314 314 314 314 313 313 313 313 313 312 312 312 312 312 314 314 317 318 315 316 317 317 318 318 317 317 318 318 318 318 317 316 316 316 316 314 314 315 314 314
312 311 311 312 312 312 313 314 314 314 313 313 313 312 312 311 312 313 313 311 313 313 316 317 317 315 316 316 317 317 318 317 316 318 318 318 317 318 317 315 316 315 315 314 315 315 315
312 312 312 313 312 313 314 314 314 314 313 312 311 311 311 312 314 314 312 312 313 316 317 318 316 316 317 317 317 316 316 317 316 318 318 318 317 317 316 316 315 315 315 313 313 312 314
313 313 313 313 313 313 314 315 315 314 314 313 314 314 314 315 315 315 313 313 315 317 317 318 317 317 317 317 316 315 314 315 318 318 319 318 317 316 314 315 313 313 313 316 314 315 315
313 314 313 312 313 313 314 315 315 315 315 315 315 314 315 315 315 315 314 315 316 316 318 318 318 318 317 316 315 315 315 317 318 318 319 318 317 314 313 314 315 313 314 314 315 312 315
314 314 313 312 313 313 314 315 316 316 316 316 316 316 316 316 315 315 315 316 317 318 318 317 317 316 316 316 315 314 316 317 317 317 316 317 314 314 313 314 314 315 314 314 314 314 316
314 314 313 312 312 313 313 315 316 316 316 316 316 316 316 319 316 315 316 317 317 316 315 315 315 315 315 316 316 315 316 316 315 315 315 312 315 314 313 312 312 313 313 315 314 313 316
314 315 313 313 312 313 313 314 315 316 316 316 315 316 317 321 318 319 317 317 317 316 315 316 316 315 316 317 317 317 316 315 314 313 312 314 314 312 311 311 312 313 314 313 314 313 316
313 314 314 313 313 313 314 313 314 315 315 315 315 316 317 316 319 317 316 317 317 317 315 316 316 316 315 317 316 317 316 315 312 313 312 314 312 311 312 313 315 314 314 314 315 314 314
312 313 314 313 313 313 314 314 313 315 315 315 315 315 316 316 317 318 317 316 318 319 314 314 315 316 315 315 315 316 316 315 315 313 313 312 311 313 314 314 313 316 312 314 315 317 320
310 311 313 314 313 313 314 314 314 313 315 315 315 315 316 316 316 317 316 315 316 322 315 314 316 316 316 315 314 315 315 316 315 314 314 313 313 314 316 314 313 317 313 315 315 317 317
309 309 311 314 313 313 313 314 314 314 313 315 315 315 315 316 315 316 315 314 320 316 315 316 315 314 315 315 316 316 315 315 313 314 316 314 314 313 314 313 314 314 315 314 314 316 321
309 310 310 312 314 313 313 314 314 315 312 313 314 315 315 317 317 315 314 316 318 317 316 316 315 313 313 314 315 314 314 315 316 314 317 316 316 315 314 316 316 316 315 319 323 323 323
310 310 310 311 314 313 313 315 314 316 314 313 313 315 315 319 315 316 315 317 318 316 316 314 314 314 316 315 315 315 315 316 314 314 317 319 318 316 315 315 316 317 316 320 318 321 320
310 309 309 310 312 314 313 315 315 317 317 314 314 314 314 315 315 316 321 315 315 314 314 315 315 316 317 317 315 315 315 315 314 314 318 319 318 315 315 314 315 317 319 314 315 306 319
310 309 308 310 311 314 313 315 316 317 320 316 315 314 315 317 316 318 315 313 313 313 314 315 317 316 318 317 316 316 316 314 314 313 313 316 319 314 315 314 314 316 314 318 318 320 319
310 309 308 309 311 312 314 314 318 316 321 321 316 318 319 317 321 319 313 310 313 316 316 316 317 318 317 317 316 317 316 314 313 314 313 313 315 314 313 316 317 317 317 315 316 317 321
310 309 308 308 309 311 314 314 318 317 320 323 319 318 321 323 315 308 311 312 316 315 316 315 315 316 316 315 317 317 317 315 314 314 316 313 313 314 315 313 313 314 315 313 316 314 316
309 309 309 308 308 310 312 314 315 320 323 322 319 319 319 320 313 308 313 314 314 315 314 314 315 315 314 314 316 316 316 315 315 315 315 313 313 313 311 313 312 316 315 311 311 312 316
309 310 309 308 308 309 311 314 314 320 320 318 318 315 316 315 313 312 313 314 315 315 314 314 314 314 314 315 314 316 316 315 314 314 313 313 312 312 313 311 312 314 314 313 315 317 316
308 309 309 308 308 308 310 312 314 316 319 317 317 315 314 311 314 312 313 314 315 315 314 314 314 314 314 314 315 316 315 314 313 314 314 313 316 313 312 313 312 313 314 314 315 315 316
308 308 308 308 308 308 309 310 314 314 318 317 318 316 314 312 312 312 309 315 315 314 314 315 315 314 314 314 313 315 315 314 314 313 313 309 313 312 312 310 310 311 312 312 313 314 314
308 308 308 308 307 307 308 309 312 314 316 318 317 317 317 307 307 310 310 313 314 313 314 314 314 312 311 314 314 314 314 313 313 313 312 312 311 311 313 309 310 312 309 312 312 312 312
308 308 308 307 307 307 307 308 310 314 315 316 318 316 317 308 304 309 312 313 312 313 314 314 314 311 313 316 316 315 313 308 308 309 310 306 308 308 314 312 315 313 309 310 311 311 310
309 308 308 307 307 307 307 308 310 313 315 316 318 315 314 305 307 311 312 312 313 314 313 313 315 314 316 316 308 308 307 304 305 306 307 307 308 310 313 314 312 313 311 310 311 311 309
310 309 309 308 308 307 307 308 310 313 316 317 318 316 314 313 311 313 312 312 308 307 310 314 315 315 315 306 307 310 312 308 311 309 304 305 303 311 311 314 315 312 308 308 309 313 310
311 310 310 309 308 308 307 308 310 313 315 317 317 318 315 313 313 314 313 312 312 311 309 311 314 314 314 305 309 311 314 306 312 307 304 306 306 310 312 312 312 308 307 308 314 314 310
311 311 310 310 309 308 308 308 310 313 315 316 316 315 316 314 314 315 314 313 312 312 310 311 312 311 306 308 309 309 308 309 309 308 307 309 309 307 306 309 311 306 308 313 311 310 309
311 311 310 310 310 310 309 310 311 313 314 315 316 316 315 315 315 315 315 314 314 314 313 313 311 312 312 306 304 304 307 301 306 314 305 311 310 311 310 311 307 307 309 309 309 309 308

GFSGBSN_850_thetae_006.txt.gz
Theta_e
311 311 311 311 311 312 312 313 314 314 314 313 313 313 312 312 312 312 312 312 312 314 315 317 316 314 317 318 318 318 318 316 318 318 318 319 319 319 319 318 318 318 318 318 316 316 317
313 311 312 312 312 312 313 314 314 314 313 313 313 313 313 313 312 312 312 312 313 315 317 317 315 315 317 318 317 317 318 317 317 319 318 319 319 319 319 319 320 319 319 318 318 318 317
312 313 313 312 312 313 314 314 314 313 313 312 312 312 311 311 312 313 312 313 314 316 317 317 316 315 318 318 317 315 316 317 316 318 319 317 318 319 320 321 318 318 320 320 318 318 319
313 313 313 312 313 313 314 314 314 313 312 312 311 311 312 313 313 312 314 314 316 317 318 317 316 317 318 316 315 314 314 316 316 318 318 317 316 317 319 317 317 319 319 319 319 319 319
314 314 313 312 313 314 314 315 315 315 315 315 314 314 315 315 314 313 313 315 316 317 318 318 317 318 317 316 316 314 314 316 318 319 318 316 316 318 317 321 319 319 317 317 319 318 320
314 314 313 312 313 314 315 315 316 316 315 315 315 315 315 315 314 313 315 316 317 318 317 317 317 317 316 316 314 314 317 318 317 317 318 318 319 320 319 318 317 318 318 318 318 318 320
314 314 313 312 313 313 315 316 316 316 316 316 316 316 316 315 315 315 316 316 316 317 316 316 316 316 316 316 316 316 316 315 316 318 320 317 319 319 318 318 317 317 317 318 317 318 320
314 314 313 313 312 313 314 315 316 316 316 316 316 318 319 315 315 316 317 320 316 317 316 315 316 317 317 317 317 317 316 317 318 319 318 319 318 316 317 317 317 317 318 318 318 318 320
313 314 314 313 312 313 313 315 316 316 316 315 318 317 319 319 319 318 317 317 315 316 317 316 316 316 315 317 317 317 317 316 317 318 319 318 316 315 317 320 320 318 318 319 319 319 320
312 313 314 313 313 313 313 314 315 315 315 315 317 317 316 318 318 316 317 317 316 317 319 317 317 317 316 316 318 316 316 317 317 318 317 317 316 318 319 319 320 320 318 319 319 321 323
310 311 313 313 313 313 314 313 314 315 315 315 315 316 316 317 318 318 316 316 319 323 322 317 317 317 317 318 316 317 316 318 319 318 319 317 318 319 320 318 319 320 318 319 320 322 323
309 310 312 314 313 313 314 314 313 314 315 315 315 315 316 315 317 317 316 315 321 326 320 318 317 318 319 318 317 317 318 316 316 319 319 318 316 319 319 318 318 318 319 320 321 324 326
309 310 310 313 313 313 314 314 314 314 314 315 315 315 315 315 317 315 314 317 322 323 318 318 318 319 319 319 319 318 319 320 320 320 321 319 319 319 318 320 320 320 321 324 327 327 325
309 310 310 311 314 313 314 314 315 315 311 314 315 315 315 315 316 315 314 325 322 320 319 317 318 319 320 319 319 319 319 320 319 319 321 321 322 320 319 319 320 320 321 324 323 324 322
309 309 309 310 313 313 315 315 316 317 313 313 314 315 315 318 314 315 322 327 323 320 318 318 318 320 320 319 319 319 319 319 318 319 321 321 321 318 317 318 318 320 322 319 321 316 324
309 308 308 310 312 314 314 316 316 318 315 314 314 314 315 315 315 316 325 318 318 316 317 318 320 319 321 321 320 320 320 318 318 317 317 319 321 317 318 318 318 320 318 321 320 325 317
310 308 308 309 311 314 314 317 315 319 316 315 314 317 316 317 317 323 324 319 318 316 318 320 321 321 321 321 320 321 319 318 317 318 317 316 318 318 317 320 320 321 321 319 319 320 319
310 309 308 308 310 312 314 316 316 319 321 319 318 322 319 318 322 317 321 319 317 318 318 319 320 320 321 320 321 321 320 319 316 317 318 317 318 316 316 317 317 318 319 318 317 317 318
310 309 308 308 309 311 314 314 319 317 321 322 321 321 321 320 327 324 318 318 317 319 318 319 320 319 319 320 321 320 319 317 317 318 318 317 318 315 317 318 318 319 318 317 317 317 319
309 309 309 308 307 310 312 314 319 321 322 318 320 329 318 318 316 320 320 320 319 316 317 318 318 318 320 320 320 321 320 318 316 317 313 315 318 316 314 314 315 314 314 315 316 319 318
309 309 309 308 308 308 311 314 315 319 318 317 319 321 318 325 320 320 320 319 319 319 317 317 318 319 320 321 319 320 319 318 316 315 317 318 316 317 316 315 315 315 315 315 315 316 318
309 309 309 309 308 307 309 311 314 316 318 317 321 320 316 316 317 319 318 320 319 317 318 318 319 318 317 317 315 317 316 316 314 317 317 316 317 315 315 314 314 315 315 315 315 316 316
308 308 308 308 308 307 308 310 313 315 317 317 317 316 319 311 316 322 320 319 319 318 316 318 318 318 318 317 316 316 316 316 316 316 317 318 318 317 320 313 314 318 316 315 315 315 315
309 308 308 308 308 307 308 309 310 314 316 317 317 317 318 321 318 319 317 318 318 317 319 316 317 319 315 315 315 314 313 313 315 315 315 313 316 314 318 316 321 315 313 313 314 314 314
309 308 308 308 307 307 307 308 309 313 315 315 317 315 316 314 317 315 317 317 316 316 316 316 316 314 316 317 318 318 315 314 313 311 313 313 316 315 316 315 315 314 313 313 313 314 313
310 308 308 308 307 307 307 308 309 312 315 316 317 315 314 315 320 315 317 317 319 319 318 316 314 315 315 316 318 320 319 315 315 314 309 310 311 317 314 316 317 315 312 310 312 315 313
311 310 308 308 308 307 307 307 309 312 315 317 317 316 315 313 313 314 318 318 316 317 320 317 316 315 315 315 317 322 319 313 316 316 315 312 311 314 314 316 315 313 310 310 316 317 312
311 310 310 309 309 308 308 308 309 312 314 317 316 316 315 314 314 314 314 314 314 317 321 315 317 316 315 317 314 317 315 317 315 314 314 315 317 315 313 313 315 310 311 314 314 311 309
311 311 310 310 310 309 308 309 309 311 313 315 316 315 315 315 314 314 314 314 314 314 315 314 317 316 317 317 311 310 311 307 317 317 312 315 314 314 313 316 313 312 311 311 310 309 309

GFSGBSN_850_thetae_009.txt.gz
Theta_e
311 311 311 312 312 312 312 313 313 314 314 314 313 313 312 311 311 311 311 311 312 314 315 316 314 313 315 320 319 318 317 318 319 319 319 320 320 319 320 319 319 319 318 317 316 316 317
312 312 312 313 312 313 313 313 314 314 314 313 313 313 313 312 312 312 312 312 314 314 317 317 314 314 317 321 318 317 318 318 320 320 319 319 319 319 319 319 320 319 320 320 319 319 319
312 312 313 313 312 313 313 314 314 314 313 313 313 313 313 312 312 312 312 314 314 316 317 316 315 315 321 319 317 317 317 318 318 320 320 319 319 319 319 321 320 320 321 321 321 321 321
313 314 313 312 313 313 314 314 314 313 312 311 311 311 311 312 312 312 314 314 316 317 317 316 315 316 321 317 317 316 316 317 318 320 320 319 319 320 321 320 320 320 321 322 321 321 321
313 314 313 312 313 313 314 315 314 314 313 312 312 312 313 313 312 313 313 315 316 317 318 317 317 319 318 316 317 316 316 317 318 320 317 317 320 320 320 321 321 321 321 319 321 321 322
314 314 313 313 313 313 314 315 316 315 315 315 314 314 314 313 313 313 314 316 317 317 318 317 319 319 316 317 316 315 316 318 320 320 320 320 321 322 321 321 322 321 319 319 320 321 320
314 314 314 313 313 313 314 315 316 316 316 316 315 315 315 314 313 314 316 316 318 319 319 319 318 318 317 316 316 317 317 318 319 320 322 320 322 322 321 320 319 319 319 320 320 320 321
314 315 314 313 313 313 314 315 316 316 316 316 316 316 315 314 314 316 317 323 323 319 318 317 318 318 318 318 317 318 318 319 320 321 320 319 321 319 320 320 320 320 320 320 320 320 321
313 314 314 313 313 313 314 315 316 316 316 316 319 320 316 315 315 316 324 322 317 318 318 318 318 318 317 319 319 319 319 318 319 319 319 321 320 318 320 321 322 321 321 322 322 321 321
312 313 314 313 313 314 313 315 315 316 315 317 317 319 319 318 319 321 323 316 316 317 321 318 318 318 318 319 319 318 318 319 319 319 320 320 319 320 321 322 321 323 320 321 321 321 324
311 311 313 313 313 314 314 314 315 315 315 316 317 317 317 319 321 320 319 317 315 322 325 318 319 319 318 320 319 320 319 320 320 319 321 321 321 322 322 321 321 323 321 321 322 323 323
309 309 312 314 313 313 314 313 314 315 315 315 316 316 316 317 322 319 316 317 317 329 323 319 319 321 321 320 320 320 320 320 320 321 321 321 319 321 321 320 320 321 322 323 324 325 325
309 309 310 313 313 313 314 314 313 315 315 315 315 316 317 318 322 316 316 320 321 326 320 319 320 321 321 321 321 321 322 322 323 323 323 322 322 321 320 323 323 322 324 327 329 328 328
308 309 309 312 314 313 315 314 314 313 315 315 315 315 316 315 316 316 317 323 326 322 320 320 320 321 322 321 321 321 322 322 321 322 322 323 325 322 320 322 322 322 324 328 325 326 324
309 309 309 311 314 314 315 314 315 313 313 315 315 315 318 315 315 315 321 327 324 320 320 320 320 321 321 321 321 322 322 321 319 321 324 323 323 320 320 321 321 323 323 321 324 322 325
309 308 308 310 313 314 316 315 317 314 312 314 318 318 320 317 314 317 327 323 321 320 319 320 321 322 322 322 322 323 322 320 320 318 318 320 324 319 320 320 321 322 320 325 322 325 319
309 308 308 310 312 314 315 315 319 316 314 314 319 318 319 315 315 322 328 323 320 319 320 322 322 322 323 322 322 322 322 320 320 320 318 318 320 320 319 321 321 322 323 321 319 320 321
309 308 307 309 311 314 314 317 319 316 315 316 320 322 315 316 321 325 325 321 319 320 321 321 322 322 323 322 323 323 322 322 319 319 320 318 320 319 318 319 320 320 321 320 320 318 319
310 309 308 308 310 312 314 318 316 321 317 323 321 322 317 320 329 329 322 321 321 321 321 322 322 322 322 323 323 322 322 319 319 319 321 319 321 320 319 321 320 319 319 318 317 317 318
310 309 308 308 308 311 314 316 318 320 322 322 322 328 321 322 322 323 323 322 321 320 320 321 321 321 322 322 322 323 322 320 319 319 315 317 319 318 318 317 316 316 316 316 317 319 319
310 310 309 308 307 309 312 314 319 320 322 319 323 325 323 326 325 323 322 322 322 321 320 320 321 322 322 322 322 322 320 320 317 316 318 318 318 318 317 316 315 315 316 316 316 316 318
310 309 309 309 308 308 310 313 315 318 317 321 321 323 321 323 322 323 319 322 321 320 320 320 321 321 320 320 317 318 317 316 317 318 318 318 320 318 317 316 315 315 315 315 316 316 316
309 309 309 309 308 308 309 310 314 316 317 322 318 320 323 318 323 324 323 322 321 320 319 319 320 319 320 318 318 318 318 317 317 318 319 319 319 318 320 318 317 320 318 315 316 315 316
309 309 309 309 308 308 308 309 312 315 316 319 320 321 322 324 324 323 320 320 321 320 320 319 318 320 319 317 317 317 317 317 318 318 318 320 318 318 320 317 323 318 316 315 315 315 315
309 308 308 308 308 308 307 308 310 314 315 316 317 321 320 326 322 320 320 320 319 319 319 319 319 318 318 319 320 318 316 313 316 315 316 317 319 318 318 318 316 316 315 315 315 315 315
309 308 308 308 308 308 307 308 309 312 315 316 316 315 320 317 324 320 320 320 322 322 321 319 317 318 320 320 319 320 320 317 318 316 313 315 317 320 318 317 319 317 315 313 314 317 315
310 309 308 308 308 307 307 307 309 311 315 316 317 315 319 321 319 319 321 322 320 320 322 320 319 319 319 319 321 323 321 316 317 317 314 315 314 319 316 318 316 315 313 313 316 318 315
311 310 308 308 308 307 307 307 308 310 314 317 317 316 319 319 317 317 318 319 319 319 324 320 320 320 321 317 319 321 319 319 318 315 316 317 318 315 315 317 316 313 313 316 315 313 313
311 310 310 309 309 308 308 308 308 310 312 315 319 316 315 320 320 315 315 317 318 319 319 319 319 320 319 322 319 318 314 315 318 318 315 317 316 317 317 317 314 313 314 314 313 312 311

GFSGBSN_850_thetae_012.txt.gz
Theta_e
310 311 311 312 312 313 313 313 313 314 314 314 314 313 313 312 310 310 310 310 311 312 314 315 314 314 315 319 320 318 318 319 317 318 321 320 320 320 320 320 319 319 319 317 317 316 317
311 312 312 312 313 313 313 314 314 314 314 314 314 313 313 312 311 311 311 311 312 314 315 316 314 315 315 323 318 318 318 319 319 319 319 320 320 320 319 319 320 319 318 318 317 319 318
312 312 313 313 313 313 313 314 314 314 313 313 313 313 313 312 312 311 312 312 314 315 316 316 313 315 318 321 318 318 318 318 319 320 320 320 320 319 320 320 320 319 320 320 320 320 320
313 313 313 313 313 313 314 314 314 313 312 312 312 312 312 312 312 312 312 314 314 316 316 315 313 314 324 319 318 317 317 317 318 320 320 319 319 321 322 320 319 320 321 321 321 321 321
313 313 313 313 313 313 314 315 314 314 313 312 311 311 311 312 312 312 313 314 315 317 317 315 314 316 323 317 317 317 317 318 319 320 319 318 320 320 319 319 320 321 321 322 322 321 322
313 314 313 313 313 313 314 315 315 315 315 314 312 312 312 312 312 313 314 316 317 317 317 316 320 324 319 318 317 316 317 318 320 320 320 320 321 321 321 322 321 320 320 320 320 321 319
313 314 313 313 313 313 314 315 316 316 316 315 315 314 313 312 313 314 316 316 317 320 320 320 317 319 317 315 316 317 317 319 320 321 322 321 322 322 321 320 320 320 320 320 321 320 320
313 314 314 313 313 313 314 315 315 316 316 316 315 315 314 314 313 315 318 327 324 321 319 318 318 318 317 318 318 317 318 320 320 321 321 319 321 320 320 320 320 320 320 321 321 320 319
313 314 314 313 313 313 314 315 315 316 316 316 316 315 314 314 315 316 325 325 325 320 319 319 319 318 319 319 319 319 320 319 320 321 319 322 320 319 320 321 321 322 321 323 322 322 321
313 314 314 313 313 313 313 315 315 316 316 318 319 317 315 315 317 323 324 321 321 318 321 317 319 318 319 320 319 319 319 320 319 319 320 321 320 320 321 322 321 322 322 321 321 321 322
312 312 313 313 313 313 314 314 315 316 315 318 317 319 318 318 325 322 324 317 316 324 327 319 319 319 318 321 320 320 319 320 320 320 321 321 321 322 323 322 320 323 321 321 321 322 322
311 311 312 313 313 313 314 313 315 315 315 316 316 317 317 320 325 324 320 316 316 332 326 319 319 321 320 320 321 321 320 321 322 321 322 321 320 321 322 321 320 322 323 323 323 324 330
310 310 310 313 313 313 314 314 314 315 315 315 316 316 321 323 326 317 316 319 323 328 320 320 321 321 321 321 322 322 322 323 324 323 323 323 322 322 320 323 323 322 324 331 334 334 333
309 309 309 312 314 313 314 314 313 314 315 315 315 316 317 319 319 317 318 325 328 322 321 320 321 321 322 322 321 322 323 322 322 324 323 324 325 322 321 322 322 323 323 333 328 331 328
308 309 309 311 314 314 315 314 314 313 315 315 314 315 318 315 315 316 326 328 326 320 321 320 321 321 322 321 322 323 322 321 319 321 324 324 324 321 320 320 320 323 323 320 325 323 327
308 309 309 310 313 314 315 314 315 314 313 315 315 319 321 315 314 316 329 328 324 321 320 320 321 322 322 321 322 323 322 321 320 319 319 319 324 319 319 320 322 321 320 324 328 327 322
309 309 308 310 312 314 315 315 317 314 312 314 320 319 323 315 314 322 329 328 321 320 321 320 322 321 323 322 323 323 323 321 321 320 319 319 321 321 320 321 321 322 322 322 320 323 324
309 309 308 309 311 314 314 316 319 315 313 318 320 321 319 315 321 321 327 323 319 320 322 323 323 322 323 323 323 323 323 323 319 319 320 317 320 325 319 319 319 319 320 320 326 321 325
309 309 308 308 310 313 314 317 320 315 314 318 322 324 315 315 329 334 324 322 321 321 321 322 323 323 323 324 324 323 323 320 319 320 321 319 323 326 321 322 320 318 319 318 319 321 319
309 309 308 308 309 311 314 318 319 315 318 324 325 327 319 321 326 325 325 323 323 322 322 322 323 322 323 323 323 323 323 321 319 318 314 318 319 319 321 318 317 316 316 316 317 323 322
309 309 309 308 308 310 313 316 318 320 319 322 326 324 319 325 324 324 323 322 323 322 321 321 322 322 323 323 323 323 322 319 318 315 318 319 320 319 317 316 316 316 316 316 316 317 318
310 310 309 309 307 308 310 314 318 319 321 320 326 324 323 324 322 323 320 323 323 322 322 321 322 322 322 323 320 321 319 318 319 318 319 319 322 320 319 317 316 316 315 315 316 316 316
310 309 309 309 308 307 309 312 315 317 318 323 322 322 323 322 324 326 325 323 322 322 321 321 321 322 322 321 320 319 319 318 317 320 319 321 323 321 322 317 318 323 320 316 316 316 316
309 309 309 309 309 307 308 310 314 315 318 324 323 323 325 327 326 324 323 322 322 321 321 320 320 322 320 318 318 318 318 318 319 318 319 320 320 319 320 318 323 318 316 316 316 316 315
309 309 309 309 309 308 308 309 311 314 315 316 318 325 323 321 325 323 322 321 321 320 320 321 320 319 318 319 322 317 317 314 317 317 317 319 320 316 321 318 316 317 316 315 315 315 315
309 308 308 309 309 308 308 308 309 313 315 316 316 320 324 321 327 321 321 321 324 324 322 320 320 320 319 322 321 321 324 319 319 317 315 317 320 322 316 318 318 318 316 314 314 317 316
310 309 308 308 308 308 308 307 309 311 315 316 316 315 322 323 322 321 323 324 321 322 323 320 320 321 321 320 317 324 324 317 320 319 315 314 316 317 318 316 317 315 314 314 316 318 315
310 309 308 308 308 308 308 307 308 310 314 316 318 315 322 321 320 321 321 322 321 321 326 321 322 321 324 316 319 324 320 321 320 318 316 315 318 314 316 317 317 314 314 315 317 315 314
310 310 309 308 308 308 307 307 308 309 312 316 322 316 316 322 321 319 320 320 320 320 321 320 320 322 322 322 322 321 314 315 319 322 315 319 320 321 318 318 316 315 314 314 314 314 312

GFSGBSN_850_thetae_015.txt.gz
Theta_e
308 309 310 311 311 312 313 313 313 314 314 314 314 314 313 312 311 310 310 310 310 310 312 314 314 314 314 316 319 317 318 319 315 315 318 320 321 319 317 318 319 316 315 316 316 317 317
309 310 311 312 312 313 313 313 314 314 314 314 313 313 313 312 311 310 310 310 311 312 314 314 314 314 314 322 319 318 318 318 319 320 321 321 320 320 319 318 317 318 316 315 316 317 318
309 311 312 312 313 312 313 314 314 314 313 313 313 313 312 311 311 311 310 311 312 313 314 315 314 314 315 319 318 317 318 318 319 320 320 319 320 319 320 318 319 319 316 315 317 318 317
310 312 312 313 313 313 313 314 314 313 312 312 312 313 312 312 311 311 311 312 313 314 316 315 314 314 315 320 318 317 317 317 318 319 320 319 319 320 320 318 318 318 317 316 317 318 318
311 313 313 313 312 313 314 314 314 314 313 312 311 312 312 312 311 312 312 313 315 316 316 315 314 314 322 318 316 317 317 318 318 318 318 318 319 320 319 317 315 317 315 318 318 319 319
312 313 314 313 312 313 314 315 315 315 314 313 311 311 311 312 312 313 314 315 317 317 316 315 318 323 321 318 317 317 316 318 319 320 319 319 320 317 315 315 317 317 317 318 318 318 318
313 313 314 313 312 313 314 315 315 315 315 315 313 312 312 312 313 313 314 316 318 318 317 317 317 321 316 315 317 316 317 319 320 320 319 320 317 317 318 319 318 318 318 318 317 318 318
313 313 314 313 313 313 314 315 315 316 316 315 315 313 312 313 313 314 316 323 324 325 320 320 318 317 318 318 317 317 318 319 319 319 319 318 318 318 319 319 319 319 320 320 318 318 317
313 313 314 313 313 313 314 315 315 316 316 316 315 314 313 313 314 316 323 325 325 322 319 319 318 318 319 319 319 318 319 320 319 319 319 318 318 319 320 320 320 320 321 320 320 318 318
313 313 314 313 313 313 314 315 315 316 315 318 318 315 314 314 316 316 322 324 324 318 316 317 318 317 318 319 318 318 318 319 319 319 319 319 319 320 320 320 319 322 321 321 320 319 318
312 313 313 313 313 313 313 314 315 315 315 318 319 318 315 316 324 325 325 318 317 320 319 319 319 318 318 319 319 319 317 321 320 318 320 320 320 321 321 320 319 322 321 320 320 319 320
311 311 312 313 313 313 313 314 315 315 315 317 317 318 318 320 326 324 321 316 315 326 320 319 319 320 319 320 320 319 319 321 321 320 318 319 320 319 319 320 319 319 321 321 321 321 321
311 310 312 313 313 313 313 314 315 315 315 316 316 316 321 323 327 318 316 315 321 322 321 318 320 321 320 321 320 321 321 320 321 321 320 320 320 320 320 321 321 319 322 321 323 321 322
310 310 311 312 313 313 314 314 314 315 315 315 316 316 318 320 322 316 316 323 327 322 320 320 320 321 321 321 321 321 320 319 318 321 322 322 322 319 319 319 320 321 321 317 326 322 321
310 309 310 311 313 313 314 314 313 314 315 315 314 315 316 316 316 316 325 323 325 322 320 320 320 321 321 321 321 321 319 318 317 317 321 324 321 319 318 318 319 322 318 318 321 320 316
309 309 310 311 313 314 315 314 314 313 314 315 314 315 318 316 314 316 325 324 324 320 320 320 321 321 321 320 321 321 321 320 320 318 318 318 321 318 318 319 320 318 318 319 317 320 321
309 309 309 310 312 314 315 314 314 314 314 314 317 317 319 319 313 319 323 327 321 320 321 322 322 321 323 320 321 322 321 320 319 319 317 317 321 319 318 318 318 319 320 319 318 315 317
309 309 309 309 312 314 315 315 317 314 313 314 321 319 323 316 318 323 322 325 319 320 321 322 323 322 322 322 323 323 323 320 319 320 318 316 317 315 319 317 318 318 319 319 313 318 313
309 309 308 309 311 313 314 316 318 314 313 317 321 323 319 316 316 316 323 322 321 320 321 321 322 322 322 323 322 323 322 319 319 317 318 317 317 316 320 320 318 317 317 318 318 311 314
309 309 308 308 309 312 314 317 319 313 314 319 325 317 319 321 326 326 325 322 322 322 322 322 322 322 322 322 322 323 321 320 317 315 314 318 318 315 316 316 314 315 315 314 316 312 314
309 309 308 307 308 311 313 317 319 314 315 321 324 322 317 315 319 322 324 322 322 322 321 322 321 322 322 321 322 322 320 319 318 315 318 316 318 317 316 315 315 315 314 314 314 314 313
309 309 309 308 307 309 311 315 318 316 315 320 324 325 316 317 317 322 320 322 322 322 321 321 321 321 321 321 320 321 319 318 319 317 318 318 316 316 316 316 315 315 314 314 313 314 314
309 309 309 308 307 308 310 313 317 319 319 321 323 321 325 324 320 321 322 323 322 321 321 321 320 319 316 319 319 318 318 318 319 317 318 318 311 310 315 313 313 311 316 315 315 315 314
309 309 309 309 308 307 309 311 315 317 318 324 322 323 324 316 321 322 323 322 322 321 320 320 320 317 318 317 317 318 317 316 317 317 318 313 312 308 307 306 308 317 314 314 314 314 313
309 309 309 309 308 307 308 309 313 315 318 320 319 325 322 310 324 323 322 322 321 321 321 320 319 318 318 319 310 309 308 306 311 315 316 317 309 305 310 310 311 316 315 314 314 313 315
309 309 309 309 309 308 307 308 310 314 315 315 317 324 323 320 317 324 321 320 318 319 319 320 319 319 320 314 305 309 312 312 314 315 312 314 308 307 305 306 305 312 314 314 313 310 315
309 309 309 309 309 308 308 308 309 313 315 315 316 317 322 322 321 322 321 320 322 321 317 320 320 320 321 307 312 310 313 315 314 313 308 306 306 305 312 302 308 312 314 313 312 310 314
309 308 308 308 308 308 308 308 308 310 315 317 315 319 321 321 320 321 322 322 321 322 313 320 315 317 311 311 307 308 308 309 313 314 310 307 306 310 312 310 309 313 313 310 311 314 314
310 309 308 308 308 308 308 308 308 309 313 317 316 316 319 319 318 320 321 321 322 322 321 319 315 321 319 310 307 309 310 311 309 310 313 313 311 310 309 308 310 314 314 313 314 314 312

GFSGBSN_850_thetae_018.txt.gz
Theta_e
306 306 307 309 310 311 312 312 312 313 314 314 313 313 313 313 312 311 310 309 309 310 309 311 312 313 313 315 317 317 317 318 318 315 314 314 319 320 316 316 316 313 313 315 317 317 315
306 307 308 310 311 312 312 312 313 314 314 313 313 313 313 312 311 310 310 310 310 310 311 312 313 314 314 320 320 318 318 317 318 319 319 319 320 319 318 316 315 315 314 314 315 316 317
306 308 309 311 312 313 312 313 314 314 313 312 312 313 313 312 311 310 310 310 310 311 313 313 314 314 315 317 319 317 317 317 318 319 319 319 319 320 319 316 316 315 313 314 315 317 316
306 308 310 312 313 313 312 313 314 314 313 312 312 312 312 312 311 310 310 311 312 313 314 315 314 314 315 319 319 317 317 317 318 319 319 318 319 319 318 317 317 315 314 315 316 315 317
307 309 311 312 313 312 313 314 314 314 314 312 311 312 312 311 311 311 311 312 313 314 315 315 315 315 314 320 317 317 317 318 318 317 317 318 319 319 318 313 312 313 314 315 317 316 316
308 310 312 313 313 312 313 314 315 315 314 312 311 311 311 311 311 311 313 314 315 316 316 315 320 320 316 319 317 317 316 318 319 319 318 319 319 314 312 312 314 315 315 315 316 316 317
309 311 313 313 313 312 313 314 315 315 314 313 312 311 311 311 312 312 314 316 317 318 316 313 316 320 318 316 316 316 316 319 320 319 318 319 316 315 316 315 316 316 316 316 316 317 317
309 312 313 313 313 312 313 314 315 315 315 314 313 312 312 312 313 314 316 320 326 324 316 314 318 319 318 318 317 317 317 319 319 318 318 315 316 317 317 318 318 319 317 317 317 317 315
310 313 313 313 313 313 313 315 315 316 315 315 314 312 312 313 314 315 319 324 324 321 322 318 318 318 319 319 317 318 319 319 318 318 317 316 317 318 319 317 319 319 318 319 319 317 316
310 313 313 313 313 313 313 315 315 315 316 316 314 313 313 313 315 316 317 324 323 319 312 316 317 317 318 318 317 318 318 319 319 316 316 317 318 319 319 319 318 321 320 319 319 316 314
311 313 313 313 313 313 313 314 315 315 318 318 316 314 314 315 325 326 325 323 318 320 315 316 318 317 319 319 318 317 318 321 318 317 317 319 319 318 319 319 318 321 319 319 319 317 318
312 313 313 313 313 313 313 314 315 315 317 318 317 316 316 319 326 324 323 316 317 321 317 318 318 318 317 319 319 318 319 320 320 317 316 318 319 318 319 319 319 318 320 320 319 318 319
312 312 313 313 313 313 313 314 315 315 316 316 317 318 320 321 323 321 316 318 319 317 319 317 318 319 319 319 320 319 318 317 319 318 319 319 319 318 319 320 318 317 319 319 321 319 320
312 312 312 312 313 313 313 314 315 315 315 315 316 318 321 322 322 319 316 318 325 320 319 317 318 319 319 319 319 319 319 317 316 319 318 320 320 318 317 318 319 320 318 316 325 319 318
311 311 311 312 313 313 313 313 314 315 315 315 316 316 316 317 318 317 321 320 322 321 319 319 319 319 320 320 319 318 317 316 317 317 320 320 319 318 317 317 318 320 316 317 317 315 314
311 310 310 311 313 313 314 314 314 315 315 314 315 315 315 315 315 316 321 321 323 319 320 318 319 319 319 319 320 319 319 319 319 316 316 318 318 317 317 319 318 315 316 318 313 317 319
309 310 309 310 312 313 315 314 313 314 314 314 315 314 314 315 314 317 319 322 321 320 321 321 321 319 320 318 319 320 320 318 317 318 315 318 316 317 319 316 317 316 317 317 315 313 315
309 309 309 310 312 314 315 314 313 313 314 314 318 315 321 320 312 317 319 322 319 319 320 320 321 322 320 321 322 321 321 319 319 319 316 315 314 313 319 316 317 317 318 315 312 316 311
308 309 308 309 312 314 315 315 314 313 314 315 320 323 321 316 310 310 318 320 320 319 319 320 321 321 321 321 322 322 320 318 315 316 318 315 314 314 318 317 315 316 316 317 313 308 313
308 309 308 309 311 313 316 316 316 313 313 316 323 315 319 320 322 318 323 320 321 321 321 321 320 320 320 321 320 321 320 319 314 313 315 317 316 314 316 316 313 314 314 315 314 310 312
309 308 307 309 311 313 316 317 317 312 314 320 324 317 315 312 314 319 321 320 321 321 320 321 320 320 320 321 321 320 319 318 316 314 316 314 316 316 314 313 314 313 313 313 313 312 313
309 308 307 308 310 312 315 317 318 313 314 319 323 323 315 313 314 319 318 320 320 320 320 320 320 320 319 319 318 319 317 316 316 315 317 315 313 313 314 314 314 314 314 314 313 313 313
309 308 307 307 308 310 313 317 318 314 314 317 322 323 317 319 313 316 318 319 320 320 320 320 318 316 315 318 316 317 317 317 317 315 317 314 309 307 310 310 312 309 314 314 314 312 313
309 309 308 307 307 309 311 315 317 317 314 320 323 324 322 313 316 316 321 321 320 319 319 319 318 316 318 317 317 317 315 315 316 316 315 310 309 302 304 302 305 314 313 313 313 314 312
309 309 309 308 307 308 310 314 316 317 319 323 322 325 322 308 319 321 321 319 319 319 319 319 318 318 316 312 306 308 306 308 309 313 315 311 303 304 302 307 306 314 313 313 312 312 312
309 309 309 308 307 307 309 311 315 316 319 317 319 323 321 317 315 322 319 319 316 316 315 319 317 319 318 306 303 308 308 308 313 315 311 310 303 303 306 302 302 306 313 313 312 310 313
309 309 309 309 308 307 308 309 313 314 315 315 318 323 320 321 321 322 318 319 320 317 314 319 319 320 317 299 307 304 312 311 312 310 307 305 301 303 297 299 305 306 312 313 311 308 314
309 309 309 309 308 308 307 308 310 314 314 315 316 318 320 321 320 321 322 321 320 319 312 318 314 315 307 305 303 308 303 308 310 311 309 307 306 305 304 300 308 309 311 310 309 314 314
309 309 309 308 308 308 308 308 309 311 314 316 316 319 319 318 319 320 321 321 321 320 319 318 314 316 315 307 305 309 304 308 306 311 310 311 307 307 308 309 308 312 313 313 313 314 314

GFSGBSN_850_thetae_021.txt.gz
Theta_e
307 306 306 306 307 308 310 311 312 312 313 313 313 313 313 313 313 312 311 310 309 309 309 309 311 312 312 314 316 318 317 317 317 315 315 315 316 318 316 315 316 312 312 314 314 314 314
308 307 306 307 308 309 311 312 312 313 313 313 313 312 313 313 312 311 310 309 309 309 309 310 312 313 313 315 319 318 318 317 317 317 317 315 316 318 319 315 313 314 312 313 315 315 314
308 307 306 307 309 310 311 312 312 313 313 313 312 312 312 312 312 311 310 309 309 309 310 312 313 314 314 318 319 318 317 316 317 319 319 318 319 319 318 313 315 313 312 313 314 315 315
309 306 306 308 309 311 312 312 313 314 313 313 312 311 312 312 311 310 310 310 310 311 312 313 314 314 315 317 318 318 316 316 317 319 318 318 318 318 316 316 315 313 312 313 314 315 314
310 306 306 308 311 312 312 312 313 314 314 313 312 311 312 311 311 310 310 310 311 312 314 315 315 315 315 318 319 317 316 317 318 319 318 319 320 317 316 311 311 311 313 315 316 314 314
310 306 307 309 312 312 312 313 314 314 314 313 311 311 311 311 311 311 311 312 313 314 315 315 320 317 315 317 316 317 316 318 318 318 318 319 319 313 311 310 312 315 315 314 314 315 314
309 306 308 310 312 313 312 313 314 314 314 314 311 311 311 311 311 311 313 315 317 317 316 313 314 315 318 315 317 317 316 318 319 318 316 317 315 315 314 315 315 316 315 315 315 315 313
309 307 308 311 312 313 312 313 314 315 315 314 312 311 311 311 312 313 315 320 326 324 316 312 314 316 317 318 316 316 316 318 318 316 316 314 316 316 316 317 317 316 315 316 316 314 313
309 307 309 312 313 313 312 314 314 315 315 314 312 311 312 312 313 315 317 321 324 321 321 317 317 316 318 318 316 318 319 319 316 317 316 315 316 317 316 316 319 318 317 317 318 314 314
309 308 310 312 313 313 312 314 314 315 315 314 313 312 313 313 314 315 317 324 323 319 312 315 316 316 318 317 316 317 318 319 317 316 315 316 317 317 317 317 317 320 319 318 318 313 317
308 308 311 313 313 313 313 314 314 315 316 316 313 313 313 316 323 322 324 324 320 320 313 314 317 317 319 319 317 316 319 320 316 316 316 319 318 317 317 318 318 320 318 317 317 315 315
308 309 312 313 313 313 313 314 314 315 317 317 314 314 314 319 324 323 321 316 318 318 316 317 317 317 316 318 318 317 319 320 318 316 315 317 318 317 318 318 317 317 319 318 317 316 317
308 309 312 313 313 313 313 314 314 314 317 317 316 315 316 322 324 320 316 317 315 318 317 317 317 317 317 318 318 317 316 315 317 317 318 317 317 316 318 320 317 317 318 318 320 318 319
308 310 312 313 312 313 313 314 314 314 316 316 317 317 319 322 321 320 316 312 323 320 317 316 317 317 318 318 317 317 317 316 315 317 317 318 319 317 315 317 318 317 317 317 325 319 317
309 311 311 312 312 313 313 313 314 314 316 316 318 319 320 319 319 318 317 315 320 318 317 318 318 318 319 319 317 316 316 315 316 316 320 318 318 317 316 316 318 318 315 315 315 312 314
309 311 310 310 312 313 313 313 314 314 315 316 317 316 316 316 316 315 318 318 321 319 318 317 319 318 318 318 319 318 319 317 318 314 315 317 317 316 316 317 316 315 315 316 312 316 319
310 311 310 309 312 313 313 313 313 314 314 314 315 315 316 315 315 315 314 319 322 319 321 318 318 318 318 317 318 319 318 317 317 317 315 317 313 314 317 315 316 316 316 314 313 311 314
311 310 308 309 312 313 313 314 313 314 314 314 315 310 318 317 312 314 317 320 320 318 320 320 320 320 318 320 321 320 320 318 317 318 315 315 312 313 317 314 315 316 317 313 310 314 309
311 309 308 309 312 313 314 314 313 314 314 315 316 324 322 317 307 309 315 320 318 318 318 319 320 320 319 320 320 320 319 317 313 315 316 314 313 313 316 316 313 317 315 313 310 307 312
309 308 308 310 312 313 314 314 313 313 314 315 320 314 320 319 315 312 319 319 320 320 320 319 319 319 319 320 318 319 319 317 312 313 315 315 314 312 314 314 313 313 313 314 312 309 311
308 308 308 310 312 313 315 314 313 313 314 318 322 314 316 312 316 318 319 318 320 320 320 319 319 320 319 320 320 319 318 316 313 314 315 312 314 314 312 312 312 313 313 312 313 312 312
308 308 308 310 312 314 316 316 315 313 314 319 323 318 313 310 315 316 317 319 319 319 319 319 318 318 318 317 317 318 315 314 312 315 315 312 311 311 314 312 312 313 310 310 310 310 311
308 307 308 309 311 313 316 317 315 312 314 319 321 323 314 313 312 315 316 319 319 318 319 318 317 315 315 316 316 316 315 315 315 314 315 311 308 305 306 308 310 305 310 313 312 312 311
308 307 307 309 311 312 316 318 315 312 313 317 321 323 320 311 310 312 319 319 318 318 318 317 317 315 315 315 316 316 315 314 315 314 313 309 305 300 303 301 303 308 310 311 311 312 312
308 307 307 308 309 312 316 317 314 312 314 318 323 324 320 307 315 318 318 318 318 318 318 318 317 317 316 311 305 308 305 307 309 312 310 309 302 303 302 304 305 310 312 311 312 310 310
308 307 307 308 308 311 315 317 316 314 314 318 321 322 319 318 316 320 318 317 314 314 314 318 315 315 316 303 302 305 305 308 312 314 310 306 301 302 303 300 300 305 311 312 310 310 311
308 308 307 307 308 310 315 316 317 317 318 320 322 321 319 320 320 319 317 317 317 314 312 318 319 318 314 299 300 304 310 308 311 309 307 305 299 302 294 299 304 304 311 311 311 307 313
309 308 308 307 307 309 312 315 316 316 316 316 321 321 319 320 320 321 320 319 318 317 311 317 314 315 305 305 302 303 301 307 308 309 309 308 308 305 303 301 307 307 310 310 310 310 313
309 309 308 308 307 308 309 312 314 315 314 315 316 318 318 319 319 320 320 320 319 318 318 318 316 314 313 305 300 303 301 308 305 309 308 309 306 307 307 308 307 309 311 312 312 312 313

GFSGBSN_850_thetae_024.txt.gz
Theta_e
312 311 307 306 306 306 307 308 309 310 312 312 313 313 313 312 313 313 312 311 310 309 308 308 309 310 312 312 314 318 317 317 317 317 316 315 315 316 316 315 315 314 313 312 313 314 319
312 312 308 306 306 306 307 308 310 311 312 313 313 313 312 312 312 312 312 310 309 309 308 309 310 312 312 315 317 318 317 317 316 316 315 315 314 316 318 316 315 314 312 312 312 312 312
313 312 310 306 306 306 307 309 311 312 312 313 313 312 311 312 312 312 311 310 309 309 309 310 311 313 313 315 318 318 317 316 316 316 317 318 315 317 317 314 314 312 312 311 312 314 313
312 312 310 307 306 306 308 310 312 312 313 313 313 312 311 312 312 311 310 310 309 309 310 311 313 314 313 316 317 318 316 316 317 317 317 318 317 318 318 314 313 312 311 311 313 314 313
314 312 311 307 306 307 309 311 312 312 313 314 313 312 311 312 311 311 310 310 310 311 312 314 314 315 315 316 319 317 316 316 317 318 318 317 317 316 313 311 310 309 312 314 316 314 314
315 312 311 307 306 307 310 312 312 313 313 314 313 311 311 311 311 310 310 310 311 313 314 315 319 317 315 317 317 316 316 316 318 318 318 318 317 312 310 309 311 313 313 313 314 314 311
315 314 311 308 306 307 311 312 312 313 314 314 313 311 311 311 310 310 311 313 316 316 315 313 314 314 318 316 316 316 316 317 318 318 316 316 313 313 314 313 312 313 314 314 313 313 313
315 315 310 308 306 309 311 312 312 313 314 314 312 310 310 310 310 311 313 317 325 322 319 313 313 315 316 317 317 315 316 318 317 316 315 314 314 315 316 315 314 314 314 315 315 312 314
315 315 310 308 306 310 312 312 313 313 314 314 312 311 310 311 311 313 316 319 324 323 320 317 315 314 317 317 316 317 318 318 316 316 315 314 315 316 316 316 317 317 316 317 316 315 313
316 316 311 307 307 311 312 312 313 314 314 314 313 311 311 312 313 314 316 324 324 322 312 315 316 316 317 317 316 317 318 318 315 314 315 317 316 316 315 316 316 319 318 316 315 314 317
316 316 311 307 307 312 313 312 313 314 315 314 313 312 313 313 315 317 323 323 320 321 313 313 316 317 318 318 316 316 319 319 315 315 315 318 317 316 316 317 317 319 316 316 315 314 314
316 316 310 307 308 312 313 312 313 314 314 315 314 313 313 319 321 323 319 316 319 316 315 315 317 316 316 317 317 317 319 318 317 315 315 316 316 316 317 316 316 316 317 315 315 314 316
316 317 310 307 309 312 313 312 313 314 314 316 315 314 314 322 323 320 316 318 314 317 316 316 316 315 316 317 316 316 315 314 316 317 317 316 316 315 316 318 316 316 316 317 319 317 318
316 317 311 308 311 313 312 312 313 314 315 316 316 315 316 323 322 319 317 311 318 319 315 315 316 316 317 317 317 315 316 315 314 315 315 316 316 315 314 317 317 316 317 316 323 319 317
310 317 312 308 312 313 312 312 313 314 314 315 316 317 322 319 318 318 316 311 316 317 315 316 317 318 318 318 316 315 315 314 315 315 318 317 318 316 315 315 317 317 314 314 315 312 313
309 317 311 308 312 312 312 312 313 313 314 315 317 321 320 316 316 316 312 313 319 318 317 316 317 317 318 318 318 317 318 316 316 314 314 316 316 315 315 316 315 316 313 315 311 315 317
309 316 310 310 312 312 312 313 313 313 314 317 319 317 318 315 315 315 310 314 321 319 319 317 317 318 317 317 317 318 317 317 316 317 315 314 313 313 315 315 316 315 315 312 312 310 312
310 315 309 311 312 312 312 313 313 313 313 316 317 309 319 314 312 311 315 319 321 317 319 319 318 317 316 318 319 319 318 317 316 317 315 313 311 314 315 314 314 314 315 311 309 312 308
315 312 309 311 311 312 313 313 313 313 313 316 315 323 321 314 308 308 313 318 318 317 318 319 319 319 318 319 319 318 318 316 313 315 314 312 312 313 314 312 312 316 314 310 308 307 312
314 310 310 311 311 312 313 313 313 313 313 317 317 316 321 319 310 311 316 319 319 319 319 318 318 318 317 319 316 318 318 316 312 313 315 313 311 311 312 312 311 312 314 312 311 308 309
311 309 309 309 311 312 313 314 313 313 313 318 317 315 317 314 316 311 316 317 319 319 319 318 318 318 318 319 319 318 317 315 312 314 314 310 313 312 312 311 312 312 311 312 312 310 311
309 309 308 309 311 313 313 314 313 313 314 321 322 314 312 311 318 315 315 317 317 318 318 319 317 318 317 317 316 317 314 312 309 314 314 310 310 310 314 311 310 312 309 308 309 310 310
309 307 308 310 312 313 314 314 313 313 314 319 322 318 315 309 311 313 314 317 317 317 318 317 316 314 316 316 316 315 313 312 312 313 312 309 307 305 305 306 306 306 308 309 310 309 308
308 307 308 310 312 313 315 315 313 313 314 317 321 320 316 307 309 314 316 318 317 316 317 316 316 313 314 315 315 315 314 314 314 312 310 307 304 299 302 301 303 308 308 309 310 310 308
307 307 308 310 312 313 316 316 314 313 314 317 320 323 319 304 309 314 316 316 317 317 317 317 316 315 315 312 307 310 305 307 308 309 306 306 302 302 302 303 305 308 308 310 311 310 309
307 307 308 310 311 314 317 317 315 313 314 316 321 323 319 312 313 317 316 316 313 313 313 317 314 313 314 301 302 305 308 310 312 314 308 304 300 302 299 301 301 305 308 310 310 310 309
307 307 308 309 312 315 317 317 315 312 314 316 320 321 319 320 319 318 315 316 316 313 311 316 315 316 312 298 299 302 306 306 310 309 308 304 301 301 293 298 303 304 310 310 311 308 309
307 307 308 310 313 316 317 316 313 313 314 319 320 321 319 320 320 320 318 318 316 316 310 316 313 314 305 305 302 302 301 306 308 308 309 308 307 302 301 298 308 306 310 310 309 309 311
307 307 308 309 312 315 317 318 316 315 318 319 320 319 319 320 319 320 319 319 318 317 317 317 316 314 313 304 298 298 301 304 304 308 307 309 306 306 306 307 306 308 310 312 311 310 311

GFSGBSN_850_thetae_027.txt.gz
Theta_e
316 313 312 311 310 306 306 306 307 307 308 310 311 312 313 312 312 312 312 312 311 310 309 308 308 308 310 312 312 318 317 317 317 318 317 315 315 315 318 317 315 315 314 312 313 319 323
321 313 313 311 311 307 306 306 307 308 309 311 312 313 312 312 311 312 312 311 310 309 308 308 308 310 311 314 316 318 317 317 317 317 316 316 314 315 317 315 316 315 312 311 310 313 319
322 318 313 312 310 308 306 306 307 308 310 311 312 313 312 311 311 312 312 310 309 309 308 308 310 311 313 314 318 317 317 317 316 316 316 315 315 316 317 315 314 311 313 313 312 312 313
323 322 314 313 310 309 306 306 307 309 311 312 313 313 312 311 311 312 311 309 309 309 309 310 311 313 312 315 316 318 318 316 315 316 315 316 316 315 316 313 313 314 313 314 314 314 312
322 322 318 314 311 310 306 306 307 310 311 312 313 313 312 311 311 311 310 309 309 310 310 312 314 314 314 316 318 317 316 316 316 316 316 316 316 316 312 314 315 314 315 315 315 313 314
320 322 319 314 312 310 306 306 307 310 312 313 313 313 312 311 311 310 310 310 310 311 313 314 317 317 315 316 318 316 316 315 318 317 316 316 315 315 313 314 316 316 315 314 316 314 315
320 321 321 315 314 310 306 306 308 311 312 313 313 313 311 310 311 310 310 311 315 316 314 313 313 315 317 315 316 316 316 316 318 317 318 315 317 317 316 313 312 314 315 315 314 312 319
318 319 321 316 315 311 307 306 309 312 312 313 313 313 311 310 310 310 311 315 317 321 320 314 313 314 315 315 317 315 316 317 317 317 315 317 317 315 316 315 315 315 317 316 315 314 319
314 317 320 318 315 313 307 306 310 312 312 313 314 313 310 310 310 311 314 321 322 324 321 317 314 312 315 317 316 316 317 317 316 316 316 317 316 315 317 317 318 317 318 317 318 317 317
306 316 319 319 315 314 308 306 311 312 313 313 314 312 310 310 310 312 317 318 324 324 314 315 315 316 317 317 316 317 317 317 315 315 317 318 316 316 316 318 316 320 317 315 316 318 321
303 311 316 319 315 315 308 307 312 312 313 314 314 312 311 311 315 314 319 322 322 322 316 314 315 316 317 316 315 317 318 318 316 315 316 318 317 316 318 316 316 319 316 317 315 317 318
303 305 312 318 316 315 307 307 312 312 313 314 314 313 312 312 317 318 324 318 321 320 321 315 316 315 316 316 316 317 318 317 316 316 316 316 315 316 317 315 315 316 319 318 318 319 320
304 304 310 317 316 315 308 308 312 312 313 314 314 313 313 314 321 323 318 321 317 320 316 315 316 315 316 316 316 315 316 317 318 320 319 317 317 315 316 319 316 318 320 323 325 325 323
304 304 307 315 316 315 307 309 312 312 313 313 314 314 313 317 325 323 320 313 317 317 316 314 315 315 317 316 316 315 316 317 315 316 318 318 319 315 315 317 318 317 320 325 323 325 323
303 303 305 311 316 314 308 311 312 312 313 313 314 315 315 318 323 318 315 315 316 316 315 316 316 318 317 317 316 316 315 315 314 315 320 319 318 315 314 315 317 317 318 316 318 313 319
303 303 307 312 316 312 308 312 312 312 313 313 313 315 316 322 317 319 313 313 315 317 316 315 317 317 318 318 318 317 317 316 316 315 314 317 318 314 315 315 315 317 315 319 317 318 317
301 303 307 313 316 311 309 312 312 312 313 312 312 317 320 319 318 316 314 312 319 321 317 316 317 317 317 318 317 318 317 316 316 316 315 313 317 317 315 316 318 318 317 314 315 315 316
301 302 304 309 315 310 310 312 312 312 312 312 318 311 320 316 312 310 314 315 321 317 318 318 316 316 317 317 319 318 319 317 315 316 318 314 315 319 316 314 314 315 316 315 317 314 313
301 301 303 307 314 310 311 312 312 313 313 314 317 322 321 316 312 311 312 317 318 316 317 318 319 317 318 319 320 318 318 314 313 314 316 314 316 318 318 315 314 317 315 312 311 312 315
301 302 302 305 313 309 311 312 312 313 312 316 318 318 321 316 310 312 316 317 318 318 317 317 317 317 318 319 317 319 318 314 312 313 314 313 313 316 318 315 314 314 315 312 314 316 314
301 302 304 307 313 309 310 312 313 313 312 316 317 315 318 315 312 310 313 317 318 319 317 317 318 317 318 319 318 318 317 313 312 314 313 313 316 313 312 312 312 311 312 313 314 313 317
301 302 305 312 310 309 310 312 313 313 312 317 316 314 313 311 313 312 314 317 317 317 318 318 318 317 316 318 318 319 316 313 311 314 314 311 314 311 313 311 311 313 311 311 312 312 312
302 304 310 312 309 308 312 313 313 313 312 317 320 316 314 308 312 311 314 316 316 317 317 316 316 316 316 316 315 313 312 311 311 315 313 311 311 310 312 307 308 311 311 312 311 310 313
304 308 312 309 308 310 312 313 313 313 313 318 319 316 313 308 311 312 314 317 316 316 318 315 315 315 314 314 314 314 313 312 311 309 309 308 306 304 310 305 312 311 310 310 311 311 310
310 310 309 308 309 311 312 313 313 313 313 318 319 317 316 305 309 313 315 316 316 317 316 316 316 314 314 312 312 313 311 311 310 308 306 306 306 306 313 310 308 309 306 310 312 313 311
309 308 307 309 310 312 313 314 313 313 314 318 320 322 318 310 310 316 316 315 315 314 314 314 312 312 311 303 308 313 316 313 312 313 308 305 304 311 305 310 311 309 306 310 310 315 310
307 307 308 310 311 312 315 315 313 313 314 318 319 321 319 315 313 317 316 316 315 313 313 312 312 313 311 305 309 311 312 307 312 311 310 311 307 310 302 312 309 306 307 309 313 314 307
307 308 309 310 312 314 316 315 314 313 314 316 317 320 319 319 318 318 317 316 315 316 315 314 314 314 307 310 311 309 311 309 310 309 311 312 312 311 304 309 314 305 310 314 312 310 309
308 309 310 312 315 316 317 317 315 313 314 315 319 320 319 319 318 318 318 317 317 317 317 315 315 313 312 309 304 303 309 306 307 315 307 312 311 313 310 313 307 308 311 312 311 310 309

GFSGBSN_850_thetae_030.txt.gz
Theta_e
323 323 323 318 313 311 310 307 305 306 307 308 308 310 311 313 312 311 311 312 312 311 310 308 308 308 309 314 316 317 317 313 314 314 317 315 316 316 316 317 319 319 318 317 320 323 322
322 322 322 322 315 313 310 308 306 306 307 308 309 311 312 313 312 311 312 312 311 310 309 308 308 308 310 317 314 317 316 317 315 316 317 316 316 317 319 319 320 319 317 316 316 320 323
320 323 322 322 321 313 311 309 306 306 307 308 309 311 313 312 312 311 312 311 310 309 308 308 308 310 311 316 316 317 316 317 316 316 317 317 316 316 319 320 317 316 316 315 315 316 323
319 321 319 322 322 315 312 310 307 306 307 308 310 312 313 313 311 311 311 310 309 309 308 309 310 312 317 313 316 317 317 316 316 316 317 317 317 317 318 315 315 316 317 317 316 317 316
316 319 320 320 322 319 314 311 308 306 307 309 311 312 313 312 311 311 310 310 309 309 309 311 313 313 319 315 316 317 316 315 316 315 316 316 316 318 317 318 317 317 318 317 317 317 318
308 316 320 318 320 321 315 312 308 306 306 310 312 313 313 312 311 311 310 309 309 310 311 313 314 319 316 318 317 315 315 315 318 316 317 317 318 319 318 319 320 319 318 317 317 318 318
307 310 317 319 321 321 317 313 309 306 307 310 312 313 313 312 310 310 310 309 314 316 313 317 316 319 316 316 316 315 315 317 318 318 320 318 320 319 318 318 317 318 319 319 318 320 320
305 306 315 318 320 321 319 314 310 306 307 311 312 313 313 311 310 310 310 316 318 320 321 315 314 314 314 314 318 316 316 319 319 319 320 320 320 318 319 318 319 319 319 320 318 319 323
303 305 307 315 319 319 320 315 311 306 308 312 313 313 313 310 310 310 310 314 321 323 325 319 316 315 314 315 318 316 317 318 319 319 319 320 320 319 320 320 320 321 321 320 321 321 322
303 304 304 313 316 319 320 315 312 306 308 312 313 313 312 310 309 310 312 315 317 324 320 317 318 318 317 317 317 316 317 318 319 319 321 321 319 320 321 321 321 321 320 320 321 322 321
302 303 304 306 313 318 319 316 313 307 309 312 313 313 312 310 312 311 317 315 323 322 318 318 318 316 317 317 317 318 318 319 318 319 320 321 320 321 321 321 320 322 319 321 321 322 322
301 302 302 305 307 315 319 317 314 307 310 312 313 313 312 310 312 314 318 324 322 324 319 318 318 318 319 317 317 318 319 318 318 320 321 320 319 321 321 320 320 320 322 322 322 323 323
300 301 303 303 304 312 318 317 314 307 310 312 313 313 312 311 315 316 322 322 322 322 318 318 318 318 319 318 319 320 320 320 320 322 322 321 321 320 320 322 321 322 323 322 324 324 322
300 300 301 302 304 306 317 317 314 308 311 312 313 313 312 312 318 324 322 322 320 318 318 317 318 319 319 319 319 320 321 320 320 321 322 321 322 320 319 322 321 322 322 321 318 321 321
300 300 301 302 304 306 315 317 314 308 311 312 312 312 313 312 314 322 319 322 319 320 319 318 318 318 320 319 320 321 321 321 320 320 320 321 320 319 318 320 320 321 321 322 324 319 324
298 300 301 301 304 304 311 316 314 309 312 312 312 313 314 313 314 316 321 320 319 320 318 318 318 318 320 319 319 321 321 320 320 319 320 321 321 319 319 319 319 321 320 322 323 323 319
298 300 301 302 304 304 310 316 313 309 312 312 314 315 316 314 316 321 321 320 319 322 319 319 318 319 319 320 319 320 321 320 319 319 319 320 321 321 319 321 322 321 321 319 320 321 318
298 299 300 302 303 304 308 315 312 310 312 312 315 319 316 316 321 320 321 319 321 320 319 320 320 320 320 321 321 319 321 321 318 319 322 319 322 323 321 318 318 320 321 319 319 318 320
299 300 300 300 303 308 311 315 311 310 312 312 315 321 322 320 322 321 318 319 322 320 321 322 321 321 322 323 323 322 322 316 316 319 322 320 322 323 321 319 318 320 320 318 318 319 319
298 300 299 300 302 306 309 314 309 311 312 315 317 323 321 317 316 319 319 319 321 319 320 321 322 322 323 323 322 323 322 317 315 317 313 315 321 322 323 320 319 319 319 318 318 319 317
297 299 299 301 302 303 308 312 310 312 312 317 319 320 321 321 317 319 319 319 321 322 320 321 322 323 323 324 323 323 321 316 316 315 318 319 321 319 317 316 316 317 318 318 318 318 318
296 298 299 301 300 301 307 310 310 312 312 317 318 319 316 318 315 317 316 320 320 321 322 322 323 322 323 324 322 324 322 319 320 318 320 317 321 317 318 316 315 317 317 317 318 318 318
297 299 300 301 302 302 306 310 310 312 312 318 317 316 317 314 317 318 318 318 319 322 320 320 323 323 323 322 320 320 317 316 317 320 320 319 319 318 318 313 314 319 317 317 316 317 317
299 300 301 300 304 306 311 309 311 312 313 319 317 316 318 319 317 316 317 319 321 322 323 319 320 322 317 316 316 316 316 316 315 315 315 317 316 315 319 312 325 315 313 314 316 316 316
299 301 301 305 306 311 310 308 312 312 314 317 318 316 315 319 317 316 317 320 320 319 321 320 318 316 315 316 320 320 321 321 317 313 313 313 315 315 324 316 314 312 311 312 314 314 315
300 302 304 308 312 310 308 310 312 313 314 318 318 316 316 318 318 315 318 320 322 323 321 316 313 313 311 316 321 324 324 320 319 318 312 311 312 318 315 328 329 315 312 312 314 315 312
303 305 309 311 309 307 309 312 312 313 314 319 319 320 317 321 315 318 319 321 320 322 323 316 314 315 312 320 329 326 323 314 318 317 317 318 316 322 317 323 317 313 310 313 315 315 314
310 310 309 307 308 310 312 312 313 313 315 319 318 318 319 319 318 318 317 318 318 321 324 317 318 317 317 325 326 321 325 316 316 315 317 319 321 321 315 323 323 310 313 317 316 314 313
308 307 307 309 310 312 312 314 314 312 314 318 319 320 319 319 319 317 317 317 318 320 320 316 322 319 320 323 320 317 318 312 318 322 313 318 318 319 317 318 313 311 314 314 313 313 313

GFSGBSN_850_thetae_033.txt.gz
Theta_e
321 320 322 324 323 322 317 312 309 307 306 306 307 308 309 311 312 312 311 311 312 312 311 310 308 308 308 320 318 318 317 314 311 315 317 316 315 316 318 318 319 320 321 320 326 324 323
321 318 321 323 322 322 321 314 310 308 306 306 307 308 310 311 313 312 311 311 312 311 310 309 308 308 310 319 317 319 316 315 315 317 316 316 316 317 318 319 320 320 320 322 323 324 323
302 320 319 321 320 322 322 317 312 309 306 306 307 308 310 312 313 312 311 311 311 310 309 308 308 309 315 318 318 321 318 318 316 317 317 318 318 318 320 322 320 319 320 321 321 322 325
299 306 319 318 321 321 322 321 314 310 307 306 307 308 311 312 313 312 311 311 310 309 309 308 309 311 318 317 318 318 321 319 319 318 317 319 318 318 320 320 319 319 319 320 320 320 324
298 299 308 316 318 320 320 322 317 312 309 306 306 309 311 313 313 311 311 310 309 309 309 310 312 317 321 317 317 318 319 319 319 319 318 318 319 320 319 321 320 319 320 319 319 319 322
298 299 302 312 317 319 319 322 320 314 310 307 307 310 312 313 313 311 311 310 309 309 310 312 316 321 320 319 319 317 318 318 320 319 320 319 320 322 321 321 320 320 320 319 319 320 322
297 300 303 308 314 317 319 321 321 315 311 307 307 311 312 313 312 311 310 309 316 320 314 319 319 319 319 319 318 318 317 318 320 320 323 321 321 321 320 320 321 320 319 319 320 321 320
298 299 303 306 308 316 317 319 321 317 312 307 307 311 312 313 312 310 310 316 321 323 324 316 317 317 318 318 318 317 317 319 320 321 320 321 321 321 320 320 319 319 319 321 320 320 321
301 299 301 301 305 313 316 319 322 318 314 308 307 312 313 313 311 310 310 316 323 322 326 320 318 318 318 317 318 318 318 319 321 321 320 322 322 321 320 319 319 319 320 321 320 320 321
304 304 304 303 304 308 315 318 320 319 314 309 308 312 313 313 311 313 313 314 317 319 327 320 318 318 317 318 319 318 318 319 320 321 320 322 321 320 320 320 320 321 322 321 322 322 322
303 303 304 302 303 303 313 317 318 320 315 310 308 312 313 312 320 316 322 319 322 325 324 319 319 319 319 318 318 318 319 318 320 320 321 322 321 320 321 322 322 323 322 322 322 322 323
302 302 302 302 301 303 309 315 318 320 315 311 308 312 313 312 311 319 321 326 326 329 324 319 319 318 319 318 317 319 318 318 320 320 320 321 321 323 323 322 322 322 322 323 323 322 324
302 302 302 303 301 303 307 312 316 319 315 311 309 312 313 312 315 319 320 325 326 325 319 319 319 319 319 319 318 318 319 319 319 319 319 321 322 322 322 323 323 322 323 325 324 324 324
301 302 302 302 301 302 305 308 313 319 316 312 309 312 313 313 317 320 324 326 326 320 320 319 319 319 319 319 318 319 319 318 319 320 320 322 323 322 322 323 323 323 322 324 322 321 321
299 301 301 301 300 302 303 305 311 318 316 312 310 312 313 312 313 322 325 327 323 320 320 318 319 319 319 319 319 319 319 318 319 320 321 322 322 321 321 322 321 322 322 323 324 326 323
296 298 301 301 300 301 303 304 307 317 316 312 311 313 314 315 312 321 326 323 322 320 320 319 318 319 320 320 319 319 320 321 321 322 323 322 322 321 321 321 322 322 322 322 322 323 321
296 297 300 301 300 300 301 303 306 315 316 310 314 316 315 316 313 322 326 323 322 320 320 320 319 319 320 320 319 320 321 322 322 322 322 322 321 323 321 321 322 323 322 321 322 323 322
296 297 299 300 300 301 301 303 305 313 315 310 316 319 321 316 318 322 324 322 320 320 322 320 320 320 320 320 320 320 321 321 321 322 322 322 322 323 323 322 321 322 322 322 322 320 321
296 298 300 300 300 301 302 304 305 310 314 311 317 320 323 320 324 327 322 320 320 321 322 321 320 320 320 321 321 319 319 321 320 323 322 323 321 323 323 322 321 320 320 321 320 320 320
298 297 299 299 299 301 303 304 305 309 313 313 318 323 322 322 320 323 323 321 321 320 322 321 319 322 322 321 322 322 322 321 319 321 316 318 321 322 324 322 322 322 320 320 320 321 319
297 300 299 299 300 300 301 304 307 309 311 314 318 321 320 324 325 324 322 320 320 322 322 322 323 323 323 323 324 324 324 321 320 318 318 322 322 321 321 321 320 320 320 320 320 319 320
299 299 299 299 300 300 301 304 307 310 310 314 318 319 319 321 321 322 319 320 320 322 323 323 322 321 322 323 324 323 324 323 322 321 322 321 322 322 322 321 320 320 320 319 319 318 318
297 298 299 300 300 300 301 302 308 311 310 314 319 318 320 322 325 322 323 320 320 323 323 322 322 323 323 324 324 323 322 322 322 324 324 323 322 321 319 317 318 321 320 319 319 318 319
296 297 297 299 300 301 302 303 308 311 310 316 319 319 321 325 325 320 320 320 321 323 323 322 323 324 323 320 320 320 320 319 319 320 321 322 322 321 320 316 323 316 316 316 317 318 317
294 295 297 299 299 301 302 301 307 311 311 316 320 319 319 326 321 319 319 319 319 322 323 323 321 322 320 321 323 322 322 322 319 317 317 318 319 320 325 317 316 315 314 314 315 315 316
296 297 298 299 300 301 301 303 305 309 312 315 322 322 319 325 321 317 318 318 323 325 324 319 319 319 319 324 325 324 323 321 322 321 315 315 317 319 318 325 325 318 315 314 315 316 314
298 299 299 300 301 303 304 305 309 310 312 315 324 318 318 317 316 316 318 319 319 322 324 320 319 318 318 326 328 328 325 320 321 322 319 321 321 324 320 324 320 316 314 314 317 318 315
299 300 301 302 303 304 307 309 310 312 313 314 324 318 320 321 320 320 318 318 321 321 326 321 321 321 321 325 330 326 328 321 321 319 320 321 324 322 323 323 323 314 315 317 318 314 314
300 302 302 303 306 310 309 308 311 312 313 316 323 320 321 322 322 322 320 320 321 322 322 320 322 322 322 324 327 327 323 319 324 322 317 321 321 322 320 320 316 314 314 314 314 314 314

GFSGBSN_850_thetae_036.txt.gz
Theta_e
308 318 321 320 321 324 323 322 319 313 310 307 306 306 307 308 309 311 312 311 311 312 311 310 309 308 308 320 318 321 317 317 311 312 317 318 318 316 317 318 319 319 320 321 325 326 326
299 301 317 321 319 320 322 322 321 315 312 309 306 306 307 308 310 312 312 311 311 311 310 309 308 308 310 318 318 320 318 316 314 314 318 317 316 317 318 319 318 320 321 325 325 322 324
299 299 300 316 320 318 321 319 322 320 313 311 307 306 307 308 310 312 312 311 311 310 309 309 308 308 315 315 319 322 320 317 316 317 317 318 317 318 319 321 320 321 320 323 322 323 325
299 299 299 299 318 319 318 320 320 322 316 312 309 306 307 309 311 313 312 311 310 309 309 308 309 311 318 319 318 319 320 321 320 318 318 319 319 319 320 321 320 320 321 321 321 322 324
300 299 299 299 300 318 317 319 318 322 319 313 310 307 307 310 312 313 311 311 310 309 309 309 314 320 322 319 318 318 319 320 320 320 319 319 319 320 320 322 320 320 319 319 321 320 322
299 299 299 299 299 301 316 314 319 319 321 315 311 308 307 310 312 313 311 310 309 309 310 311 314 319 318 320 318 319 319 319 320 320 320 319 320 322 322 321 322 319 320 321 319 319 320
299 299 299 299 298 299 303 316 317 317 322 317 312 308 307 311 313 313 311 309 319 321 317 318 321 319 320 319 319 318 318 319 321 321 322 321 322 322 321 322 321 321 321 320 320 320 320
298 299 298 299 298 298 299 311 317 318 320 319 314 309 307 311 313 313 311 318 322 324 325 323 315 319 319 319 319 318 318 319 321 322 322 324 321 322 321 321 321 321 320 321 320 319 319
301 299 299 299 299 299 298 306 314 318 319 321 314 310 307 312 313 312 311 312 321 320 324 322 319 317 319 319 318 318 318 319 321 321 321 323 322 322 321 320 321 320 320 321 321 320 319
300 303 302 300 299 299 298 300 313 314 319 321 315 311 308 312 312 313 315 311 318 319 325 323 320 318 319 318 319 318 318 318 321 321 322 322 321 321 320 320 320 320 322 322 322 321 320
299 303 304 304 303 302 301 298 310 312 318 320 315 311 308 312 320 318 323 319 325 327 330 322 320 318 318 319 319 318 318 319 320 320 321 324 322 323 319 321 322 322 322 323 321 321 324
301 300 302 303 304 305 304 300 303 315 317 320 315 312 309 312 313 318 323 326 325 329 326 320 319 320 319 319 318 319 318 319 320 320 320 321 321 321 322 322 322 323 322 322 323 323 326
301 299 300 301 303 304 304 301 301 314 317 319 315 312 309 312 316 314 320 328 327 324 320 320 320 320 319 319 319 319 320 318 319 321 320 319 321 323 321 323 322 321 322 326 328 330 328
298 300 299 301 302 303 303 302 301 311 315 319 315 313 309 312 320 322 325 327 326 320 322 319 319 319 319 319 319 318 318 318 318 319 320 319 325 322 322 322 324 323 320 327 329 328 328
296 298 299 300 303 303 303 303 303 308 313 318 316 313 309 312 315 321 324 329 324 322 320 320 319 319 319 319 319 319 318 319 319 318 320 325 324 322 322 321 321 321 321 322 325 328 332
296 297 300 300 302 302 303 303 302 306 312 317 316 312 310 312 314 321 325 326 323 321 321 320 319 319 319 319 319 319 319 319 318 319 323 324 325 323 322 321 321 321 321 324 322 324 324
296 299 299 299 300 302 302 301 301 305 309 315 314 313 313 313 315 320 326 325 324 321 320 321 319 319 320 320 320 319 319 320 321 321 321 323 324 323 321 321 319 323 321 321 320 325 328
297 297 297 297 298 301 302 301 302 303 306 312 313 314 315 314 319 317 324 322 321 322 320 321 321 320 319 321 320 319 320 322 321 321 321 321 322 325 322 322 322 321 323 322 331 322 324
296 296 296 296 297 298 301 301 302 303 306 311 312 315 319 316 319 321 322 322 321 321 322 321 321 321 320 320 321 320 320 323 323 322 322 324 323 324 321 323 322 321 320 320 322 324 324
296 295 294 294 296 298 301 301 302 302 305 312 313 319 321 320 315 320 324 322 322 321 320 321 321 320 321 320 321 321 321 322 321 322 318 322 322 320 324 322 322 324 321 319 321 328 323
295 294 295 296 296 298 301 301 302 302 304 312 315 318 320 321 323 322 324 322 321 321 320 321 321 320 322 322 321 322 321 323 321 319 319 322 320 320 320 321 321 322 321 320 319 321 322
294 295 296 297 298 298 301 301 303 303 305 308 315 319 320 320 319 322 323 324 321 321 321 323 322 321 323 323 323 323 323 324 322 322 322 322 324 322 323 322 322 321 320 320 320 319 319
296 297 298 298 299 300 301 301 303 304 305 308 313 318 320 321 322 323 325 325 323 322 322 322 322 323 323 324 324 324 324 324 323 324 324 325 326 326 325 319 318 319 320 320 320 319 319
298 297 298 299 300 300 300 301 302 304 305 309 311 319 320 323 322 323 324 323 322 322 325 322 322 324 324 322 322 322 322 322 323 324 324 325 326 327 327 317 322 317 317 316 317 317 317
298 299 300 300 300 299 300 300 300 301 305 310 313 319 320 321 322 322 324 324 321 320 324 324 324 325 323 323 325 324 324 320 320 320 320 322 324 325 326 322 318 317 315 315 315 316 316
297 298 299 299 299 300 300 300 301 301 304 309 313 317 321 323 324 320 321 322 323 326 325 322 322 322 323 327 331 327 328 322 322 320 316 317 321 326 322 327 324 320 315 315 315 319 316
295 296 296 297 298 300 300 301 301 302 305 309 311 316 322 321 321 321 321 322 323 324 325 323 321 321 322 332 325 333 328 321 325 325 320 322 324 323 322 325 323 317 315 315 319 322 316
295 295 296 297 298 300 300 301 303 304 307 309 313 318 319 321 320 321 319 319 321 324 327 323 324 323 328 328 332 331 328 327 324 320 322 322 326 322 326 321 322 315 315 317 319 315 315
295 296 298 298 299 300 301 301 304 307 309 310 312 320 320 323 324 322 320 320 321 322 325 322 324 323 324 328 329 332 322 320 326 326 320 324 323 327 323 324 318 315 314 314 314 314 314

GFSGBSN_850_thetae_039.txt.gz
Theta_e
300 300 308 318 319 319 319 320 323 322 321 313 310 307 306 306 307 309 310 312 311 311 311 310 309 308 308 315 313 320 318 317 313 311 313 317 318 318 315 314 315 315 316 324 328 327 326
299 299 300 301 307 318 319 318 320 322 322 318 311 308 306 306 307 309 311 312 311 311 310 309 309 308 308 318 319 320 318 316 313 311 315 318 318 317 316 316 317 318 318 324 325 326 326
300 299 299 299 300 307 320 319 317 319 322 321 315 310 307 306 307 309 311 312 311 310 309 309 308 308 308 309 319 320 320 319 315 316 318 318 317 318 319 318 320 321 319 322 322 324 323
300 300 300 299 299 299 308 319 318 318 319 321 319 311 308 306 307 310 312 312 311 310 309 308 308 310 310 316 318 319 320 320 319 317 317 317 319 319 319 319 320 319 317 319 320 324 324
300 300 300 300 299 299 299 311 318 316 318 320 321 314 309 307 307 310 312 311 310 309 309 309 310 323 319 321 318 317 319 320 321 320 319 318 319 319 319 318 317 317 317 318 320 323 323
299 300 300 300 300 299 299 299 313 316 315 318 321 316 310 307 307 311 312 311 309 310 309 310 310 316 315 319 317 318 318 319 320 320 320 319 319 318 317 317 318 318 318 316 319 321 322
299 299 299 300 300 299 299 299 300 314 311 317 322 318 312 307 307 311 312 311 322 323 316 312 317 314 317 320 319 318 318 318 320 320 320 321 318 320 320 319 320 321 320 318 318 317 321
299 298 299 299 299 299 299 299 299 303 311 318 318 320 313 307 308 312 313 311 320 318 322 322 324 320 317 319 319 319 318 318 319 322 322 321 321 321 321 320 321 321 321 319 319 318 319
304 300 300 299 299 299 299 298 299 301 308 317 317 321 314 307 309 312 312 311 315 319 322 322 321 322 315 318 319 319 318 318 320 321 321 321 322 321 321 321 321 320 320 320 320 318 317
303 303 300 302 302 301 299 299 299 299 309 314 317 321 315 307 310 319 316 313 311 318 323 323 323 319 317 318 319 318 318 317 320 321 321 322 322 323 322 321 319 319 321 321 322 320 317
301 302 302 301 301 306 304 302 299 298 307 313 318 320 315 307 314 319 322 320 322 322 326 322 320 318 318 319 319 318 318 318 320 321 321 322 322 322 321 322 321 321 320 321 322 320 320
299 301 302 302 299 304 305 305 303 298 305 311 318 319 315 308 310 318 324 326 324 328 328 322 320 318 318 319 318 318 318 318 319 319 320 321 321 321 321 321 320 320 322 321 322 321 322
298 299 299 303 302 299 303 304 304 300 302 312 314 319 316 309 309 317 316 324 326 327 320 320 319 319 318 319 318 318 317 317 316 319 320 320 320 320 321 320 320 321 319 323 323 324 325
298 297 299 300 302 301 302 303 304 303 301 312 316 318 317 310 311 322 318 324 327 320 321 320 319 319 319 318 318 318 318 316 316 316 318 319 323 322 322 321 322 321 321 323 326 326 324
299 298 296 297 300 301 300 302 303 304 301 310 316 317 316 312 313 318 321 326 321 323 318 320 318 319 318 318 318 317 316 315 315 315 316 323 324 322 322 321 320 321 321 321 324 322 321
299 297 297 297 298 301 301 300 302 303 302 308 313 314 315 314 310 316 321 322 323 321 321 321 320 318 318 317 318 317 317 317 318 316 319 323 322 321 322 322 320 320 319 321 320 321 322
298 296 295 296 296 299 300 302 302 303 302 308 312 314 314 315 311 316 320 321 322 321 321 321 319 319 319 318 317 317 318 318 317 321 321 321 322 324 322 322 319 320 319 319 319 321 321
297 296 295 294 296 298 301 300 303 303 302 307 312 314 314 311 315 315 318 319 321 321 321 322 320 321 319 319 320 317 318 323 319 320 320 321 321 323 322 321 319 320 322 322 317 319 318
297 295 294 294 296 298 300 301 304 303 302 307 312 314 314 311 313 315 315 318 320 322 321 322 321 321 320 318 322 319 323 322 322 321 321 322 320 318 318 321 321 320 320 319 321 318 320
296 295 293 294 296 299 299 301 303 302 302 308 313 315 317 316 311 314 314 317 320 321 322 321 321 321 320 320 320 320 322 322 321 319 319 322 321 319 317 318 321 321 321 319 318 315 317
295 294 293 294 297 298 299 299 302 302 303 308 313 314 317 319 316 314 315 316 321 322 322 321 321 320 320 320 320 321 322 321 322 319 320 319 318 318 317 319 321 321 320 319 318 318 316
294 292 292 293 297 297 297 299 301 301 302 305 312 314 318 320 318 317 316 318 320 321 322 321 321 320 319 321 321 320 322 322 321 320 319 319 320 320 321 321 319 318 319 318 317 319 318
293 293 292 294 296 295 295 296 300 301 302 306 307 314 317 318 318 318 316 319 321 321 321 320 320 320 321 322 324 322 323 322 321 320 319 320 320 316 320 314 314 312 315 316 318 318 317
293 293 294 295 295 295 295 297 299 301 302 306 307 312 317 317 319 318 317 317 322 320 322 321 320 320 323 323 322 322 321 321 323 322 321 321 320 313 313 311 309 314 314 314 314 313 312
295 295 294 294 295 295 296 298 300 301 302 304 307 309 317 310 318 317 316 319 321 322 321 323 323 323 322 322 320 319 315 313 318 319 318 321 315 315 312 313 315 315 314 315 314 314 313
295 295 296 297 298 298 298 298 300 301 302 305 305 311 313 318 318 318 315 319 321 321 322 323 323 322 322 322 314 319 318 319 320 317 317 317 316 309 313 314 310 314 314 315 314 314 314
295 299 298 299 299 300 299 300 301 302 303 304 305 308 311 319 319 319 316 319 321 322 320 322 321 322 324 309 316 313 315 320 319 317 314 311 311 310 307 308 312 316 314 314 311 313 315
298 299 299 300 300 300 300 301 301 301 302 304 305 308 311 316 320 319 319 320 323 322 319 322 322 319 318 316 315 313 312 314 317 321 316 314 314 309 313 313 315 314 314 313 315 314 314
296 298 299 298 299 300 300 300 300 300 301 304 304 308 310 312 317 323 321 321 321 322 321 321 322 321 323 319 316 312 318 310 315 314 318 317 317 315 315 314 315 314 314 315 315 315 316

GFSGBSN_850_thetae_042.txt.gz
Theta_e
300 300 300 301 309 316 318 316 319 318 322 322 321 313 309 307 306 307 308 309 311 311 310 309 309 309 308 308 310 317 319 316 315 311 311 312 316 317 316 315 314 313 314 321 326 326 325
300 300 300 300 300 302 309 313 317 318 318 322 322 319 310 308 306 307 308 310 312 310 310 309 309 308 308 312 319 319 319 316 315 312 316 316 317 317 316 316 316 318 319 324 326 325 325
300 300 300 300 300 300 300 301 313 319 318 319 321 321 314 309 307 307 308 310 312 310 309 309 308 308 308 309 317 316 320 318 316 315 315 317 318 317 318 317 319 319 322 323 324 324 321
299 300 300 300 300 300 300 300 303 317 317 315 318 321 318 310 307 307 308 311 312 310 309 309 308 309 309 312 315 318 319 319 319 319 317 318 317 319 318 318 318 317 319 321 321 322 322
299 300 300 300 300 300 300 299 299 309 316 316 317 319 320 312 308 307 308 311 311 310 309 308 308 316 312 316 317 319 318 319 319 320 319 318 319 319 318 317 316 315 316 318 322 322 321
299 299 299 300 300 300 300 299 299 301 314 316 310 317 321 315 309 307 308 312 311 312 312 309 310 312 313 318 318 317 318 318 319 320 319 319 319 316 315 315 319 317 318 317 317 321 321
306 302 299 299 300 300 300 299 299 299 303 313 313 317 321 318 310 307 309 312 317 323 319 316 312 310 315 318 319 318 318 318 318 320 318 321 318 318 319 317 317 320 320 320 317 318 321
304 305 304 300 299 300 300 299 299 299 299 305 311 316 317 320 312 307 310 312 318 315 317 318 319 322 317 319 317 319 318 317 319 319 320 320 320 319 320 320 319 320 321 319 316 317 321
303 304 305 304 301 303 300 299 299 299 299 301 310 316 317 320 312 307 312 314 313 313 318 319 318 318 316 317 317 319 318 317 319 320 320 319 320 321 321 320 320 320 320 319 318 317 315
302 302 303 304 304 306 306 302 300 299 298 299 307 316 317 319 311 308 321 322 311 314 320 322 321 319 317 315 317 318 318 319 319 319 319 319 320 321 321 321 320 318 318 319 320 319 317
303 301 302 302 303 305 306 305 305 300 298 299 307 317 316 319 309 316 321 322 317 322 318 319 322 319 315 317 318 318 317 317 318 319 319 319 320 320 321 320 320 319 320 319 320 320 318
303 303 301 301 302 303 304 305 306 304 299 299 307 314 317 317 314 313 322 323 320 325 322 323 320 317 317 317 318 318 318 318 318 319 319 319 320 320 320 320 320 319 320 319 320 319 320
300 303 302 300 300 302 302 303 305 305 301 300 308 314 318 317 316 307 316 322 322 324 320 321 319 317 316 317 317 317 316 316 315 318 320 319 320 320 321 320 319 319 318 319 319 321 320
297 300 303 301 299 300 302 302 302 304 305 300 306 313 317 315 315 316 317 323 324 320 321 320 318 317 317 317 317 317 315 315 314 316 317 319 321 320 320 320 322 320 318 319 321 322 322
295 298 300 301 300 299 300 302 301 303 304 302 305 311 316 317 316 311 320 323 318 321 317 318 317 318 317 317 317 316 315 314 314 313 315 320 322 320 321 321 320 320 320 319 321 319 318
296 298 302 302 301 298 299 302 301 302 303 303 305 310 312 316 316 310 319 319 320 320 320 320 319 317 317 317 316 315 315 315 315 314 315 319 322 319 321 320 319 319 317 320 318 321 324
296 298 300 300 300 298 296 299 302 300 303 303 306 310 312 315 315 311 317 317 319 318 320 321 321 318 317 316 315 315 316 316 315 317 317 319 317 318 321 320 319 318 318 318 317 317 319
297 297 299 300 300 299 297 296 301 300 302 302 307 312 312 314 313 312 316 316 317 318 319 321 321 320 317 317 316 315 316 316 319 319 319 319 319 319 321 319 319 318 319 318 314 317 316
299 297 298 299 299 299 296 297 301 301 301 303 308 310 313 314 314 310 313 317 316 318 320 321 321 320 319 317 319 318 320 321 320 318 318 318 319 319 318 318 320 319 317 319 319 314 317
299 296 297 298 299 298 295 296 300 301 302 303 308 312 313 314 314 310 312 315 317 315 317 319 321 321 319 319 318 319 322 321 320 319 320 319 317 317 317 316 317 320 321 319 316 314 315
298 296 298 298 298 296 294 295 298 301 303 303 308 311 312 314 314 311 311 314 316 316 318 320 320 320 321 319 318 321 321 320 320 317 319 316 318 316 316 317 319 319 319 319 317 316 315
297 298 298 298 297 295 294 294 297 301 303 303 308 312 313 314 313 312 312 313 313 314 316 317 321 321 318 318 317 319 320 319 318 319 318 317 316 318 318 317 316 318 317 316 317 317 316
297 297 297 297 296 294 295 297 297 300 304 303 305 310 313 313 314 313 314 313 313 313 316 316 319 319 319 318 319 319 320 320 319 317 317 317 317 313 317 312 313 313 314 315 316 316 316
297 297 297 296 294 293 295 298 299 300 302 304 305 308 313 314 316 315 314 313 313 314 314 319 318 319 319 321 321 321 320 321 320 319 319 316 316 309 311 309 312 315 313 314 312 311 310
297 296 296 295 294 293 297 299 299 300 301 303 305 307 312 310 315 317 316 314 313 314 318 316 320 320 321 320 317 317 314 315 318 316 318 318 312 313 310 311 313 314 312 311 312 314 312
296 295 295 294 292 294 297 296 298 300 301 302 305 307 309 314 314 316 317 315 314 316 317 320 321 322 321 317 312 316 317 317 318 316 314 313 312 312 310 310 310 312 312 313 312 313 313
294 294 294 293 293 295 296 295 296 298 301 301 303 305 307 312 315 317 316 315 315 316 318 321 322 322 322 308 313 312 315 316 316 315 311 309 309 309 304 307 308 311 312 314 310 310 313
294 295 295 295 295 295 295 295 296 297 300 301 302 304 304 307 311 316 316 315 315 317 318 320 320 318 315 314 314 311 308 313 314 315 313 313 311 307 309 307 312 314 313 313 311 313 314
296 295 295 296 295 296 295 295 296 297 298 301 303 304 304 306 310 312 317 319 316 317 320 320 320 319 320 318 312 310 311 305 311 315 316 314 311 311 312 312 312 313 314 314 314 315 315

GFSGBSN_850_thetae_045.txt.gz
Theta_e
299 299 299 299 300 310 316 318 317 315 318 318 322 322 321 312 308 306 306 307 309 311 311 310 309 309 308 308 309 315 319 316 315 311 311 312 315 316 315 314 313 311 312 321 318 324 324
299 299 299 299 299 299 300 307 315 313 313 317 314 322 322 319 310 307 306 307 309 311 310 310 309 308 308 310 318 319 319 315 313 311 311 314 317 317 316 315 315 317 321 324 324 324 324
299 299 299 299 299 299 299 299 301 304 307 316 317 316 321 321 314 308 307 307 309 311 310 309 309 308 308 309 319 319 320 319 314 314 314 317 317 317 317 316 318 318 323 322 323 322 320
299 299 299 299 299 299 299 299 299 299 303 316 317 315 316 321 319 310 307 307 309 311 310 309 308 308 308 308 313 318 319 319 319 317 316 316 317 317 317 317 317 316 320 325 323 322 322
303 299 300 299 299 299 299 299 299 299 300 308 316 314 316 318 320 313 308 307 309 311 310 309 308 309 310 314 313 318 319 319 318 319 319 318 318 318 318 316 315 313 319 318 324 321 320
305 304 300 299 299 299 299 299 299 299 299 304 315 315 312 315 320 316 308 307 310 311 316 315 310 309 309 317 318 317 318 318 318 319 319 319 318 315 313 314 318 318 317 316 322 320 321
305 306 306 304 299 299 299 299 299 299 299 300 311 315 312 314 320 318 308 309 312 320 319 317 311 308 310 316 317 317 317 317 317 319 317 320 317 318 317 317 316 317 318 318 317 317 321
304 304 304 306 305 301 301 300 299 299 299 299 305 313 313 317 318 319 308 309 313 313 313 316 317 318 320 320 320 318 318 317 319 318 320 318 319 318 318 319 319 319 319 319 318 316 320
305 304 303 304 305 306 304 304 302 300 298 299 299 308 312 316 318 319 307 317 319 314 312 315 316 316 315 317 319 318 318 317 318 319 319 318 318 319 320 320 319 319 319 319 319 316 317
301 305 305 302 303 305 305 306 307 305 301 298 299 305 312 317 317 318 312 319 312 312 316 318 321 318 317 317 316 318 318 318 318 318 318 318 318 321 320 320 319 319 318 318 318 318 318
297 301 305 304 302 303 303 305 306 306 305 300 299 304 311 317 314 310 319 318 314 320 309 313 321 318 315 316 317 317 318 318 317 318 318 317 319 320 320 319 319 319 318 318 319 318 317
298 298 301 305 303 302 302 303 304 305 306 303 300 307 311 317 317 313 319 318 319 317 314 319 321 319 315 316 317 316 318 317 317 319 318 316 319 318 317 319 318 319 319 317 317 317 318
299 298 298 302 304 303 301 302 303 304 304 305 301 307 313 316 315 317 310 319 322 319 315 320 319 315 314 315 316 316 315 314 316 318 318 318 319 319 320 319 319 318 317 319 318 318 319
300 299 298 298 301 304 303 301 302 302 304 304 303 305 312 315 316 316 315 322 321 318 318 320 317 315 315 315 316 315 314 314 313 315 316 318 318 319 319 320 320 320 317 318 320 319 317
302 300 299 297 299 303 303 301 302 302 303 304 303 304 309 314 316 313 317 322 317 318 319 315 316 316 315 316 315 315 313 313 312 313 315 317 318 319 320 319 319 319 319 316 319 317 317
303 301 300 298 298 300 303 302 300 302 301 303 303 304 308 311 316 316 315 319 319 318 320 320 317 316 316 315 315 315 314 314 314 313 313 316 319 319 319 319 319 318 316 318 316 319 321
303 303 301 300 297 298 301 302 300 302 301 303 303 305 307 310 315 312 313 316 317 317 318 321 321 320 317 316 315 314 315 315 313 314 314 317 316 317 319 319 318 318 317 316 316 315 317
304 303 302 301 298 296 299 301 299 300 301 303 303 306 308 308 313 312 310 314 315 316 317 319 320 321 320 315 315 314 315 315 315 316 316 316 315 316 318 318 318 317 317 315 315 316 314
303 304 303 301 299 298 298 301 299 300 301 304 303 307 309 308 314 313 312 312 315 316 316 318 320 320 318 316 316 315 314 317 320 315 317 317 316 316 317 316 317 319 317 318 315 312 316
303 303 302 301 299 298 300 301 297 298 301 303 304 307 310 311 311 311 312 313 315 315 315 316 318 320 319 318 316 316 318 319 319 318 317 316 316 316 317 316 317 320 319 317 316 313 315
303 303 302 301 298 299 300 300 298 298 300 303 304 307 310 313 312 312 311 312 314 316 315 315 315 318 320 320 317 319 320 320 318 316 317 316 317 315 315 315 317 318 319 317 316 315 315
303 303 302 301 298 300 300 299 297 297 298 302 303 309 310 311 311 312 312 311 313 315 316 315 316 319 316 319 318 318 318 318 318 317 317 315 315 315 317 315 315 318 316 315 315 315 314
303 302 302 301 298 298 299 299 297 296 298 302 302 306 310 311 310 311 311 311 311 313 313 314 316 318 318 318 318 318 318 318 316 316 315 315 314 312 315 312 313 312 313 314 314 314 315
303 301 301 300 297 298 299 298 296 295 297 301 302 306 310 309 312 311 311 311 311 312 312 313 313 313 317 319 319 319 319 318 317 316 315 314 312 308 310 309 312 314 312 312 312 311 309
302 301 300 297 297 299 298 298 295 295 296 300 303 306 309 307 311 313 311 311 311 311 312 312 314 312 313 317 316 317 312 316 315 314 317 315 310 310 312 312 312 314 311 311 311 312 311
300 300 298 298 298 298 297 295 294 294 296 297 302 304 307 310 312 313 312 312 312 311 311 312 314 313 317 315 311 317 319 318 317 315 312 310 309 312 307 311 312 313 311 311 310 311 311
299 298 299 298 297 296 296 295 295 296 297 299 301 304 306 307 311 313 314 313 312 311 312 313 316 320 320 310 311 313 314 316 316 315 311 309 308 312 304 307 310 309 311 312 311 309 312
298 297 297 297 297 294 293 296 297 297 298 299 300 305 305 306 308 312 314 315 314 313 313 316 319 318 310 314 314 312 309 313 312 313 312 314 312 306 305 304 313 310 311 310 309 311 313
297 297 297 296 295 294 294 296 299 299 299 299 300 302 303 305 307 308 312 315 314 314 313 318 318 318 318 315 311 310 310 304 311 314 313 314 312 313 312 311 310 312 312 313 314 313 313

GFSGBSN_850_thetae_048.txt.gz
Theta_e
300 300 299 299 299 299 302 314 318 319 318 316 316 319 321 322 321 313 308 307 307 308 309 311 310 309 309 309 309 315 318 315 315 312 310 311 315 316 315 314 313 311 311 318 319 323 324
300 300 300 300 299 299 299 299 305 314 318 318 316 315 315 321 321 319 310 307 306 308 309 311 310 309 308 308 313 317 318 315 313 311 311 314 316 316 316 315 314 319 322 323 324 324 324
301 300 300 300 300 299 299 299 299 299 305 315 314 313 317 315 319 321 316 309 307 307 309 311 310 309 308 309 315 319 319 318 314 312 313 314 316 316 316 315 316 317 324 323 323 322 321
306 305 302 299 299 300 299 299 299 299 299 301 305 310 317 315 316 319 320 311 307 307 309 311 310 308 308 309 315 318 318 319 319 316 315 315 316 316 316 317 316 317 319 324 323 321 319
306 306 306 304 302 300 299 299 299 299 298 299 299 313 318 315 315 317 319 314 308 307 309 311 310 309 309 310 309 315 317 318 318 318 318 317 317 317 316 315 314 312 316 320 323 321 320
306 305 305 306 306 305 302 299 299 299 299 298 299 306 315 316 314 315 319 316 307 308 311 315 314 312 310 314 317 316 317 318 318 318 317 318 317 313 313 313 317 318 317 315 322 321 321
305 307 305 304 305 306 306 306 301 299 299 299 298 303 313 316 314 315 320 310 309 315 318 318 312 310 310 313 317 315 316 317 317 318 316 318 316 316 316 316 316 316 317 317 316 316 320
300 303 305 306 304 305 306 306 306 306 300 299 298 299 308 314 313 318 319 309 311 313 315 316 315 316 319 319 318 318 318 317 317 316 319 317 318 316 316 318 318 318 318 317 317 316 318
298 299 302 305 305 304 304 305 306 306 306 299 298 298 304 313 315 317 318 309 314 318 313 313 314 315 315 316 317 317 317 317 317 317 318 317 317 317 319 319 319 318 318 318 318 316 317
301 299 298 302 304 306 304 304 305 306 306 304 299 299 303 314 314 315 317 315 316 316 313 315 318 317 316 317 317 317 317 317 317 316 316 317 316 319 319 319 317 319 317 318 317 317 317
301 301 299 298 300 303 305 303 304 305 306 306 303 301 305 312 314 312 315 316 313 316 309 312 320 318 316 317 316 317 317 318 316 317 316 317 318 319 319 318 317 318 317 318 318 316 316
300 301 301 300 298 301 304 304 303 304 304 306 305 301 307 311 314 314 317 313 316 317 312 313 319 317 315 314 316 315 317 317 317 318 317 315 318 317 316 318 317 318 318 315 315 315 318
300 300 302 301 299 298 301 305 303 303 303 304 305 303 304 310 312 313 316 315 322 317 312 317 320 315 313 313 315 314 313 315 315 316 317 317 317 318 319 319 317 316 316 317 316 318 319
302 301 301 302 300 298 299 303 303 302 302 303 304 305 302 309 313 315 315 319 321 317 315 317 316 314 313 313 314 314 313 313 312 314 314 317 316 317 318 318 317 318 316 317 319 318 317
301 302 302 302 302 299 298 300 304 302 302 302 303 305 302 308 313 314 314 320 319 316 317 315 315 315 314 314 314 314 312 312 311 313 315 316 317 318 319 319 317 318 318 315 317 315 316
301 301 302 302 303 300 299 298 302 303 301 301 303 303 302 305 312 314 313 317 317 315 319 320 315 315 315 314 315 313 313 312 313 311 313 314 317 318 318 319 318 317 315 317 314 320 320
302 301 301 302 303 301 300 298 299 303 301 301 304 303 302 304 310 313 315 314 315 317 317 318 321 321 315 314 313 313 314 314 312 311 312 314 314 314 318 318 318 317 316 314 314 313 317
302 302 302 302 303 302 300 299 298 301 301 301 303 302 303 304 311 312 313 311 313 317 316 316 319 320 321 315 314 314 315 314 314 313 314 315 313 313 316 316 316 315 316 314 315 316 314
303 302 302 302 303 303 300 299 300 303 301 301 303 304 307 305 309 310 312 312 312 315 315 317 318 318 319 316 315 314 313 314 314 313 314 315 313 313 314 314 316 318 317 315 313 311 315
300 303 302 302 304 303 301 299 299 301 300 301 302 303 308 308 307 309 311 313 311 313 314 315 316 318 319 318 315 315 314 316 318 314 315 315 314 313 315 314 314 318 316 316 315 313 314
299 302 301 302 304 304 301 300 299 300 301 301 302 303 308 308 307 308 309 311 312 312 314 314 315 317 318 318 317 316 318 319 317 316 315 314 315 314 314 314 315 316 317 314 315 314 316
300 300 302 302 303 303 302 300 298 299 300 301 302 305 308 309 306 307 310 311 311 311 314 314 315 314 316 318 318 317 319 317 317 314 315 312 315 313 316 314 315 317 316 315 315 314 313
300 301 302 302 303 303 302 299 298 300 300 301 301 304 308 308 308 307 308 310 310 311 312 314 313 314 315 315 316 316 317 317 315 315 314 313 313 311 315 311 313 312 313 314 313 313 313
301 301 301 303 302 301 301 299 299 300 299 301 301 303 307 307 309 308 307 309 309 311 311 312 314 313 314 314 317 317 316 315 315 316 313 312 311 308 309 309 312 314 312 312 312 311 310
300 301 301 303 302 301 300 299 300 300 299 300 302 302 306 305 308 310 309 308 310 310 311 311 312 313 313 312 316 318 313 316 315 313 314 311 309 310 312 312 312 314 310 311 311 310 309
301 301 303 303 301 301 301 301 300 298 297 298 301 302 304 308 308 310 309 309 309 309 309 311 311 312 311 313 313 318 318 318 317 315 311 310 308 311 306 311 312 312 311 310 309 310 308
301 302 302 302 301 300 300 300 300 298 298 298 299 302 303 306 309 310 310 310 309 309 308 309 311 313 313 304 309 315 317 315 315 316 313 310 308 309 302 307 310 310 310 311 311 311 310
302 302 301 300 300 299 299 300 298 297 297 297 298 300 302 304 307 310 311 311 310 310 308 309 310 312 310 312 313 313 307 312 313 313 314 316 312 307 305 306 316 309 310 310 309 310 312
301 300 300 299 299 298 299 298 298 298 296 296 297 298 302 304 306 309 311 312 310 311 310 313 312 313 313 314 309 306 308 302 311 315 311 316 314 313 313 313 311 310 310 311 312 311 312

GFSGBSN_850_thetae_051.txt.gz
Theta_e
301 301 299 300 300 299 299 299 299 305 313 318 317 317 316 316 317 321 321 317 309 307 307 308 310 310 309 309 309 311 318 315 314 312 310 310 312 315 316 315 313 312 312 315 317 320 323
305 301 302 300 300 300 300 299 298 299 302 310 315 316 314 314 316 316 321 320 313 308 307 308 310 310 309 308 309 314 317 314 313 311 310 313 316 316 316 316 315 315 322 323 322 323 323
306 306 304 306 302 300 300 300 299 299 298 299 300 310 313 309 312 316 316 320 318 310 307 307 309 311 309 309 309 317 317 317 315 312 311 314 315 316 316 316 316 316 324 324 324 322 322
307 307 306 306 307 305 302 301 301 299 299 298 298 300 303 305 313 315 314 316 319 314 308 307 309 311 309 309 309 318 318 317 318 314 313 314 315 315 315 316 316 319 320 325 324 322 320
304 306 307 306 306 306 305 303 302 301 299 299 298 298 299 306 315 315 313 315 318 316 308 308 310 310 310 309 309 316 318 316 318 318 317 315 316 316 316 317 318 316 320 321 324 322 320
302 302 305 306 306 305 305 306 303 303 301 299 299 298 298 306 314 315 312 312 317 312 309 312 313 312 312 311 314 311 315 316 318 317 316 317 316 317 316 318 320 320 319 318 321 322 321
301 301 301 304 306 307 305 306 305 304 302 300 299 298 298 302 314 316 313 318 310 311 315 314 314 314 309 312 316 315 316 318 317 317 318 318 320 320 319 317 316 317 318 318 317 319 320
302 302 301 300 303 305 306 305 306 306 304 302 300 299 298 301 310 314 316 317 311 313 314 312 314 316 316 317 318 317 316 317 317 317 318 319 321 318 316 317 318 318 319 319 317 317 318
301 301 301 301 299 301 303 306 304 305 306 305 303 300 298 302 310 313 312 315 315 314 315 315 312 313 314 315 316 317 317 317 316 317 319 320 318 317 319 319 319 319 319 319 319 318 317
300 301 301 302 301 299 300 303 305 304 305 306 305 303 300 303 307 309 311 314 313 315 314 314 314 315 314 315 317 316 317 317 317 318 318 319 317 318 320 320 318 320 317 318 318 319 320
301 297 300 302 302 301 299 301 304 304 304 304 306 306 303 303 312 313 314 313 315 315 315 313 319 317 316 316 315 317 316 317 318 317 318 319 318 319 320 320 318 320 317 318 318 319 319
301 301 299 299 301 301 300 298 301 305 303 304 304 306 305 306 310 312 314 315 315 319 317 311 318 318 318 316 314 314 316 316 316 318 317 316 317 317 319 317 318 317 318 317 317 319 322
301 301 301 301 299 301 301 300 298 301 304 303 304 305 304 305 308 308 314 315 320 320 314 314 320 316 316 314 314 314 315 317 319 319 320 317 318 318 318 320 318 317 319 322 322 323 323
302 302 301 301 302 302 301 301 299 299 302 303 303 304 305 304 309 309 314 316 320 316 315 315 316 315 315 313 314 314 314 316 313 314 315 318 318 318 318 319 320 319 319 323 321 322 320
302 303 302 301 302 302 302 302 300 298 300 303 302 303 304 303 308 312 313 317 316 316 316 316 314 315 314 313 315 315 314 316 315 315 318 318 318 316 317 318 319 319 321 317 319 317 323
302 302 303 302 301 302 302 302 301 299 300 303 302 302 303 303 307 311 313 315 317 315 318 319 317 316 316 314 315 315 314 313 314 314 315 318 318 318 318 319 317 318 317 321 319 322 322
298 299 301 303 303 301 302 303 302 300 298 302 301 303 303 303 306 310 312 312 314 315 317 318 320 321 316 315 315 315 315 313 313 312 313 315 317 316 318 320 321 319 319 316 317 318 321
298 298 298 299 302 303 301 302 303 300 298 302 302 302 302 303 307 309 310 312 312 314 315 317 318 320 321 315 314 315 316 316 313 313 315 317 318 318 319 316 316 317 320 319 323 320 317
299 298 298 299 300 302 302 302 302 300 299 301 301 302 302 302 307 308 309 310 312 314 315 317 318 318 319 318 315 315 314 313 312 314 317 316 315 317 317 316 317 319 317 316 315 315 318
299 299 299 298 299 303 302 302 302 301 299 301 302 303 305 304 306 307 309 310 312 311 313 315 317 317 318 318 316 315 315 314 313 313 314 315 315 318 318 317 317 319 318 317 319 320 321
299 300 300 299 298 302 302 302 302 300 299 300 302 303 305 306 305 305 308 309 311 312 311 313 315 316 318 317 317 315 317 318 316 315 315 317 318 315 314 313 316 318 318 317 318 319 322
299 301 300 299 299 303 302 302 302 300 300 300 301 303 304 307 305 305 307 309 310 311 311 313 315 315 316 318 318 318 318 318 318 315 316 314 318 315 316 314 315 317 316 317 317 316 316
300 300 301 300 299 300 302 302 301 300 300 301 301 302 303 307 306 305 307 308 310 311 310 311 313 315 316 316 315 316 315 315 317 317 316 315 316 316 318 313 314 317 316 317 316 316 318
300 300 301 300 299 301 303 302 301 300 301 301 302 302 304 306 306 305 305 307 309 311 310 311 312 312 313 313 314 315 315 314 315 315 315 315 315 313 316 312 320 317 312 314 316 315 313
301 300 300 300 301 301 303 301 300 300 299 301 302 303 304 304 307 307 306 306 308 310 310 310 312 313 313 312 315 316 316 316 315 314 314 313 312 314 319 318 316 314 313 314 315 317 313
300 300 301 301 301 304 302 301 301 300 299 301 301 302 304 305 306 307 308 306 308 310 309 310 311 312 312 312 312 315 320 319 319 316 311 309 310 319 311 318 321 318 313 310 311 316 312
301 301 301 300 301 303 302 301 301 299 299 300 301 301 303 305 306 307 309 308 307 308 309 309 310 311 311 308 312 314 317 318 321 318 317 314 312 316 312 319 317 312 310 310 318 319 310
301 301 300 301 303 302 301 301 301 299 299 299 301 301 302 303 304 306 308 309 308 308 309 308 311 311 310 311 312 314 314 316 317 315 316 318 317 316 312 317 320 310 309 315 317 311 311
301 302 301 303 302 301 301 300 299 299 300 299 299 300 301 302 304 305 305 308 308 308 308 309 309 310 311 314 311 311 313 310 316 320 312 318 317 319 318 320 315 310 314 312 312 312 311

GFSGBSN_850_thetae_054.txt.gz
Theta_e
306 306 304 303 301 300 300 300 299 299 299 301 308 314 316 316 315 313 314 313 320 320 313 308 307 308 310 312 311 313 316 316 315 312 312 312 314 317 319 318 318 318 319 321 319 321 323
308 307 306 306 304 304 301 301 301 300 299 299 300 306 309 315 316 313 314 313 317 320 319 311 307 307 311 312 310 309 317 314 313 312 312 313 317 318 319 319 319 319 323 326 324 325 326
306 307 308 307 307 306 305 301 299 300 299 299 298 298 299 304 310 310 309 314 313 316 319 315 308 307 310 312 310 310 316 314 313 313 312 314 315 318 319 320 318 319 324 327 327 326 327
304 304 305 308 307 306 306 306 302 300 300 299 299 298 298 299 300 303 309 315 312 314 316 318 309 308 313 311 309 310 317 316 316 312 313 314 315 317 318 319 320 321 325 322 328 327 324
302 303 303 304 306 308 306 306 305 302 302 300 299 299 298 298 299 305 313 312 311 313 313 316 309 310 314 310 309 309 318 317 317 315 313 315 316 319 319 320 319 321 321 322 325 324 324
302 302 302 302 302 304 307 306 305 305 304 302 300 299 299 298 298 305 310 310 308 310 313 310 312 314 312 312 313 311 317 316 318 317 317 317 319 320 320 320 318 320 320 321 323 323 325
303 303 303 302 301 301 304 306 306 306 305 304 302 300 299 298 298 307 310 313 315 315 313 314 317 316 310 313 315 316 314 315 318 319 320 321 321 321 320 320 320 321 321 320 322 322 322
297 303 304 303 302 302 300 302 306 306 306 306 305 303 301 299 298 302 308 315 316 313 314 314 312 315 315 314 318 318 316 318 319 321 321 322 321 321 321 321 322 322 321 321 321 321 321
297 293 295 301 303 302 301 300 303 305 306 305 305 305 304 301 300 301 309 313 315 314 318 316 316 314 314 315 316 317 316 318 320 320 321 321 322 320 321 322 322 322 322 321 321 321 321
302 302 300 297 299 302 302 301 300 301 306 305 305 305 305 303 304 307 312 310 314 313 319 315 314 315 315 315 317 316 317 318 319 320 320 321 321 321 321 322 322 321 321 321 321 322 322
300 301 302 302 301 297 301 302 301 300 303 306 304 304 305 304 311 312 314 313 315 315 312 315 318 316 317 315 316 317 317 317 319 319 320 321 321 321 322 322 322 321 321 321 322 322 322
301 301 301 301 301 301 299 300 302 301 299 304 304 304 304 305 309 311 313 316 315 320 315 314 319 319 318 317 316 317 316 317 318 319 320 320 319 321 321 321 321 321 322 322 323 323 323
302 302 302 302 301 301 302 299 300 301 300 299 305 304 304 306 307 311 313 317 319 316 313 313 320 319 318 317 317 318 318 319 319 320 320 320 320 320 320 321 321 322 322 324 325 324 324
302 302 303 303 302 302 301 302 300 301 301 298 301 303 303 304 307 309 313 319 314 310 313 316 318 319 318 316 317 318 318 319 319 319 319 320 320 320 321 321 322 322 323 324 324 324 323
303 303 303 303 303 303 302 301 302 301 301 300 299 303 303 305 305 310 314 318 310 312 314 315 316 321 319 315 317 318 318 318 319 319 318 320 318 319 321 321 321 322 323 322 323 323 325
303 303 303 303 303 303 303 302 302 302 301 300 299 301 303 304 304 307 313 315 311 313 316 318 314 319 321 315 316 317 319 318 319 319 318 319 319 320 321 321 321 322 322 323 323 324 324
304 303 303 304 303 303 303 303 302 302 302 301 299 302 304 303 303 305 311 313 311 314 316 319 319 318 319 317 316 318 318 317 319 318 318 319 320 322 322 323 322 322 322 322 322 322 323
305 305 304 304 303 302 302 303 303 302 302 301 301 303 303 302 304 305 310 312 310 313 316 318 320 321 322 318 317 317 318 317 316 318 319 319 320 321 320 320 320 322 322 322 324 323 323
299 300 300 300 300 301 299 303 303 302 302 301 301 302 303 303 305 304 308 309 311 312 316 317 319 320 321 321 318 317 318 318 316 318 319 320 320 321 320 320 320 321 321 321 322 321 321
298 298 298 298 298 298 298 300 303 302 301 301 300 304 304 304 304 305 307 310 310 310 313 316 317 319 320 320 319 319 317 317 315 317 317 318 319 319 320 319 319 321 320 320 321 323 321
299 299 299 298 298 299 299 299 300 303 301 301 301 305 304 305 306 306 307 308 309 311 312 314 317 318 319 320 318 319 318 319 317 315 317 320 320 320 319 318 318 318 318 320 320 321 321
300 300 300 300 299 299 299 299 299 303 301 300 300 305 305 306 305 307 308 309 309 310 311 314 315 317 318 319 318 320 319 319 320 319 319 319 320 321 320 319 318 318 318 319 320 319 321
300 300 300 299 300 299 300 299 298 302 301 300 301 303 304 305 306 306 308 307 309 310 310 310 314 315 317 317 316 316 316 316 317 320 321 321 320 320 320 319 319 320 320 319 320 321 321
300 299 298 300 301 299 300 300 299 301 300 300 301 303 305 307 307 307 305 306 307 309 311 310 311 315 314 314 315 315 316 316 318 319 319 321 321 321 320 318 327 320 319 320 320 321 321
299 299 299 301 300 299 301 300 300 301 300 301 300 302 304 308 307 307 306 306 306 307 310 310 311 311 312 311 312 312 316 315 316 318 320 321 321 322 327 322 320 318 317 319 320 321 321
299 299 299 301 300 300 301 300 302 301 300 301 301 302 304 307 307 305 307 306 308 309 311 310 310 313 312 315 317 316 312 313 317 320 315 317 318 324 319 323 329 320 320 318 318 322 320
300 300 299 300 301 301 300 300 302 301 300 301 301 301 302 304 303 305 308 307 306 309 312 311 312 313 314 317 319 317 315 316 317 320 320 319 319 324 324 325 323 320 318 315 320 323 319
300 301 301 301 301 300 301 302 302 300 300 300 302 302 303 304 304 305 306 307 306 307 312 310 312 313 315 317 317 318 320 318 320 319 321 321 323 323 323 327 327 316 314 319 321 320 318
301 300 301 300 300 301 302 302 301 300 301 301 301 302 303 304 304 304 305 306 307 308 309 310 310 310 313 314 316 315 321 319 318 320 318 322 321 323 321 323 321 315 319 317 319 319 316

GFSGBSN_850_thetae_057.txt.gz
Theta_e
309 309 308 307 306 304 303 300 299 300 300 299 299 300 304 309 313 313 314 311 308 311 315 320 318 309 308 316 316 314 317 317 316 315 315 314 316 318 320 320 320 320 320 320 322 321 322
305 307 309 309 308 307 305 304 302 300 300 300 299 299 299 302 306 306 308 306 307 308 312 317 319 313 314 316 314 313 310 316 316 316 315 314 315 318 320 320 320 321 320 323 324 322 323
304 304 305 307 309 309 308 307 306 302 300 299 300 299 299 299 299 300 301 303 304 307 312 312 317 318 313 315 315 315 314 317 317 315 315 314 318 319 320 321 320 320 321 325 325 324 326
302 302 303 305 306 307 309 307 306 306 305 301 300 300 299 298 299 299 299 301 306 312 311 311 313 315 316 315 313 315 316 317 316 315 315 316 317 319 320 320 320 320 322 324 324 325 325
304 304 302 302 303 304 305 307 307 307 306 304 303 301 300 299 299 299 299 302 307 309 309 309 312 316 316 316 313 313 316 318 317 316 316 316 317 319 320 320 320 321 322 324 326 327 325
305 305 304 303 303 302 303 304 306 307 306 305 306 304 301 299 299 299 299 302 307 306 310 311 314 316 315 315 313 312 314 319 318 318 318 318 318 321 321 320 320 320 322 323 326 324 323
301 299 305 305 304 304 303 301 302 306 308 306 306 306 304 300 299 299 299 313 316 318 317 314 316 312 314 315 316 314 315 319 319 319 320 319 321 321 321 321 321 321 321 322 324 324 325
300 299 297 298 302 303 304 303 302 301 305 307 305 306 306 305 301 299 301 312 314 316 313 313 315 315 317 316 318 316 318 318 319 321 320 322 322 321 322 321 321 320 321 321 322 322 322
301 301 301 300 297 297 302 303 302 301 302 305 306 305 305 306 304 300 308 312 315 317 316 312 313 314 315 315 317 317 318 318 320 321 321 322 322 322 322 321 321 322 322 322 322 323 323
301 301 301 301 302 302 299 295 301 302 301 303 305 305 305 305 303 307 312 313 313 316 317 313 318 317 315 315 317 316 317 318 320 321 321 321 321 321 321 322 322 323 322 321 322 322 322
302 302 302 302 301 301 302 301 298 301 302 301 302 305 305 304 309 312 313 315 317 318 311 316 317 317 316 316 316 316 317 317 320 321 321 321 321 322 322 322 322 322 322 322 322 322 323
302 302 302 302 302 302 301 301 301 297 301 302 300 303 305 304 305 312 315 317 319 318 312 315 319 319 320 317 316 317 317 317 318 320 320 320 320 322 322 322 322 322 322 322 323 323 324
303 303 302 302 302 302 302 301 301 301 299 302 301 301 304 306 305 309 314 316 315 312 312 313 319 320 320 320 318 319 319 318 319 320 321 320 321 321 321 322 322 322 323 325 327 325 325
303 303 303 302 303 303 303 302 301 301 301 300 302 299 303 305 305 309 311 315 312 311 312 317 317 321 321 320 319 319 319 318 318 320 321 321 321 321 321 321 323 323 323 326 328 328 326
304 304 303 303 302 303 303 303 302 302 302 299 301 300 301 304 305 308 306 315 314 311 312 313 317 321 321 319 319 319 319 318 318 320 320 321 321 321 320 321 320 322 324 323 325 326 326
303 304 304 304 303 303 303 303 303 303 301 301 302 303 302 305 305 308 308 312 312 311 311 314 314 320 322 319 318 319 320 319 319 319 320 320 321 320 320 320 321 322 324 324 324 327 327
303 303 304 304 304 304 303 303 303 303 302 302 302 303 303 303 304 307 309 311 314 310 311 312 315 315 319 322 318 319 320 319 319 319 320 320 320 321 322 322 322 323 324 324 324 324 327
302 303 302 304 304 303 304 303 303 304 302 302 302 305 303 303 304 306 308 310 310 313 310 313 316 319 315 319 320 319 319 319 318 319 320 320 321 323 322 321 321 323 323 323 325 326 326
302 302 302 301 304 305 304 304 303 303 303 302 302 303 303 304 306 308 307 309 309 312 312 313 317 318 320 321 321 319 319 319 318 320 320 321 320 322 322 322 322 321 324 324 324 324 327
298 298 298 298 300 304 305 304 303 303 304 302 302 304 304 305 305 308 308 308 308 309 312 312 315 316 318 320 321 321 320 319 318 319 319 320 320 321 323 322 321 321 321 322 323 326 324
298 298 298 298 298 299 302 305 303 303 303 302 301 305 305 305 307 308 308 307 308 309 311 311 313 316 318 320 321 322 320 320 318 317 318 321 320 320 320 320 320 320 321 321 321 321 323
299 299 299 299 299 299 299 301 301 303 303 302 300 305 305 307 305 308 308 308 308 308 310 312 314 315 316 317 319 321 320 320 319 319 319 320 322 320 320 320 319 319 319 319 320 320 320
300 300 300 300 300 300 299 299 300 300 303 303 300 303 305 306 307 308 309 308 307 308 309 309 312 314 316 316 319 319 317 317 317 319 321 321 322 322 323 320 320 323 319 319 319 319 320
301 301 302 302 300 300 300 299 299 299 301 302 301 303 306 308 309 309 308 307 307 308 310 310 310 314 314 315 316 316 317 316 317 318 318 323 322 323 326 322 327 321 320 320 320 320 320
300 300 300 301 300 300 300 300 299 299 299 301 301 304 305 310 308 307 307 308 307 307 310 310 311 311 314 315 314 314 314 314 314 316 317 320 324 325 327 324 321 320 320 321 320 320 320
300 301 299 299 300 300 300 299 299 299 300 300 303 303 305 308 308 306 308 307 308 309 310 310 309 311 313 314 313 313 311 311 311 315 316 318 321 327 325 325 325 321 320 320 321 324 321
301 301 301 299 299 299 301 300 299 300 300 299 303 303 304 306 305 306 308 308 306 308 310 310 310 313 313 316 317 317 313 311 312 313 321 321 323 328 327 325 322 320 320 320 323 324 320
301 300 300 299 300 299 299 301 299 300 299 300 302 303 304 305 305 306 307 307 306 307 311 309 311 313 316 317 317 315 317 315 315 316 320 322 323 326 326 328 328 320 320 322 323 321 321
300 299 300 300 300 300 302 300 300 300 300 301 303 302 304 305 306 306 307 307 307 307 307 309 311 312 313 315 317 317 320 322 316 320 316 322 322 324 323 324 322 320 320 320 320 321 322

GFSGBSN_850_thetae_060.txt.gz
Theta_e
304 305 308 309 309 308 307 305 302 301 300 299 300 299 299 299 301 303 306 305 304 305 306 307 309 314 316 318 319 318 317 316 317 315 315 316 316 317 319 320 320 320 320 319 320 321 320
305 305 304 306 308 309 309 308 307 305 303 300 300 299 299 299 299 299 300 300 301 302 303 305 310 311 319 318 317 315 316 314 317 316 317 316 316 316 318 319 320 320 320 320 323 325 324
303 302 302 305 305 306 308 309 308 307 307 304 301 300 299 299 299 299 299 299 299 301 303 307 311 312 317 316 314 317 317 319 317 318 317 316 316 316 319 321 320 320 320 321 323 322 323
305 305 304 304 302 303 305 307 308 308 307 306 306 302 300 299 300 299 299 299 299 304 307 308 310 312 315 311 317 317 317 318 318 317 316 316 316 318 318 320 320 321 320 321 324 323 322
303 306 306 306 305 303 302 303 305 307 307 307 306 306 304 300 300 299 299 299 299 302 305 306 308 315 314 314 316 315 316 317 317 317 315 316 317 318 319 321 321 320 320 322 325 324 325
303 302 302 305 307 305 304 303 302 302 306 307 307 306 305 305 301 299 299 299 302 307 313 313 314 315 315 313 316 316 315 317 319 318 317 317 317 319 320 320 320 321 320 322 324 326 326
301 302 302 302 301 303 306 305 304 303 301 305 307 307 306 305 305 302 299 300 314 321 319 318 316 313 313 317 316 314 315 316 319 319 319 318 319 319 320 322 322 322 321 321 325 324 324
302 301 301 301 300 298 301 304 305 304 303 301 305 306 305 305 306 305 301 312 311 317 315 312 316 316 316 317 318 317 314 317 320 320 320 320 321 320 321 321 322 321 319 320 322 324 324
302 302 302 302 302 301 301 296 299 304 303 302 301 305 306 305 305 304 302 307 314 315 316 312 310 310 311 315 317 318 316 317 320 320 321 321 321 322 321 322 321 321 321 321 322 323 323
303 303 302 302 302 302 302 302 301 295 299 302 302 302 306 305 304 308 306 308 308 315 317 310 311 314 311 313 316 317 318 318 319 320 320 321 321 322 322 322 321 323 322 322 321 323 322
303 303 303 303 302 302 303 302 302 302 300 295 302 300 303 305 308 312 314 312 315 319 309 314 315 317 317 314 317 316 317 318 320 320 320 321 321 321 322 321 322 322 323 323 322 321 322
303 303 303 303 303 303 302 302 302 301 302 299 301 302 300 303 305 310 315 316 317 318 310 314 319 318 318 317 316 318 316 318 319 320 321 321 321 321 321 322 321 322 322 323 323 322 325
303 303 304 303 303 303 303 303 303 302 301 302 297 302 301 303 305 307 310 314 316 312 310 312 319 320 318 319 317 318 319 319 320 321 322 321 320 321 321 321 322 322 322 325 330 328 328
303 304 304 304 303 303 303 303 303 303 302 302 301 300 302 302 305 307 309 314 313 311 312 316 316 320 320 320 319 318 319 319 320 319 321 321 321 320 321 322 322 322 323 326 327 331 330
303 303 304 304 305 304 304 303 303 303 302 301 302 300 303 303 305 306 308 312 312 311 312 312 314 317 321 321 321 320 319 320 319 320 320 321 321 320 321 321 321 321 325 324 326 327 330
303 303 303 303 304 304 304 304 303 303 303 302 302 302 303 303 304 307 308 309 311 310 312 313 312 317 320 322 321 320 320 320 320 320 320 321 322 321 321 321 321 321 321 326 326 329 329
303 303 303 303 303 304 304 304 304 303 303 303 302 303 304 304 305 307 308 308 309 308 310 312 312 313 314 318 321 320 320 320 320 320 319 321 323 323 321 321 320 320 322 325 325 326 329
303 303 303 303 303 303 304 304 304 303 303 303 303 305 304 304 305 306 307 309 308 308 308 312 313 313 314 317 321 323 320 321 320 320 320 320 322 322 321 321 321 321 323 323 328 326 328
302 302 302 302 303 303 304 304 305 304 304 303 303 303 304 304 305 306 307 307 308 309 309 310 313 313 314 317 320 321 323 321 320 320 322 321 322 323 322 323 322 321 322 324 325 325 328
301 300 299 299 304 303 302 302 305 304 303 303 302 304 304 305 305 307 308 309 309 307 309 310 313 314 314 318 320 322 321 321 320 319 319 321 322 322 324 324 323 322 322 324 326 330 327
299 298 298 298 298 300 300 300 306 304 304 303 302 303 305 306 306 308 307 307 308 308 308 309 312 313 314 318 318 320 322 321 320 318 319 322 323 322 321 320 321 322 321 320 321 326 327
296 297 297 298 298 298 298 299 299 304 304 304 300 305 305 306 305 307 308 309 308 308 308 308 311 313 314 316 317 320 321 321 322 319 320 321 323 322 322 320 320 321 322 321 320 321 321
297 298 299 299 299 299 299 299 299 302 304 305 301 303 305 306 307 307 308 309 309 309 308 307 309 313 315 315 317 317 318 319 322 321 321 321 322 323 323 321 321 320 321 321 321 321 321
300 300 301 301 301 300 299 299 299 299 303 304 301 303 305 308 308 309 307 307 308 309 310 308 308 311 312 314 316 316 314 317 320 319 319 321 323 322 324 321 324 321 322 320 320 320 320
302 301 300 300 301 301 301 300 300 299 299 303 301 304 304 308 308 308 307 307 308 308 309 310 308 308 310 316 316 317 316 316 317 319 319 319 322 323 325 324 322 321 321 321 321 321 321
301 301 302 302 301 300 301 302 301 300 300 300 300 303 304 307 308 307 308 308 309 309 310 309 308 308 310 318 316 317 318 315 317 315 318 318 319 323 325 324 325 323 322 320 321 321 321
301 301 301 300 301 301 300 302 301 301 300 299 300 302 305 306 306 307 308 308 307 308 310 310 309 312 313 316 317 317 315 312 313 316 318 319 319 322 324 325 325 321 320 320 322 323 322
301 301 301 301 301 301 300 303 300 301 300 300 300 302 304 305 307 306 306 307 307 308 310 309 310 312 312 316 317 316 318 314 312 312 319 321 321 322 323 325 326 321 321 321 322 321 322
301 300 300 301 301 301 301 301 300 300 300 299 301 300 303 306 306 307 306 306 308 309 309 308 311 312 313 316 316 316 321 319 316 318 314 318 319 322 321 323 323 321 320 320 321 322 322

GFSGBSN_850_thetae_063.txt.gz
Theta_e
300 305 304 302 304 307 308 309 308 306 304 302 302 300 300 300 300 299 300 300 300 300 301 301 302 305 307 315 315 313 318 317 316 315 314 312 315 316 314 316 317 317 317 319 320 321 323
302 303 302 300 300 302 306 308 309 309 307 306 305 302 300 300 299 299 299 300 300 300 300 301 304 309 311 316 310 317 316 315 315 317 316 314 316 316 316 316 317 318 319 318 320 322 322
305 305 304 304 303 301 302 304 306 308 308 308 307 306 304 301 300 300 299 299 300 300 300 304 310 312 313 306 310 316 317 317 317 316 316 316 317 316 316 317 319 320 318 317 320 322 321
302 305 307 307 306 305 304 302 303 305 307 308 308 307 306 305 301 300 299 299 300 300 300 304 308 311 312 306 307 312 316 317 317 318 318 318 317 316 316 318 318 318 317 317 318 321 322
302 303 302 302 306 305 306 305 304 302 303 306 306 306 307 306 304 301 300 300 300 300 301 307 307 311 314 315 314 310 316 317 317 318 318 317 316 317 318 317 316 317 318 317 321 321 323
302 303 303 304 302 302 303 306 306 304 303 301 302 306 307 306 305 304 300 300 300 300 306 316 315 314 312 314 313 316 314 316 317 317 317 316 316 315 315 315 317 318 318 317 321 322 322
301 302 303 302 302 302 303 302 304 306 305 304 303 301 305 307 306 305 302 300 308 316 319 317 315 306 311 313 317 315 316 315 316 318 317 316 315 316 315 316 318 319 319 318 321 322 324
301 301 302 302 302 302 302 301 298 302 304 305 304 302 304 304 305 305 304 301 308 313 314 315 316 318 315 312 316 317 315 315 315 316 317 317 317 317 318 318 319 320 320 317 320 322 322
301 302 302 303 303 303 303 303 302 301 296 302 304 303 301 303 305 304 304 301 300 310 314 312 311 311 308 311 316 315 317 314 316 318 318 318 318 318 319 319 319 320 319 318 319 322 321
301 302 302 303 303 303 303 302 303 302 302 298 300 302 301 302 303 308 307 311 311 311 315 311 310 311 310 309 313 311 317 314 317 319 319 318 319 320 320 320 320 319 320 322 321 321 320
301 301 302 303 304 303 303 303 302 302 302 302 301 296 301 301 304 308 311 313 313 314 305 309 310 313 312 310 313 314 313 316 315 319 318 319 319 320 320 321 321 320 321 322 322 320 319
301 301 302 303 303 303 303 303 303 302 302 301 302 300 301 301 303 304 308 312 316 317 316 311 316 316 315 310 312 315 314 315 317 317 317 318 319 318 319 320 320 320 321 321 321 320 320
301 302 302 302 302 303 303 303 304 303 303 302 301 302 299 302 301 303 308 309 315 315 308 308 319 317 317 315 312 313 315 315 315 319 319 319 319 319 319 319 320 320 321 322 323 323 321
302 302 302 302 302 303 304 304 303 304 303 303 302 302 299 301 301 304 307 312 314 309 309 311 314 316 319 317 317 316 315 316 315 317 318 319 320 319 319 319 320 320 320 323 325 325 325
302 302 302 302 302 303 303 304 304 304 303 303 302 301 302 299 301 304 307 311 310 309 309 309 309 310 317 318 319 317 316 316 316 316 318 319 319 319 318 320 319 322 321 320 323 326 325
301 302 303 303 303 303 303 304 305 304 304 303 303 302 302 299 302 304 307 309 310 309 309 309 309 312 313 319 320 318 318 318 317 316 317 318 320 319 319 318 319 320 319 323 324 328 329
300 301 302 303 303 304 304 303 304 304 304 303 303 303 302 301 302 304 307 306 307 308 309 309 308 309 311 313 313 316 319 319 317 317 317 317 318 321 319 319 319 319 319 319 322 325 324
299 300 301 302 302 303 303 303 303 304 305 303 304 304 303 301 304 305 306 305 306 306 307 308 308 309 310 312 313 314 318 319 319 318 318 317 319 319 319 320 319 319 320 319 321 325 325
300 300 301 301 302 302 302 303 303 304 305 303 303 302 303 302 304 305 305 306 305 306 307 306 308 309 310 311 312 315 320 318 318 319 318 317 318 319 320 319 319 319 318 320 321 323 324
300 300 301 301 302 302 303 303 303 304 304 304 302 303 304 305 304 303 305 305 306 306 306 308 308 307 308 309 312 315 319 319 317 319 319 318 317 317 319 320 321 320 320 320 321 323 323
300 300 301 301 302 301 300 300 302 304 304 305 301 302 304 306 304 304 303 305 305 307 306 306 307 308 308 309 311 315 318 319 318 320 318 319 318 318 319 319 321 321 321 320 321 323 326
299 300 301 301 300 299 298 299 303 304 304 305 299 303 304 303 305 305 305 305 306 307 307 308 307 307 308 309 310 316 320 319 321 319 318 319 319 318 318 319 320 321 321 320 320 319 324
299 299 298 297 297 297 297 297 298 301 301 305 302 303 304 304 306 306 305 305 307 306 307 306 307 306 307 308 312 317 318 318 319 319 318 320 319 320 319 319 320 319 319 319 320 320 319
297 297 297 297 297 298 298 298 298 298 299 302 302 303 303 306 304 305 305 305 306 306 307 306 308 306 307 310 316 316 315 315 316 318 318 319 319 318 317 318 321 319 318 319 320 319 318
297 297 298 299 299 300 300 299 299 299 299 299 301 303 303 305 305 305 305 305 306 306 306 308 308 308 306 307 313 315 315 315 315 317 317 316 321 318 320 321 319 319 319 320 320 319 317
299 299 299 300 300 302 301 301 300 299 299 299 300 301 304 305 306 305 306 306 306 305 306 307 307 308 308 308 311 314 315 317 318 317 315 316 317 316 317 321 321 319 319 320 319 319 318
301 301 302 301 301 301 301 300 301 300 299 299 300 300 302 303 305 306 305 306 307 306 307 307 307 308 309 307 308 309 314 314 316 315 314 314 315 318 319 320 319 320 319 320 321 318 319
301 301 301 301 301 301 301 302 300 301 301 300 300 300 302 302 304 306 307 307 307 307 307 307 308 308 308 308 310 308 308 312 312 313 316 316 316 316 318 318 320 319 319 319 318 320 319
301 301 301 301 300 301 301 301 301 300 302 300 300 300 302 302 306 305 305 307 306 307 308 308 308 308 310 309 309 310 307 308 310 311 313 316 314 316 316 316 318 320 320 319 319 320 320

GFSGBSN_850_thetae_066.txt.gz
Theta_e
305 303 302 300 300 301 303 303 305 307 307 308 307 305 302 300 300 300 300 300 300 300 300 299 301 303 304 311 308 310 313 314 317 316 315 312 315 315 314 313 314 315 315 317 318 320 322
307 306 306 305 304 303 301 301 303 302 306 307 309 308 307 304 301 300 300 300 300 300 299 299 303 306 310 314 309 311 311 316 315 315 316 314 313 314 315 314 314 317 317 318 318 320 322
302 304 305 306 307 305 305 304 302 301 300 304 307 308 308 307 305 301 300 300 300 300 299 299 302 308 311 305 307 310 317 317 316 318 316 316 314 315 316 313 316 317 317 315 316 319 320
301 299 299 300 305 305 306 306 306 303 302 300 303 305 306 307 306 304 301 300 300 300 299 298 304 309 308 305 306 307 308 317 316 316 319 316 316 317 316 316 316 316 316 316 316 319 320
302 303 303 303 303 302 302 303 306 306 305 303 302 302 304 306 305 305 302 301 301 300 299 300 309 312 308 309 312 313 309 311 315 317 318 317 318 317 316 315 314 315 315 316 317 318 320
302 301 302 302 303 303 302 302 303 303 306 306 304 304 303 302 305 306 303 300 301 300 299 303 315 312 309 308 314 315 316 312 316 317 317 318 316 313 312 313 316 315 316 316 315 318 321
300 302 301 302 303 302 302 302 301 300 301 305 306 304 303 301 304 305 303 301 304 314 315 314 316 310 309 310 313 315 315 314 315 316 315 316 313 314 313 313 315 316 317 316 316 318 321
301 300 300 301 302 303 303 303 303 302 301 297 304 305 304 302 303 303 304 303 305 308 306 307 312 316 314 315 317 314 316 316 314 314 315 315 315 314 314 315 316 316 317 317 316 321 321
300 301 300 300 301 301 302 303 303 303 304 302 300 299 304 302 301 302 305 303 309 312 308 309 309 311 309 311 316 313 312 315 313 314 315 317 317 316 316 316 317 317 317 318 317 317 319
300 299 299 300 301 301 302 303 304 303 303 303 302 300 299 301 299 303 308 310 309 312 309 309 311 309 309 310 312 307 309 315 314 314 314 316 317 317 317 317 317 318 318 319 320 320 320
298 299 299 300 301 301 302 304 304 303 303 302 302 302 301 296 300 305 309 310 311 311 297 305 310 309 310 309 309 310 308 314 313 316 317 319 317 317 318 318 318 319 319 319 321 320 318
298 299 300 300 300 301 302 303 303 303 303 302 302 301 302 298 299 300 302 306 312 314 308 309 312 310 310 309 311 314 312 314 315 314 316 317 318 316 318 318 318 318 319 320 319 318 320
297 298 300 300 301 301 302 302 303 303 303 303 302 302 302 301 299 301 303 309 314 313 307 307 316 315 312 310 309 311 313 312 314 314 314 317 317 316 317 317 317 318 318 319 321 320 321
294 297 300 301 301 302 302 302 303 303 304 304 303 302 301 302 299 301 303 310 312 307 305 308 310 310 316 312 310 311 312 312 312 314 316 316 319 317 317 317 318 318 318 320 324 321 321
295 296 298 301 302 302 302 302 303 303 304 304 303 303 302 302 299 301 303 309 310 308 308 306 307 307 308 316 316 312 312 312 313 314 316 318 318 317 317 317 317 319 319 320 321 324 322
296 296 298 300 301 302 303 303 303 304 304 304 304 303 302 302 299 301 304 309 309 309 308 308 308 309 311 311 314 314 315 315 315 314 314 317 318 318 318 317 317 318 318 321 321 325 326
296 298 298 299 300 302 302 303 303 303 304 305 304 303 303 302 300 303 305 306 306 307 307 309 309 309 309 311 312 313 315 315 316 315 314 315 317 317 318 318 317 318 318 318 320 323 324
296 297 298 298 298 300 302 302 304 304 303 304 304 304 303 302 301 302 304 304 305 305 306 306 308 308 308 309 310 312 314 315 316 318 316 315 316 317 317 318 317 317 319 318 319 323 322
297 297 298 299 299 300 301 302 302 303 303 303 303 302 302 302 302 302 302 303 304 305 305 306 307 307 307 308 308 311 313 315 318 319 319 316 316 318 317 317 317 317 317 318 318 318 319
297 297 298 299 299 300 301 301 301 302 303 303 300 302 303 303 302 301 302 303 304 305 304 305 306 307 306 306 307 308 310 314 317 317 318 318 319 317 318 318 317 319 318 318 319 318 318
297 298 298 299 299 300 300 301 301 302 302 303 300 302 304 303 302 303 302 304 305 304 305 306 305 305 307 308 307 308 312 317 318 318 319 319 319 318 316 317 317 319 319 318 318 319 321
297 298 298 299 299 300 301 301 301 302 303 303 299 302 303 302 304 303 303 303 303 304 305 306 306 305 306 307 307 307 309 315 320 319 318 318 320 317 318 317 318 318 318 319 318 318 319
298 298 299 299 300 300 301 302 302 301 301 303 303 302 304 304 303 305 303 303 304 303 304 304 306 306 306 306 306 307 313 317 318 319 319 318 319 320 321 317 318 318 318 318 318 318 320
299 299 299 300 299 300 300 300 300 299 299 300 304 302 303 305 303 304 305 304 304 305 304 305 305 305 306 307 309 313 314 314 316 317 318 317 316 318 317 315 320 318 317 317 317 317 317
297 297 297 298 299 298 297 297 297 298 298 300 301 303 303 304 303 303 304 305 304 304 304 305 306 307 306 306 307 311 309 310 312 315 318 316 315 314 319 317 318 318 317 317 318 317 316
297 297 297 297 297 297 298 298 297 297 298 298 300 300 302 304 305 303 303 304 304 304 304 304 305 305 306 305 305 306 308 313 315 317 316 314 314 313 315 319 319 317 316 318 319 318 316
300 300 300 299 298 298 298 299 298 298 299 299 300 300 301 299 303 304 303 304 304 304 303 304 305 305 306 303 304 306 307 311 313 314 313 312 311 315 316 319 317 316 318 318 320 318 318
301 301 301 301 301 301 300 300 300 300 299 299 299 300 299 300 302 305 304 305 305 305 304 304 305 306 305 305 305 305 304 310 312 313 313 313 314 314 315 317 316 318 319 319 316 318 320
300 300 300 301 301 301 301 301 300 301 301 300 300 300 300 300 301 304 306 305 305 305 305 306 306 306 306 306 304 304 304 302 308 311 311 314 314 315 315 315 315 317 319 318 319 319 318

GFSGBSN_850_thetae_069.txt.gz
Theta_e
306 307 307 307 306 303 303 302 301 300 302 306 308 307 306 306 305 303 301 300 300 299 299 299 299 300 303 308 305 308 317 314 314 317 316 314 312 315 313 313 313 313 313 316 318 318 318
303 303 305 306 306 307 307 305 304 302 301 300 302 305 305 304 305 305 302 301 300 300 299 299 299 299 306 312 307 307 309 308 308 317 316 314 312 313 314 313 312 314 316 316 317 317 322
303 303 301 302 303 303 306 306 306 306 305 304 302 302 303 304 302 302 301 301 301 300 300 299 299 299 306 304 305 305 309 315 310 316 315 315 315 314 314 314 315 316 314 313 314 316 317
303 303 303 304 303 303 302 303 303 305 306 306 304 302 302 302 302 301 301 299 300 301 300 299 299 303 307 304 305 306 305 316 317 316 317 318 316 315 315 316 314 315 314 315 315 317 317
302 302 302 302 303 302 303 302 303 302 302 304 306 305 304 303 302 301 303 299 300 300 301 300 300 305 308 305 306 310 314 309 314 316 315 317 318 316 315 313 312 313 312 314 315 314 318
301 302 302 302 301 302 303 302 302 302 302 301 304 306 306 304 302 302 302 300 300 300 301 300 309 307 304 305 310 314 315 315 309 314 316 317 317 311 310 311 313 313 315 315 314 314 319
301 301 301 300 300 301 301 302 303 303 303 302 299 302 305 305 302 300 300 300 302 312 312 305 308 306 307 311 310 312 315 315 311 315 314 314 313 312 313 312 313 314 315 315 314 314 319
300 300 301 300 300 300 301 301 302 303 303 304 303 301 301 303 303 300 301 303 304 305 307 307 309 311 307 309 314 312 313 314 313 313 313 314 315 313 312 313 314 314 314 314 314 315 318
299 300 300 299 297 300 300 301 302 302 303 304 304 304 302 298 302 299 301 305 307 307 308 309 304 303 305 308 313 310 310 314 313 312 314 315 316 315 313 314 314 314 314 315 315 315 317
299 299 299 298 299 300 300 300 301 302 304 304 303 303 302 299 298 300 304 307 307 309 307 305 309 307 306 310 314 308 310 314 312 313 313 314 315 316 314 315 314 315 314 316 316 317 318
298 299 298 298 299 299 300 300 301 302 304 304 303 303 302 302 297 301 307 308 306 309 298 304 309 308 309 309 308 309 309 311 312 313 313 314 316 316 317 316 315 316 316 317 317 317 317
298 298 298 298 298 299 299 300 300 301 303 304 303 302 302 302 301 297 297 302 308 312 305 304 309 311 310 309 309 312 311 311 311 313 313 313 316 315 316 316 315 317 317 318 317 316 319
297 297 297 296 298 299 300 300 301 302 302 304 304 303 302 302 302 299 301 305 313 311 305 305 312 309 310 309 309 312 311 311 313 314 314 313 315 316 316 316 316 316 317 318 318 318 320
297 297 297 296 296 298 300 300 302 302 302 303 304 303 302 302 302 300 300 307 312 308 305 305 307 307 313 309 309 310 310 309 311 314 313 313 315 315 316 316 317 315 316 318 322 320 319
297 298 296 296 295 297 300 301 302 302 302 303 304 304 303 302 301 301 301 308 309 309 307 308 307 305 308 313 314 310 310 310 309 311 316 314 313 315 315 316 316 317 317 317 318 320 321
297 297 296 295 295 297 298 301 302 302 302 303 304 304 304 303 301 300 302 306 309 309 308 308 307 308 309 309 313 314 315 314 312 310 313 315 317 316 316 315 315 316 317 319 318 322 324
295 295 295 294 295 297 298 300 302 303 303 303 304 304 303 303 302 300 301 304 306 307 307 307 309 308 308 308 309 311 315 314 315 316 312 314 315 316 317 316 316 316 317 317 319 319 322
294 295 295 293 295 297 298 299 301 302 303 303 305 304 303 303 301 300 300 301 304 304 305 306 306 308 308 308 308 310 312 312 316 317 318 313 314 316 316 315 316 316 317 317 318 319 320
294 295 295 294 296 297 297 299 299 302 303 304 303 301 303 303 303 300 300 301 303 305 304 305 306 306 306 307 306 308 311 311 316 316 318 318 316 316 316 315 315 315 315 317 317 316 319
294 294 295 295 297 297 298 299 300 301 302 302 300 302 301 302 302 301 301 300 303 303 303 304 305 304 306 305 306 306 307 309 312 317 318 318 319 319 318 316 315 317 317 316 317 317 317
294 294 294 295 296 297 298 299 300 300 301 301 300 301 303 304 303 302 301 302 302 304 303 305 304 304 304 306 306 305 305 306 313 318 318 319 320 319 319 318 317 317 317 317 317 317 317
295 296 296 296 297 297 298 299 299 300 300 301 299 301 303 302 303 302 303 302 303 302 303 304 304 305 304 304 305 305 305 307 312 316 318 317 320 317 318 317 316 316 316 317 316 316 317
296 296 297 297 297 298 298 299 300 300 300 300 301 301 303 303 303 303 303 303 303 303 304 304 304 304 305 305 305 305 306 306 306 316 316 318 317 317 317 316 317 319 317 316 316 317 317
297 297 297 297 298 298 299 299 300 300 300 301 302 302 302 305 303 303 304 303 303 304 303 304 304 304 305 305 305 307 308 310 313 315 315 315 314 314 317 316 321 319 315 316 316 316 316
298 298 298 298 299 299 299 299 300 300 300 300 301 303 303 304 303 303 304 304 303 302 304 303 304 304 305 305 305 306 307 310 309 312 314 313 312 313 314 316 317 314 317 316 316 317 315
297 297 297 298 298 299 300 300 300 300 301 302 301 301 303 304 304 303 303 304 303 302 302 303 304 305 305 304 304 306 305 308 313 315 316 314 312 312 314 316 316 311 314 312 315 318 315
298 298 298 297 297 297 297 300 299 299 300 300 299 300 300 301 304 304 303 303 304 303 302 303 303 303 304 302 304 304 306 307 311 313 313 312 311 316 315 316 313 313 313 316 320 317 318
300 299 300 300 298 298 298 297 297 298 298 299 299 299 299 300 301 303 303 303 304 304 302 303 304 304 302 303 304 304 301 306 308 310 310 311 312 310 314 316 312 314 316 321 316 318 318
302 301 301 302 301 300 300 298 297 298 298 298 299 299 298 299 300 302 304 303 304 304 304 304 305 305 304 303 301 302 301 299 307 308 310 311 310 310 311 312 312 312 313 313 314 318 318

GFSGBSN_850_thetae_072.txt.gz
Theta_e
303 304 305 306 306 307 307 307 306 305 303 302 301 301 301 302 302 302 301 300 302 301 301 300 299 300 299 305 304 307 314 316 316 316 316 315 312 314 313 311 312 311 312 314 316 316 315
304 303 303 302 302 303 304 305 306 305 306 306 305 303 301 301 301 302 300 300 300 300 301 301 300 299 300 308 305 306 307 310 311 311 316 315 311 313 314 312 311 312 313 314 315 315 315
303 304 302 303 303 303 303 302 303 304 304 306 306 306 305 301 302 301 301 302 301 300 299 301 301 299 301 301 304 303 305 308 315 310 314 315 312 313 313 313 314 314 314 311 312 313 314
303 303 303 302 302 302 303 302 303 302 300 301 303 305 306 306 304 303 301 301 307 300 299 300 301 300 307 303 303 305 304 305 313 311 315 314 315 314 313 314 313 314 313 312 312 315 316
302 302 301 302 302 302 303 303 303 303 301 300 299 300 304 306 305 303 301 300 300 300 300 300 301 301 304 303 305 308 309 312 306 315 315 315 317 315 313 312 312 311 311 312 312 313 316
302 302 301 303 303 300 299 302 303 302 303 303 302 300 298 303 305 304 301 299 300 302 305 301 307 305 303 303 305 314 314 314 313 309 314 315 316 311 310 310 312 312 314 312 313 314 314
300 301 301 301 301 301 299 299 301 302 303 304 303 304 303 299 298 301 301 300 302 306 307 306 308 303 304 310 311 313 315 314 312 313 313 314 314 314 311 311 311 311 313 314 312 312 315
300 300 300 300 301 301 300 301 301 301 302 302 303 304 304 304 302 297 301 302 304 305 305 305 305 308 305 308 312 307 309 314 311 312 312 311 314 314 312 311 313 313 314 313 312 313 313
299 299 299 299 300 301 299 300 301 300 301 302 303 304 303 303 303 299 297 303 306 304 307 307 306 305 305 307 309 308 309 313 312 312 312 314 315 314 312 312 313 313 313 313 314 312 314
298 298 298 298 299 298 298 300 300 300 301 302 303 303 303 303 302 299 303 306 307 304 307 305 308 306 304 305 310 306 308 309 312 313 313 313 314 314 313 313 312 313 312 313 313 315 316
298 298 297 298 298 298 299 299 299 299 300 301 303 303 303 302 302 299 305 306 303 308 297 303 308 306 307 306 307 310 307 310 310 312 313 313 314 314 315 314 313 313 313 313 314 315 316
297 297 297 298 297 298 298 299 299 300 300 300 302 304 303 303 302 302 301 296 304 310 305 304 309 310 310 309 308 311 311 311 311 312 312 312 314 313 315 315 313 315 316 316 316 315 317
297 297 297 297 297 297 296 297 299 299 300 301 302 304 304 303 302 302 299 302 310 309 306 304 308 310 310 310 309 310 310 310 309 311 313 312 314 315 315 315 314 315 315 317 318 318 320
297 296 297 297 297 296 296 296 298 299 300 302 302 303 304 303 302 302 301 305 310 307 307 306 306 307 309 309 309 309 308 308 309 312 309 313 314 314 315 316 316 315 315 317 321 320 318
296 296 296 296 297 297 296 295 298 300 300 302 302 303 304 304 302 302 300 305 306 307 308 308 307 306 309 310 313 310 309 307 307 310 314 314 313 312 314 315 316 315 315 315 316 318 320
295 296 296 296 296 296 296 296 296 299 301 302 302 303 304 304 303 302 299 302 306 307 307 307 307 308 308 308 310 312 313 314 311 309 312 314 316 315 315 314 314 315 314 318 316 320 322
295 295 296 296 296 295 295 295 296 298 301 303 303 304 304 304 303 301 301 299 303 304 305 307 308 307 308 307 307 309 312 313 315 316 310 312 314 315 316 315 315 315 316 316 316 316 319
293 294 295 295 294 295 295 294 296 298 300 302 303 304 303 303 302 301 301 299 302 303 305 305 306 306 307 307 307 309 311 313 313 314 315 313 312 313 313 314 314 314 315 315 317 318 318
293 294 295 295 294 295 295 293 296 297 299 301 302 301 303 304 304 302 300 300 301 303 304 304 305 305 305 305 305 306 309 310 308 314 318 317 316 314 315 314 314 314 314 315 316 315 318
293 294 295 294 293 295 295 294 297 297 298 300 299 301 300 303 302 302 302 300 300 301 303 303 304 304 305 305 305 305 306 307 306 308 316 316 318 319 318 317 318 317 315 314 316 316 316
293 293 292 292 293 294 295 294 296 298 298 299 298 300 302 302 303 302 302 301 300 302 302 303 303 303 304 304 305 304 305 306 307 310 315 317 317 319 319 319 318 318 318 316 314 315 316
294 294 294 295 295 294 294 294 295 297 298 299 298 300 302 301 303 303 302 302 301 300 302 302 302 304 303 303 304 305 304 303 305 309 315 316 315 316 317 317 317 317 317 315 314 314 314
297 297 296 296 295 295 296 296 297 298 298 300 299 300 303 303 303 304 303 302 301 302 302 303 304 304 304 303 303 304 304 304 304 305 305 313 315 315 315 317 316 314 316 315 315 314 315
297 298 298 297 297 296 296 296 298 298 298 300 299 300 302 304 303 304 303 303 303 302 303 304 302 304 304 304 304 304 304 304 304 305 306 312 314 313 313 314 317 312 314 313 315 315 314
298 298 298 298 298 297 298 299 297 298 298 299 299 300 301 303 303 303 304 303 302 303 303 303 303 303 303 304 304 305 305 308 307 307 308 313 311 312 310 314 313 312 311 316 313 313 312
299 298 298 297 298 298 298 298 298 298 299 299 299 301 302 303 304 303 303 303 303 302 302 302 303 303 303 304 305 309 305 307 309 313 310 310 310 310 313 314 313 309 312 313 314 312 314
300 299 299 298 297 298 299 298 299 299 299 299 300 300 301 302 303 303 303 304 303 303 302 302 302 303 304 303 306 307 307 305 307 313 312 313 311 314 314 314 312 310 314 315 317 312 313
300 302 300 299 298 298 297 298 299 299 300 299 300 300 300 300 302 303 303 304 303 302 303 302 304 303 302 303 304 305 303 304 305 308 310 310 311 314 313 314 314 311 316 319 315 312 312
300 300 301 299 299 299 298 297 297 300 300 299 298 299 300 300 300 302 303 303 304 304 303 303 304 303 302 301 300 301 301 299 305 307 308 308 307 309 309 310 309 311 312 313 312 312 312

GFSGBSN_850_thetae_075.txt.gz
Theta_e
303 303 302 303 303 304 304 304 305 305 305 305 306 305 304 303 301 301 301 303 303 302 301 300 300 301 300 301 302 305 311 317 318 314 315 314 314 314 315 312 311 313 314 312 313 314 314
303 303 303 302 303 302 301 301 302 302 304 304 304 305 305 305 304 302 301 301 302 303 303 300 300 300 301 303 304 305 306 308 316 315 315 315 312 312 313 313 313 313 312 313 314 314 313
302 303 303 303 303 303 303 303 302 303 303 302 300 301 302 304 305 305 303 301 300 300 301 301 300 300 301 301 303 303 303 304 308 310 310 314 313 311 313 314 313 313 315 314 314 314 315
301 301 302 302 302 302 302 302 303 303 303 301 300 299 299 300 302 303 304 301 300 299 300 301 300 302 302 303 303 303 303 303 305 314 311 312 313 312 313 313 313 315 313 315 313 315 316
302 301 301 301 301 302 302 301 302 303 303 302 303 302 302 298 297 299 301 298 298 300 300 301 302 302 302 303 303 307 307 304 304 305 313 314 314 315 313 315 315 313 314 313 314 313 318
301 301 300 301 301 301 301 301 301 301 301 303 304 303 303 303 303 301 297 296 300 304 304 303 307 304 304 304 305 314 314 314 312 305 313 313 314 316 313 315 316 315 315 314 315 316 316
300 300 300 300 300 300 301 302 300 301 301 301 302 303 303 304 304 303 303 297 301 304 304 307 308 303 304 306 309 313 314 314 311 309 315 315 316 318 317 315 313 313 314 314 314 314 315
300 300 300 299 299 299 300 301 300 301 301 301 302 302 303 303 303 303 302 302 304 303 305 304 304 306 305 309 309 313 312 311 312 311 313 314 317 317 314 314 315 314 315 315 315 314 314
298 299 298 299 299 299 300 301 299 300 300 299 300 301 303 303 303 302 299 299 305 302 306 306 306 305 304 305 307 306 308 313 312 312 313 316 316 314 315 314 315 315 316 316 314 314 315
297 298 298 298 298 298 299 298 299 300 299 299 301 302 303 303 302 300 304 305 306 301 306 304 307 307 306 306 307 305 306 308 313 313 313 314 314 314 315 315 315 316 314 315 315 315 314
297 297 298 298 297 297 298 298 298 299 299 300 300 301 303 303 303 303 302 302 300 305 301 303 308 306 306 304 306 309 307 308 308 313 314 314 314 315 314 315 313 315 314 315 315 315 315
297 297 297 297 297 297 297 297 298 298 298 299 300 300 303 303 303 303 302 302 299 309 306 304 309 310 308 308 308 311 309 309 308 312 312 313 313 314 314 314 314 315 316 316 317 317 320
296 295 296 297 296 297 297 297 297 295 298 299 300 301 302 303 303 303 302 300 306 308 306 306 306 310 310 310 309 310 311 309 310 309 312 313 314 314 315 315 314 315 317 318 321 321 320
296 296 295 297 297 297 296 297 297 295 297 299 300 302 302 303 304 303 302 304 306 306 307 307 308 307 309 310 309 310 310 309 309 311 309 312 314 315 315 317 317 316 317 320 319 323 321
295 295 295 297 297 296 296 297 297 295 297 299 300 301 302 303 304 303 301 301 305 306 307 308 307 309 309 309 311 310 309 309 309 310 312 312 311 312 315 316 317 317 318 318 318 319 322
295 295 295 295 296 295 296 296 296 295 296 298 300 301 302 302 304 302 300 300 304 307 306 307 308 308 308 308 309 312 313 314 315 310 312 314 315 314 314 315 316 317 317 319 318 320 321
294 294 294 294 295 296 296 296 295 295 296 298 300 302 302 302 304 301 302 301 300 300 302 306 307 307 307 307 307 310 312 313 313 315 311 313 315 315 316 316 316 316 317 317 318 319 320
294 294 293 294 294 295 296 295 295 295 296 298 299 302 302 302 303 300 302 301 300 301 303 305 306 306 307 307 306 307 311 311 306 312 316 315 312 314 313 313 314 315 317 318 320 319 320
293 293 293 293 293 294 295 295 294 295 295 298 300 301 302 303 304 303 302 301 300 301 304 304 305 305 305 306 306 306 307 309 306 307 307 315 317 316 315 315 316 316 315 316 317 316 319
292 292 293 293 293 293 295 295 293 295 294 297 300 300 300 303 303 304 303 301 300 300 301 304 304 304 305 306 305 306 306 306 305 306 307 315 317 319 318 318 318 320 319 319 317 319 318
294 293 293 293 293 294 295 295 293 295 294 297 299 299 301 302 302 303 303 302 301 301 301 302 303 304 304 305 305 305 305 305 305 306 312 314 314 314 314 313 314 316 317 317 318 318 317
296 296 295 294 294 293 293 292 292 294 294 297 298 299 300 300 302 303 303 303 302 301 302 301 303 303 304 304 304 304 305 304 304 306 307 307 316 317 316 315 314 316 316 314 317 317 316
298 297 297 297 296 296 295 294 293 294 294 297 298 298 301 303 303 304 303 303 302 301 301 302 303 302 303 304 303 304 303 304 304 305 305 307 315 316 316 317 317 315 313 316 315 316 316
298 298 298 298 297 298 297 296 295 294 294 295 298 298 300 301 303 304 304 303 303 302 302 302 302 304 304 304 304 304 303 303 304 304 305 306 308 314 314 314 316 312 314 315 314 315 315
299 298 298 299 298 298 298 298 297 296 295 295 297 299 300 301 303 303 303 303 302 302 302 302 303 302 302 303 305 306 305 308 307 305 306 306 308 315 316 315 313 312 311 312 315 314 316
299 300 300 300 299 298 298 298 298 297 296 296 297 298 300 302 302 303 303 303 303 303 303 302 302 303 303 304 305 307 308 307 308 310 307 308 310 313 312 315 315 311 312 315 313 315 315
300 300 300 300 301 299 298 298 298 298 297 297 298 298 300 300 301 303 303 304 302 302 303 302 302 302 302 305 305 306 306 306 307 312 309 309 312 312 312 313 314 312 312 316 315 315 314
300 300 301 300 300 300 299 298 299 298 298 298 298 299 300 300 302 302 303 304 303 302 303 302 303 302 304 305 306 306 306 307 306 308 312 311 311 312 312 313 313 310 315 315 314 314 312
300 300 300 300 300 301 299 298 299 299 298 298 299 299 300 300 301 302 303 303 303 303 303 302 304 303 303 304 304 304 305 304 307 308 308 312 312 314 313 313 310 311 311 309 310 312 312

GFSGBSN_850_thetae_078.txt.gz
Theta_e
303 303 303 303 303 303 302 302 302 303 303 303 304 303 303 304 304 304 303 302 301 301 301 303 304 301 302 307 304 305 305 308 314 314 313 314 314 314 317 317 317 317 317 317 317 317 316
303 303 303 303 303 303 303 304 303 302 302 302 301 300 299 299 300 301 303 303 302 301 300 300 302 303 306 308 304 304 305 305 317 314 314 315 316 316 315 316 317 317 317 317 316 316 317
302 302 302 302 303 302 302 302 302 303 303 303 302 300 299 298 298 298 298 299 299 299 299 299 300 302 307 307 306 304 303 304 304 313 315 315 315 313 314 316 316 316 317 317 317 316 317
302 302 302 301 301 302 302 302 301 302 303 303 302 303 303 302 302 300 298 297 297 297 298 300 300 304 307 308 310 307 304 304 304 306 311 312 313 314 315 315 316 317 317 319 318 317 316
301 302 302 301 301 301 301 301 301 301 301 302 302 303 304 303 303 303 303 301 299 298 300 302 302 306 307 307 304 307 304 304 305 305 312 313 313 313 315 316 318 318 319 320 319 317 319
300 301 301 301 300 300 300 300 301 301 301 301 301 302 302 302 303 303 302 302 299 302 306 305 308 307 306 307 304 310 314 310 308 307 310 314 315 317 317 317 319 320 320 320 319 318 318
301 300 299 300 300 300 299 300 300 301 301 301 301 301 302 302 303 302 303 304 304 306 305 307 310 308 308 307 307 310 313 313 311 308 312 314 317 318 318 318 318 319 319 320 319 317 317
298 300 300 300 300 300 299 299 300 300 300 301 301 300 301 303 302 302 302 304 304 302 305 305 305 305 307 309 309 310 313 315 314 312 313 317 317 316 317 319 318 319 318 319 318 318 317
298 298 298 298 299 299 298 299 299 299 300 301 300 300 301 303 302 302 304 302 304 300 306 306 307 307 307 305 307 310 312 311 315 315 313 317 317 316 317 318 318 319 319 319 318 318 317
298 297 298 298 298 298 298 298 299 298 299 299 299 299 301 303 304 303 305 305 305 300 309 307 308 308 308 306 307 306 309 311 313 314 315 315 315 316 317 317 318 318 318 318 318 318 319
297 297 297 298 298 298 298 297 298 298 298 299 299 300 300 303 304 305 303 302 303 306 307 305 308 307 307 307 306 309 306 307 308 312 314 315 315 315 316 317 316 318 317 317 318 319 319
296 296 297 297 297 298 297 297 297 297 298 298 298 300 300 303 303 304 303 302 303 311 306 305 309 311 309 308 307 311 307 307 308 308 313 315 315 315 315 316 317 317 317 317 318 319 321
295 296 295 296 296 298 297 297 297 297 297 296 298 299 300 302 303 303 302 302 309 307 307 307 308 308 309 310 310 310 310 308 309 308 310 313 314 315 315 315 315 316 318 322 323 323 322
295 295 296 297 295 296 298 297 297 297 297 295 298 299 301 302 302 303 303 304 307 305 307 308 309 309 309 310 311 310 312 311 309 310 312 311 314 314 315 316 316 317 320 322 322 325 324
293 295 294 295 296 295 298 298 296 297 297 295 298 299 300 302 302 303 303 306 305 305 307 309 309 309 310 310 311 311 312 312 310 310 310 310 311 314 314 315 317 318 319 318 320 321 322
294 293 296 294 295 294 296 296 296 297 296 295 298 300 301 302 302 303 304 304 304 307 307 308 310 309 310 310 311 313 314 313 315 314 311 314 313 312 314 316 317 319 319 321 321 323 324
292 292 294 294 294 295 295 296 296 296 296 295 298 301 302 301 302 302 305 305 304 303 304 307 309 309 309 309 309 312 315 310 309 313 313 312 316 317 315 316 317 318 319 320 320 321 323
293 293 293 293 295 293 294 294 297 296 295 295 298 301 301 302 304 301 305 304 302 304 303 305 307 308 309 308 308 308 313 310 307 310 314 315 315 317 317 316 316 317 318 319 321 321 321
292 293 293 292 293 293 293 294 295 296 295 297 299 300 300 303 304 303 304 304 303 304 304 305 306 307 307 308 308 308 308 308 307 308 310 314 315 314 314 315 316 317 318 318 319 319 321
293 293 292 292 292 293 293 293 294 296 294 295 298 302 300 302 302 305 304 305 304 302 303 303 305 306 307 307 307 308 308 307 306 306 308 311 319 319 316 318 318 320 319 319 321 321 320
295 295 294 293 293 293 293 294 294 296 294 295 297 300 301 303 302 304 304 304 305 304 302 303 304 305 306 307 307 307 307 306 306 306 310 313 314 315 317 317 315 317 317 318 318 320 322
296 297 297 297 296 294 293 293 293 295 294 295 297 299 300 301 302 303 304 306 305 305 304 304 304 305 305 306 306 306 306 306 306 307 308 310 311 312 312 313 313 313 314 316 317 317 318
297 297 298 298 297 297 296 294 293 294 294 295 296 297 299 300 303 304 305 306 305 305 304 303 304 304 305 305 305 305 305 306 306 307 307 308 314 315 314 314 313 315 315 315 316 319 320
297 297 298 298 298 298 297 297 295 294 293 295 296 297 298 300 302 303 303 305 305 305 304 303 303 304 305 304 305 305 306 306 307 307 307 308 311 314 314 316 315 314 314 316 318 316 317
298 298 298 298 299 299 298 298 297 295 294 293 296 297 298 300 300 300 301 304 304 304 304 303 303 303 304 305 306 307 308 308 309 309 309 308 310 313 315 313 312 312 312 314 315 314 318
298 299 300 300 300 299 299 299 298 298 295 294 295 296 298 300 301 300 302 304 305 305 305 303 302 304 304 306 306 308 309 308 309 310 309 308 309 312 314 312 313 313 314 315 314 314 315
300 300 300 300 300 299 300 299 299 298 298 295 295 295 297 298 299 300 302 303 304 304 305 304 304 304 303 307 308 308 308 307 309 310 309 309 310 311 312 314 314 313 312 315 315 315 313
300 300 300 300 300 300 300 300 299 299 298 297 297 295 296 298 299 301 302 303 303 304 305 304 304 304 304 306 307 308 308 308 308 309 310 310 311 312 311 312 313 313 313 314 313 312 313
300 299 299 299 300 300 300 300 299 299 298 298 297 297 296 298 300 301 302 302 303 303 303 303 304 305 305 306 307 307 308 308 307 309 308 311 310 312 312 312 313 313 312 312 313 313 313

GFSGBSN_850_thetae_081.txt.gz
Theta_e
303 302 302 302 303 302 304 304 304 303 302 302 302 301 300 299 298 298 298 299 299 300 300 301 301 302 305 310 310 309 307 308 306 311 315 316 318 318 320 319 319 320 320 319 319 319 318
303 303 303 303 304 304 304 303 303 303 304 303 304 302 299 299 299 298 298 297 297 297 298 299 299 300 307 313 311 307 309 310 314 318 316 317 318 317 318 319 320 319 319 320 319 319 318
303 304 304 303 302 302 302 302 302 302 302 303 304 304 303 303 301 301 301 300 299 298 298 298 298 299 307 310 311 310 309 307 311 317 317 316 317 317 318 320 318 318 319 320 320 319 320
301 301 303 303 303 302 301 302 301 301 301 301 302 302 302 303 303 302 302 300 300 300 299 298 300 304 308 309 310 311 310 309 307 307 311 317 317 317 317 317 318 319 319 320 321 321 320
302 301 302 303 303 302 301 301 301 300 301 301 301 301 302 301 302 302 302 300 300 300 299 300 305 308 309 308 309 308 309 309 309 307 307 312 315 317 317 319 319 320 320 322 322 321 320
301 301 301 301 301 301 301 300 300 300 301 301 301 302 301 301 302 302 301 299 303 302 309 309 310 310 310 307 308 308 311 311 308 308 308 312 313 318 319 319 319 319 320 322 322 323 320
299 300 300 302 301 301 301 300 299 300 300 300 301 302 301 300 301 302 302 306 307 310 309 308 310 311 309 311 310 311 314 313 310 310 309 311 313 315 316 318 318 320 322 323 323 322 321
298 299 299 299 300 301 300 300 299 300 300 299 301 301 300 299 302 302 306 306 306 304 306 306 306 306 306 308 309 311 314 314 315 313 312 312 315 316 316 318 319 320 321 322 322 322 320
297 299 299 299 298 299 299 299 299 299 299 299 300 300 299 301 302 304 306 305 305 306 308 307 308 308 309 308 307 309 313 314 314 317 315 313 316 317 317 317 319 320 321 322 322 322 320
296 297 299 298 298 298 299 299 299 298 299 298 300 299 299 300 304 306 306 306 306 306 310 312 309 310 310 308 309 307 309 314 313 314 316 316 316 319 318 318 319 321 321 321 321 321 322
297 298 298 297 298 298 298 299 298 297 298 298 298 299 300 300 305 305 306 306 306 307 312 307 310 309 309 309 308 309 308 313 314 314 315 318 317 317 318 318 318 320 320 321 321 321 322
297 296 296 296 296 297 298 298 298 297 297 298 298 298 299 302 303 306 306 306 306 313 312 308 310 311 312 311 311 311 308 309 312 312 312 313 316 317 317 317 317 318 318 319 320 321 322
295 295 295 296 296 296 296 297 298 297 298 297 297 297 298 303 305 305 306 306 311 309 308 309 310 310 310 312 313 310 311 310 308 310 312 313 312 316 317 316 317 318 319 322 323 324 324
294 294 295 295 295 297 296 296 298 298 297 297 297 296 299 302 304 304 305 308 309 307 308 310 310 310 311 313 314 313 314 310 308 311 313 315 315 314 316 316 317 318 319 321 324 328 326
294 294 295 294 295 296 296 296 296 298 297 297 297 297 301 303 304 304 305 309 306 307 308 309 310 310 311 313 313 313 314 314 313 310 313 316 314 313 315 315 316 318 319 319 322 324 325
294 294 294 294 294 296 295 295 296 297 296 297 298 300 301 303 303 304 305 307 306 307 308 308 309 310 311 312 314 314 314 314 313 313 312 312 315 313 314 316 317 317 318 319 320 325 326
293 293 293 293 293 295 295 295 295 297 296 297 298 300 301 303 304 303 304 306 306 305 307 308 309 310 310 311 311 314 316 313 311 312 315 311 312 318 313 316 318 317 318 321 323 323 326
293 293 293 293 293 293 294 295 295 296 297 296 298 301 303 303 304 303 305 305 306 305 305 307 309 310 310 310 310 311 316 310 309 311 315 313 315 316 317 315 316 318 318 320 323 324 324
294 294 293 293 293 293 293 295 294 295 297 298 298 299 302 303 305 306 305 305 305 306 306 306 307 308 309 309 309 309 311 310 309 309 311 311 315 315 319 317 316 317 318 319 321 321 324
294 294 294 293 293 293 293 293 293 293 295 297 298 302 301 303 303 305 304 305 305 305 306 305 306 307 308 309 309 309 309 309 308 308 307 311 316 318 319 318 318 318 319 319 319 322 321
295 295 295 295 294 293 293 292 293 294 295 296 297 300 302 303 304 304 305 306 305 306 305 305 306 306 307 308 308 309 309 309 307 307 308 312 315 317 318 319 317 319 320 320 320 321 322
297 297 296 297 296 296 294 293 293 294 294 296 297 299 300 301 302 303 304 304 306 305 306 305 306 306 307 308 308 309 309 309 309 308 309 310 311 313 314 314 316 316 316 317 317 318 318
297 297 298 298 298 297 297 295 293 293 294 297 297 298 299 301 302 304 305 304 305 306 305 305 306 307 307 307 307 307 307 307 308 308 309 310 312 311 315 314 316 317 316 316 316 316 317
297 297 297 297 297 298 298 297 296 293 293 296 297 297 299 301 302 302 303 305 305 306 308 306 305 306 306 306 306 306 307 307 307 309 309 310 310 313 315 315 316 315 315 316 317 317 318
297 298 298 298 298 298 299 299 298 296 293 294 297 297 298 301 301 302 302 304 304 304 306 306 305 305 305 306 308 308 309 309 309 309 309 310 311 312 313 313 312 312 313 313 314 316 318
297 298 298 298 299 299 299 299 299 298 295 294 296 297 298 300 301 299 301 302 303 305 307 306 305 305 305 307 308 309 310 310 311 310 310 310 310 312 313 313 312 312 314 314 315 315 317
298 299 300 300 299 300 301 300 299 299 298 295 296 296 297 299 299 299 301 301 302 304 307 306 305 305 304 308 308 309 311 310 311 312 311 311 312 312 313 313 313 315 314 314 316 316 314
300 300 300 300 300 300 300 300 300 299 298 298 295 296 296 298 299 299 300 302 301 304 307 306 306 305 304 309 308 309 310 310 309 310 312 312 313 313 312 314 314 312 313 315 315 314 314
299 300 300 300 300 300 300 300 300 300 299 298 297 296 296 297 299 299 299 301 302 303 303 305 305 305 305 307 308 308 310 310 310 310 312 313 311 312 311 312 314 315 313 314 313 313 314

GFSGBSN_850_thetae_084.txt.gz
Theta_e
304 303 303 303 303 304 304 304 304 304 303 304 304 303 302 299 299 299 298 299 298 298 298 298 298 298 300 309 312 313 312 310 310 309 317 314 317 318 320 320 319 320 320 320 320 320 320
304 304 304 304 304 303 303 303 303 302 303 302 303 305 304 302 302 301 301 299 299 299 299 299 298 298 303 307 309 313 312 309 310 315 317 317 317 318 319 320 320 319 320 320 320 320 320
303 303 303 303 304 303 303 302 301 302 301 301 302 303 303 302 302 302 301 300 299 299 299 299 299 298 307 305 307 312 311 310 309 311 317 318 318 318 319 320 319 319 320 320 321 320 321
303 303 302 301 302 304 303 302 301 302 301 300 302 301 301 301 301 300 299 299 298 298 299 300 299 304 308 305 308 310 312 312 312 309 312 316 317 318 318 319 320 320 320 320 320 320 321
300 302 303 302 301 302 303 302 301 300 301 300 301 301 302 302 300 299 299 298 298 301 301 301 303 309 309 309 310 311 310 311 313 311 309 308 310 317 319 320 320 319 320 320 320 321 322
301 299 301 302 302 302 301 301 301 301 300 301 300 301 301 302 300 299 299 299 304 306 309 310 311 311 312 310 310 309 311 311 311 311 310 308 310 313 318 319 322 320 320 320 321 322 323
300 300 299 300 301 300 302 302 302 301 300 300 300 300 301 301 299 299 304 308 310 310 312 312 312 312 311 311 311 312 313 315 313 311 312 311 311 313 314 320 320 320 320 320 321 322 323
298 299 298 297 299 299 299 300 301 300 300 299 300 300 301 300 299 301 307 309 307 306 307 307 306 306 307 307 307 308 311 315 314 314 314 315 312 313 313 315 318 320 319 320 322 322 322
297 298 297 297 300 299 299 299 299 299 299 299 299 299 300 299 300 305 308 307 307 307 308 308 309 309 310 310 309 308 308 314 316 317 318 317 316 313 313 315 315 317 320 320 321 322 323
298 298 296 297 298 299 299 299 299 300 299 298 298 298 299 299 303 306 307 307 307 307 310 313 311 311 310 310 310 310 309 312 315 315 317 318 316 314 315 317 318 318 319 320 321 322 324
296 296 297 298 297 297 297 298 299 300 298 298 298 298 298 299 301 305 307 306 307 307 315 312 310 311 311 311 311 310 309 310 314 315 315 318 316 318 317 318 319 320 319 320 321 322 323
296 296 296 297 296 295 296 296 298 298 298 297 297 298 298 299 303 304 306 306 307 311 314 309 312 312 312 312 313 311 309 310 313 314 314 315 313 313 318 318 319 319 321 320 321 322 324
295 295 295 295 295 296 296 297 296 297 298 298 298 297 297 300 303 306 306 307 312 312 309 310 311 311 310 310 312 312 311 309 312 313 314 313 314 313 313 319 318 318 320 323 324 324 325
295 294 294 294 294 295 295 296 297 297 297 298 297 297 297 298 300 304 306 308 310 309 311 310 310 310 310 312 314 314 312 313 310 310 310 315 317 315 314 315 319 318 319 324 327 328 325
294 294 294 294 295 295 295 296 297 297 297 298 297 298 299 297 302 304 306 308 308 309 309 309 309 309 309 313 313 314 314 315 312 310 310 314 318 314 315 314 317 319 320 318 321 321 327
293 294 293 294 294 294 294 294 296 296 296 298 298 299 300 300 302 304 307 306 308 308 308 309 308 309 310 312 312 314 315 315 315 312 311 311 314 314 316 314 315 318 319 321 321 326 332
293 293 293 294 293 293 293 294 296 296 296 297 298 299 299 300 303 305 308 306 306 306 307 308 308 309 310 311 311 312 317 313 311 312 314 311 313 312 313 316 318 317 320 321 322 323 332
294 294 294 293 293 294 294 293 295 296 296 297 299 300 302 301 305 304 306 305 304 306 306 306 307 308 310 311 311 312 317 312 310 310 314 315 315 313 313 316 316 319 319 319 325 329 325
295 295 295 294 294 293 294 294 293 295 296 297 299 299 299 304 305 305 304 305 305 306 307 306 306 307 308 310 309 311 311 312 310 309 309 310 314 314 315 315 316 316 318 319 320 322 327
295 295 296 295 294 294 293 294 294 294 295 295 299 301 299 302 304 305 305 305 305 304 305 306 306 307 307 308 309 310 310 310 309 309 307 309 313 316 320 320 320 317 317 320 321 323 324
296 297 296 296 296 295 294 293 293 293 294 295 298 300 302 304 304 304 305 306 306 305 306 305 306 306 306 307 308 308 309 309 309 307 308 310 314 313 314 318 318 320 320 320 319 321 323
296 296 297 298 297 296 296 294 293 293 293 295 297 298 299 301 303 303 304 305 305 306 306 306 306 306 306 306 306 307 309 310 311 310 309 309 311 312 312 315 315 315 318 316 320 321 321
296 297 297 297 298 297 297 296 295 293 293 295 297 298 299 301 302 303 305 304 304 305 306 306 307 305 306 307 308 308 308 309 309 309 309 310 310 312 313 313 315 318 317 316 316 316 317
296 297 297 297 297 298 298 298 297 294 293 296 296 298 299 300 301 303 303 304 304 305 305 306 306 308 307 307 308 308 308 308 308 308 308 309 310 311 314 313 318 316 316 316 317 316 316
297 297 297 297 298 298 298 298 298 296 293 295 296 298 298 300 300 300 301 303 303 305 306 306 306 307 307 307 308 308 308 309 309 308 309 310 310 313 314 313 312 312 313 313 313 314 318
296 297 298 298 298 298 299 299 298 298 296 293 295 296 299 299 300 300 301 301 303 305 305 306 306 307 306 307 308 308 309 309 311 310 310 310 312 312 314 313 312 311 312 314 314 314 317
298 299 299 299 299 299 299 299 299 299 298 296 295 296 297 299 299 300 301 301 302 303 305 305 307 306 305 308 309 308 309 309 311 312 311 311 312 313 313 314 313 312 314 314 315 318 315
299 299 300 300 300 299 300 299 300 299 299 297 296 296 296 298 298 299 300 301 302 302 305 306 304 306 305 307 309 308 310 311 311 311 312 312 313 313 312 313 314 313 313 315 316 314 314
300 300 299 299 300 300 300 300 300 300 300 299 298 296 297 297 298 299 299 300 301 302 303 303 304 305 305 307 307 308 311 312 311 310 312 312 311 312 311 311 312 315 315 314 314 314 313

GFSGBSN_850_thetae_087.txt.gz
Theta_e
304 304 304 304 304 304 303 303 303 303 302 302 302 303 304 305 303 301 300 300 300 300 299 299 299 299 299 305 307 309 311 312 312 311 311 317 313 312 314 316 317 316 316 318 318 319 319
303 304 304 303 303 304 304 303 302 302 301 302 301 301 302 303 302 300 299 299 299 299 299 299 299 300 299 305 306 312 310 312 311 310 312 316 316 315 317 317 317 318 318 318 318 318 319
303 302 303 303 302 302 303 304 303 302 302 301 301 301 302 300 300 299 298 298 297 298 298 299 300 301 301 301 304 304 308 312 308 309 309 312 318 317 317 316 318 319 317 317 317 318 317
301 300 301 303 303 302 302 303 303 302 302 301 300 300 301 301 301 301 297 297 297 298 298 301 301 302 305 302 308 307 308 311 312 312 311 310 311 311 314 318 318 318 317 317 318 317 318
300 302 301 299 301 302 302 302 301 301 301 301 300 301 300 301 301 299 297 297 298 300 302 304 303 304 309 309 310 310 309 309 311 312 313 311 309 308 311 317 317 317 317 316 317 317 317
300 299 300 300 299 300 301 301 302 302 302 301 300 300 300 300 300 297 298 305 307 305 307 309 309 310 310 309 311 311 310 311 311 312 312 310 308 307 310 315 319 318 318 315 316 317 318
301 300 298 298 298 298 300 300 300 301 302 301 300 299 299 299 300 298 303 308 308 309 309 312 312 310 311 312 310 309 311 314 314 311 310 310 305 306 310 313 317 318 319 319 317 318 319
299 299 298 298 298 297 299 300 299 299 300 300 299 299 299 299 299 299 303 308 307 306 306 305 305 309 310 310 307 307 309 310 312 311 310 310 309 308 310 312 314 315 318 319 319 319 319
298 298 298 298 298 297 298 300 299 299 299 300 299 299 298 298 299 303 307 308 307 307 306 306 307 308 308 309 308 308 307 307 312 314 314 314 315 315 314 313 313 314 314 314 318 318 319
297 297 297 297 296 297 298 299 298 299 299 300 299 298 298 297 297 306 307 307 307 307 307 310 310 309 309 309 310 310 309 307 312 314 316 317 316 317 316 315 313 314 315 317 320 321 323
296 296 296 296 296 297 297 297 296 297 298 299 299 298 297 298 298 301 305 305 306 307 311 314 310 310 311 310 311 309 310 308 310 315 314 316 317 317 318 316 314 315 317 319 320 322 322
295 295 296 296 296 296 295 296 296 296 297 298 299 298 298 297 300 302 305 305 307 310 312 308 311 311 311 311 312 310 309 309 311 312 313 314 313 314 316 316 315 316 319 321 320 322 326
295 295 295 295 295 295 294 295 296 296 297 297 298 298 298 297 298 305 306 306 308 311 311 309 311 311 311 310 312 311 308 308 310 313 312 311 312 313 313 314 315 319 321 326 325 326 324
294 294 294 294 294 294 295 294 296 296 297 297 297 298 298 297 296 298 303 307 310 311 311 311 310 310 310 310 311 311 308 307 308 311 308 311 315 312 314 314 318 319 321 325 325 326 326
294 293 294 295 294 294 294 295 295 295 297 297 297 298 298 296 295 300 303 306 308 308 309 309 309 308 308 310 312 314 311 311 309 308 308 312 315 314 314 315 314 319 320 318 321 321 326
294 294 294 293 294 294 293 293 294 294 296 296 296 298 298 299 298 301 305 306 305 307 307 308 308 308 308 312 312 315 316 313 313 310 308 309 312 313 314 314 316 317 318 322 321 324 328
294 294 294 294 293 293 293 294 293 293 295 296 297 299 298 298 300 301 305 305 306 305 306 307 308 308 309 310 311 311 317 313 310 310 310 310 311 313 312 315 316 316 319 320 320 323 330
293 294 294 295 295 294 293 293 294 294 296 296 297 297 298 301 301 303 305 305 305 305 304 306 306 307 308 309 310 311 315 312 309 309 309 310 314 313 312 313 314 316 317 320 325 323 325
294 294 295 295 295 295 294 293 294 294 295 296 298 298 298 301 300 304 304 305 305 306 305 306 306 306 307 307 309 310 313 311 310 309 308 307 315 317 315 314 314 315 318 319 319 320 325
294 294 295 296 296 296 295 294 293 294 294 295 296 296 299 300 300 303 303 304 304 304 305 305 305 306 306 306 308 309 310 311 309 308 308 309 312 315 318 319 315 319 318 318 321 323 321
294 295 296 296 297 297 296 295 294 293 294 295 296 298 299 294 302 302 303 306 307 305 305 305 305 305 306 306 307 307 308 309 311 308 308 309 312 313 313 313 316 316 318 318 320 320 323
295 295 296 296 297 297 297 296 295 293 294 295 296 297 299 300 300 303 303 303 304 304 305 306 306 306 305 305 306 306 309 310 310 310 309 309 311 311 311 312 313 317 317 317 317 320 322
295 296 296 296 297 297 298 297 296 294 293 295 295 295 297 299 299 301 301 304 304 304 304 304 306 306 308 307 308 308 308 308 309 309 309 309 310 311 313 312 312 316 317 318 318 318 318
295 295 296 297 297 297 298 298 298 296 294 293 295 295 298 295 298 300 301 302 303 304 304 304 305 306 307 307 308 308 307 308 308 308 308 308 309 311 310 309 315 316 315 316 315 317 317
295 295 296 296 297 297 298 298 298 298 296 294 293 296 298 294 298 299 300 301 301 303 304 305 305 306 306 305 306 307 306 307 307 307 307 307 308 308 311 313 312 311 312 313 312 318 318
295 296 296 297 297 298 298 298 298 298 298 296 293 295 297 298 297 299 299 300 301 302 303 304 305 305 305 303 305 306 306 308 308 309 307 307 308 309 309 313 311 311 313 314 315 318 316
296 297 298 299 299 299 299 298 298 299 298 297 296 294 297 297 298 298 300 300 301 302 303 303 304 304 304 303 302 304 306 307 309 311 310 308 308 309 309 311 312 312 313 314 316 316 314
297 298 299 299 299 299 299 299 299 299 299 299 296 295 295 297 297 298 299 299 301 301 300 304 302 303 303 303 304 304 303 307 309 310 311 309 309 309 309 310 311 313 314 316 315 313 312
299 299 299 299 299 299 299 300 300 300 299 299 297 296 295 296 297 297 298 297 298 300 301 302 303 302 304 303 304 304 305 307 309 312 311 310 309 309 309 309 311 312 313 312 311 310 310

GFSGBSN_850_thetae_090.txt.gz
Theta_e
302 303 303 304 303 303 304 304 304 303 302 302 302 302 301 301 301 301 300 299 298 298 298 299 299 299 299 301 303 305 309 308 311 312 313 312 314 310 311 312 315 314 315 316 316 316 316
302 302 303 303 304 303 302 302 304 304 303 302 301 301 301 301 301 300 298 298 297 297 298 298 299 299 302 303 304 309 310 311 311 312 312 315 317 314 312 314 313 316 316 316 316 316 316
302 302 301 300 301 303 303 302 301 303 302 302 301 301 300 301 301 300 299 298 297 297 297 298 299 301 305 301 303 302 302 304 310 310 310 309 310 314 315 315 317 317 316 316 316 316 314
299 298 301 301 301 299 301 302 302 302 301 301 301 301 300 301 300 300 299 297 296 297 298 300 302 304 304 301 302 306 308 306 309 310 311 311 311 309 310 315 317 317 316 316 317 315 315
300 301 300 299 299 299 299 300 301 301 301 302 302 301 300 300 300 299 299 296 298 304 304 303 305 304 305 303 307 309 309 309 310 311 311 312 312 309 308 314 316 315 316 316 316 316 315
299 301 300 300 299 299 298 297 300 300 299 301 302 300 300 299 299 299 298 302 308 308 304 306 306 308 307 307 310 309 310 311 312 311 311 312 310 305 307 313 317 316 316 315 314 316 315
298 299 299 299 298 298 298 298 298 300 299 299 299 299 299 299 298 298 299 306 306 307 307 310 309 309 307 311 311 310 309 310 314 311 309 309 304 304 306 309 314 315 316 316 316 317 317
297 298 298 298 298 298 299 297 299 299 300 299 299 299 299 298 298 297 301 307 307 306 306 306 304 307 311 311 308 310 309 307 313 310 309 309 307 306 307 309 311 313 314 316 317 317 318
296 297 297 297 297 298 297 297 298 299 298 298 298 299 299 298 297 298 306 305 307 307 305 305 305 305 305 305 308 308 306 306 306 310 309 309 312 311 310 310 310 312 313 314 315 317 317
297 297 296 296 296 296 296 297 297 296 296 297 297 299 299 298 297 299 304 304 306 306 304 306 308 308 308 308 307 308 309 307 307 310 314 314 315 317 317 317 315 314 313 314 315 320 320
296 295 295 295 296 296 296 296 296 296 296 296 296 298 299 297 297 297 301 304 305 306 305 310 310 309 309 309 310 309 310 308 307 314 314 315 317 316 317 318 315 315 313 314 316 320 320
294 295 295 295 295 295 296 295 295 295 296 297 297 297 298 298 297 297 302 304 305 308 308 312 310 309 310 310 311 309 309 308 308 313 313 312 313 313 314 314 316 315 315 318 318 321 322
294 294 295 294 294 294 293 293 294 294 295 296 297 297 297 298 298 297 300 304 307 309 309 311 310 311 311 312 311 308 308 308 309 311 312 311 311 312 314 315 314 317 319 323 323 324 320
294 295 295 294 294 295 294 294 295 295 295 295 297 297 297 298 298 297 299 306 306 308 310 310 310 311 311 310 311 308 307 306 308 309 307 309 310 311 312 313 315 315 319 325 323 324 322
294 294 294 294 294 293 294 294 293 294 294 295 297 297 296 297 298 297 299 306 305 307 307 306 308 308 308 309 310 310 308 308 307 308 309 309 313 313 313 314 313 316 319 318 321 322 323
294 294 293 294 294 294 293 292 293 293 293 295 296 296 296 297 298 298 301 305 304 305 306 306 308 309 309 311 314 315 315 312 310 308 307 308 310 310 314 314 314 315 317 322 321 323 326
293 293 293 293 294 295 295 293 292 294 293 295 296 297 297 298 298 299 302 304 304 304 305 305 306 307 307 308 310 314 316 313 309 308 309 309 309 311 311 314 317 317 319 317 320 322 325
294 294 294 294 295 295 295 295 294 293 294 295 296 296 299 299 298 301 300 305 304 305 305 305 306 306 307 307 308 310 315 313 309 308 308 307 311 310 310 310 315 316 318 318 324 322 323
293 294 294 295 295 296 296 295 294 293 294 295 296 297 297 299 297 299 303 304 304 305 304 305 305 306 305 306 306 311 312 310 309 308 307 307 311 314 314 314 315 316 316 316 319 319 323
292 293 294 294 296 296 297 296 295 293 294 294 295 295 298 298 299 300 301 303 304 304 304 304 305 305 305 306 306 307 311 311 309 308 308 308 309 313 316 315 315 316 314 316 318 322 319
293 294 294 295 296 296 296 297 295 294 294 294 295 292 297 300 300 298 300 304 305 304 305 306 305 305 305 305 305 305 307 308 309 309 307 308 310 312 312 311 315 316 316 316 318 319 323
292 293 294 295 296 296 297 297 296 294 293 294 295 295 297 298 299 300 302 303 304 303 304 305 306 306 306 307 306 305 308 308 309 309 308 307 308 309 310 311 311 311 316 316 317 318 320
293 293 294 295 296 296 297 298 297 295 294 294 294 295 295 296 298 298 301 302 302 304 304 304 304 305 306 307 306 306 307 307 308 308 308 308 309 309 311 310 308 312 315 317 315 317 316
293 293 295 295 296 296 298 298 298 297 295 293 294 294 295 293 296 298 299 300 300 301 303 304 304 306 306 306 305 305 307 307 307 307 307 307 307 308 309 309 308 311 311 314 317 318 316
293 294 295 295 295 296 297 297 298 298 297 295 294 294 297 291 296 297 298 299 299 300 302 303 304 305 305 305 305 306 305 305 306 306 306 306 306 305 308 310 310 308 310 313 315 318 317
293 294 294 296 296 296 297 297 298 298 298 297 295 293 296 297 295 297 298 298 298 298 300 303 304 305 305 303 304 307 306 306 307 307 306 306 305 306 306 310 309 310 312 312 315 318 316
293 294 296 297 297 298 299 298 298 298 298 298 296 296 294 296 295 296 298 299 300 300 299 300 303 303 304 300 302 305 305 306 306 309 310 307 305 307 307 308 310 311 313 314 315 316 312
293 295 296 297 298 298 299 299 299 298 298 298 298 297 295 295 295 296 297 298 300 300 301 301 299 302 302 303 303 303 301 305 307 307 308 309 309 308 306 310 310 311 314 315 312 310 310
295 296 298 298 298 299 299 299 299 299 299 299 298 297 297 295 296 296 296 297 297 298 298 300 301 301 302 304 302 302 301 300 306 308 310 311 309 308 307 307 310 309 308 308 308 308 307

GFSGBSN_850_thetae_093.txt.gz
Theta_e
300 302 302 302 302 303 304 303 302 302 304 303 303 302 301 301 300 300 299 298 297 297 297 297 298 298 300 300 301 304 309 310 310 311 312 309 311 310 308 310 313 313 314 315 315 316 315
301 302 302 301 299 300 301 301 303 302 302 302 301 301 301 301 300 301 300 299 298 297 297 297 297 299 303 303 302 305 303 304 306 311 312 315 315 313 310 310 311 314 315 315 316 316 315
301 298 298 301 301 300 299 299 301 301 301 302 302 302 301 301 300 300 300 300 298 296 296 296 298 301 305 301 302 303 305 307 307 307 311 313 313 314 314 313 314 315 315 314 313 315 313
298 301 301 300 300 299 298 298 298 299 300 300 299 302 302 301 300 299 299 299 296 296 297 299 301 304 305 300 300 301 302 303 303 305 310 310 311 311 308 310 314 316 315 316 315 314 315
300 300 301 300 300 299 298 298 298 297 299 299 299 300 300 299 299 299 298 297 296 304 305 306 305 305 304 302 302 306 309 309 307 309 311 311 312 311 308 309 313 314 315 315 316 314 315
300 299 299 299 298 298 298 298 299 298 298 300 299 299 299 299 299 299 298 297 305 308 306 305 306 306 304 306 310 309 310 310 309 310 310 311 311 304 306 311 314 315 315 314 315 315 315
300 299 299 299 299 298 298 298 298 298 299 299 299 298 298 299 299 299 297 304 306 306 306 308 308 307 307 310 311 309 307 309 310 311 309 308 306 305 304 309 313 315 314 315 314 315 317
296 295 295 296 296 297 297 297 297 297 297 298 297 297 297 298 299 298 297 305 304 304 305 306 306 306 307 309 309 310 309 308 312 310 308 308 305 305 305 306 309 311 312 312 314 315 315
295 296 297 296 296 297 297 296 296 296 297 297 296 296 297 298 299 298 298 302 303 305 305 305 305 306 306 305 307 308 309 306 307 309 308 308 310 309 306 306 307 307 309 311 313 314 315
296 295 295 295 295 295 296 296 295 295 296 296 296 296 296 298 298 297 298 301 304 306 304 305 306 305 305 304 306 305 308 306 305 307 309 309 312 316 316 316 314 315 311 312 313 317 315
296 294 294 294 294 295 295 295 295 295 295 295 296 296 297 298 298 298 297 299 304 306 305 305 309 308 306 305 309 306 306 306 307 312 313 315 316 316 316 316 315 315 314 314 312 317 319
293 293 294 294 295 294 294 293 293 293 294 294 295 296 297 297 297 297 297 301 304 304 305 308 309 309 308 309 310 308 307 307 308 312 312 312 313 313 313 314 315 315 315 315 317 318 319
295 294 295 295 295 294 294 294 294 294 295 295 295 295 297 297 297 298 297 300 303 305 305 310 309 310 309 310 310 307 307 308 307 310 312 311 312 311 314 314 313 316 317 314 320 320 319
294 294 294 294 294 294 294 293 293 293 293 295 294 295 296 297 297 298 297 302 304 304 307 307 307 310 311 311 311 307 307 307 308 307 308 310 308 311 312 313 313 315 317 319 320 321 321
294 294 294 294 293 293 294 294 292 292 293 292 294 295 296 296 296 297 297 302 303 306 306 306 306 310 309 309 310 308 308 306 307 308 309 308 310 311 311 312 313 315 317 317 321 321 322
294 294 293 293 293 294 294 295 294 293 293 294 294 295 296 298 297 297 297 303 304 305 305 306 307 308 308 309 312 310 313 311 309 308 306 308 310 311 313 313 313 315 316 320 320 324 326
293 293 293 294 294 294 295 295 295 294 293 294 295 295 296 299 298 297 296 302 303 304 304 305 306 306 308 307 309 315 315 312 308 308 308 309 308 310 312 314 315 315 317 316 318 321 325
293 292 293 293 294 295 295 296 296 295 293 294 295 295 297 298 297 297 294 300 302 304 304 304 305 306 305 308 308 313 314 312 308 308 308 307 310 310 309 309 313 315 316 318 320 323 321
293 293 293 294 295 294 295 297 297 295 293 294 295 295 296 298 299 290 297 302 301 303 304 303 304 306 305 306 307 312 312 309 308 307 307 308 311 312 313 314 313 316 315 315 315 317 320
293 292 292 294 294 295 296 296 297 295 293 294 295 292 296 298 298 299 298 300 301 303 303 303 304 305 305 305 305 307 310 310 309 308 307 307 308 311 312 313 313 315 315 315 316 320 320
292 292 293 294 294 295 296 296 297 296 293 294 294 292 295 296 299 296 299 301 303 304 304 305 306 306 306 305 305 305 307 307 308 308 307 307 308 310 310 312 312 314 315 316 317 317 320
292 291 292 293 294 296 296 296 297 296 294 294 293 294 296 297 298 301 300 302 303 304 303 304 304 305 306 307 306 306 306 307 308 307 307 306 307 308 308 309 311 311 309 308 315 317 317
292 291 293 293 294 295 296 297 297 296 295 294 294 295 295 294 296 298 300 300 301 301 303 303 304 304 305 306 305 305 306 306 306 308 307 307 307 308 309 308 307 307 310 311 316 315 316
292 291 292 293 295 295 295 296 297 297 296 294 293 294 294 291 295 296 297 298 299 300 302 302 303 304 306 306 305 304 304 306 305 306 306 306 306 306 308 307 306 307 307 315 316 315 315
292 292 292 294 295 294 295 296 297 298 298 296 294 294 295 291 295 296 296 298 298 299 301 304 304 305 305 305 303 305 304 305 305 305 305 305 305 304 306 307 305 306 310 311 311 314 317
291 292 292 294 294 295 296 296 296 297 298 298 297 294 295 294 293 296 296 297 297 299 299 302 302 304 304 301 302 305 306 306 306 306 305 304 304 305 304 307 305 308 312 312 313 317 315
291 292 292 293 295 296 297 297 297 297 298 298 297 296 294 295 294 295 296 298 299 299 298 299 301 303 303 300 304 304 305 305 306 307 308 305 304 306 306 308 306 308 310 312 313 312 312
291 291 292 293 295 296 297 297 298 299 298 298 298 296 295 294 294 295 295 295 297 299 300 299 297 300 301 300 302 303 302 304 306 305 306 306 305 305 306 308 307 308 311 313 310 308 308
291 292 294 295 296 297 298 299 299 299 299 298 298 298 297 295 295 296 295 295 296 298 298 299 299 300 302 304 302 302 300 298 304 305 307 306 307 308 305 305 308 307 307 306 305 303 302

GFSGBSN_850_thetae_096.txt.gz
Theta_e
301 300 301 300 299 299 298 298 299 300 301 301 300 301 301 302 301 301 300 299 299 299 298 297 298 297 299 302 300 302 305 307 308 308 310 309 310 310 308 308 311 312 313 314 314 314 314
299 297 297 302 301 299 298 297 297 297 298 299 299 300 299 302 301 300 299 299 298 298 297 297 297 297 301 303 301 301 303 303 302 305 310 311 309 309 309 308 309 311 313 313 315 315 315
297 298 302 300 299 299 298 297 296 297 296 299 298 299 299 299 299 299 298 299 298 297 296 296 297 299 303 301 300 301 301 305 304 305 309 312 314 314 312 310 312 312 311 310 311 313 312
296 297 301 301 300 299 299 298 297 298 298 299 298 299 299 299 299 298 298 299 297 296 297 297 300 302 303 299 299 300 300 301 303 303 304 310 312 310 310 309 311 315 314 314 313 312 314
295 296 299 299 297 296 296 298 299 299 296 298 299 300 299 298 298 298 298 298 296 304 306 307 307 305 304 301 303 303 306 301 305 306 304 309 310 310 307 307 310 312 313 314 314 312 314
296 298 297 297 297 298 299 299 298 297 296 297 298 298 298 297 297 297 298 297 304 306 306 305 305 304 301 301 307 310 308 309 308 306 307 309 310 304 304 306 309 312 314 312 313 313 313
296 296 295 295 296 296 296 297 296 297 297 297 298 297 297 296 296 297 298 299 303 304 303 304 305 305 305 308 310 309 307 308 309 309 308 307 307 306 306 308 310 312 314 314 313 313 316
296 296 298 298 297 296 297 297 296 296 296 295 296 296 296 296 296 297 298 297 298 300 301 304 304 304 305 305 307 307 309 307 310 310 307 306 306 307 306 305 307 308 309 310 310 312 314
296 295 294 295 295 294 294 295 296 296 296 294 295 295 296 296 296 297 297 298 299 301 303 304 304 304 305 304 306 306 307 306 310 310 308 309 310 307 305 305 305 306 306 307 309 311 312
295 295 293 294 293 292 292 293 293 293 293 293 294 294 296 297 297 298 297 297 298 302 304 303 304 304 305 305 306 305 306 306 305 310 308 308 308 313 311 309 307 312 309 310 312 312 312
295 293 293 293 294 295 295 294 294 294 292 293 294 294 295 296 296 296 297 297 299 303 304 302 306 306 305 304 305 305 306 308 305 307 311 311 315 314 315 315 313 314 314 314 314 312 318
293 295 294 295 295 295 293 293 293 293 293 293 295 295 295 295 296 296 297 297 300 303 302 305 308 307 305 304 308 305 306 306 307 312 311 312 313 312 313 314 314 314 314 314 315 316 316
294 296 294 293 294 293 294 293 292 291 293 293 293 294 294 295 296 297 297 298 303 304 302 307 307 306 306 308 308 307 306 307 307 310 312 312 313 311 313 313 313 315 313 310 315 318 315
294 293 294 293 294 292 293 294 294 293 292 292 293 292 293 294 295 296 296 299 301 301 303 306 307 306 307 310 309 307 308 307 308 307 309 310 308 312 312 312 313 315 313 312 319 320 319
293 293 295 293 293 292 293 294 295 295 294 293 294 293 293 296 297 296 297 298 299 304 307 307 307 308 310 309 310 307 307 307 307 306 308 309 308 309 311 311 311 314 316 315 319 315 319
293 293 293 292 293 294 293 294 295 295 295 293 294 293 295 298 296 296 293 297 301 303 305 306 309 307 308 307 309 310 311 310 308 308 306 307 309 311 312 312 312 314 315 318 318 321 320
293 293 292 293 293 294 294 295 295 296 295 293 294 294 296 298 297 297 295 296 300 302 304 305 306 308 307 307 311 314 313 309 308 307 307 307 308 310 313 314 313 314 314 315 318 319 324
293 293 292 293 293 295 295 295 296 297 295 293 294 294 296 296 297 296 291 298 299 300 302 303 304 307 307 306 312 313 313 311 308 308 308 307 309 310 310 309 312 313 315 315 320 319 320
292 293 293 292 293 295 295 295 296 297 295 293 294 295 295 297 296 297 296 297 300 301 300 303 303 305 304 306 309 310 310 308 308 307 308 308 311 312 314 313 311 315 315 315 315 315 315
293 293 292 291 293 294 295 296 296 297 296 293 294 292 294 297 297 298 298 297 298 301 302 303 303 303 305 306 306 307 309 309 308 307 307 307 309 309 311 311 311 313 314 314 317 317 317
293 292 293 291 293 294 295 296 296 298 296 293 293 291 294 293 297 296 298 299 300 301 304 303 304 304 306 307 306 307 308 306 307 307 306 306 307 309 309 309 311 311 312 313 315 315 317
292 292 292 291 292 294 295 296 296 297 296 293 293 292 294 296 296 296 298 299 301 301 304 304 304 304 306 307 306 307 306 306 307 306 306 305 306 307 308 307 310 310 308 307 307 309 311
292 292 292 291 293 294 295 296 297 297 296 294 293 294 294 293 294 296 298 298 298 300 301 302 303 304 303 305 305 305 305 306 305 306 306 306 306 307 308 307 306 304 306 313 314 315 315
292 291 292 291 293 293 295 295 296 297 297 295 294 293 293 290 294 296 295 297 297 298 301 302 304 303 305 305 304 304 303 304 305 305 305 306 306 306 307 306 304 302 304 312 313 315 315
291 291 292 292 293 294 295 295 296 297 298 297 295 294 294 292 294 295 295 296 296 296 300 301 303 303 304 304 302 303 303 304 304 304 305 304 304 305 306 307 304 305 309 311 312 313 316
291 292 291 292 292 294 294 294 295 296 297 297 297 295 294 294 291 295 295 295 295 298 298 300 301 302 303 300 301 304 304 305 306 305 304 303 303 305 304 306 303 303 310 309 311 314 311
291 292 291 292 292 294 294 295 296 296 297 297 297 296 295 294 294 294 296 297 299 298 298 298 300 302 302 298 302 304 305 304 305 306 307 305 304 306 306 308 306 306 307 309 312 311 308
291 292 291 291 292 293 295 296 297 297 298 298 298 297 296 294 294 294 294 294 296 297 298 299 296 300 300 301 302 302 302 303 305 304 306 305 306 304 306 307 306 307 308 309 307 303 304
291 291 291 292 292 293 294 295 297 297 298 299 298 298 297 296 295 295 295 295 295 298 298 297 299 300 299 303 302 303 303 300 303 306 305 304 307 309 306 305 306 305 305 303 301 299 299

GFSGBSN_850_thetae_099.txt.gz
Theta_e
297 297 296 299 298 297 296 295 295 295 295 295 297 300 298 298 299 299 299 298 298 298 298 297 296 297 300 302 300 300 303 305 302 307 308 307 310 311 312 312 313 314 313 313 313 314 313
296 296 297 297 296 296 296 295 295 295 295 295 297 298 297 298 298 298 297 297 296 296 298 296 296 296 300 301 300 300 301 301 302 304 310 308 309 310 309 309 311 311 312 313 313 314 314
295 295 302 299 297 296 295 295 295 298 296 295 296 299 299 299 298 297 297 297 295 295 296 296 297 298 302 299 299 299 300 301 303 304 310 311 310 309 310 311 310 310 311 311 310 312 313
295 296 296 297 296 295 295 295 299 298 295 294 294 296 297 297 296 296 296 296 295 297 297 300 304 304 303 299 299 299 300 300 300 303 303 308 313 314 312 311 310 315 315 316 315 313 313
295 295 295 295 295 295 297 297 297 296 296 296 296 296 296 296 296 296 296 296 296 301 305 305 305 305 304 302 304 309 308 305 302 301 302 302 308 309 307 310 310 312 316 315 316 314 315
295 296 295 295 295 295 296 297 298 296 295 295 295 296 296 296 295 295 296 296 299 304 305 305 304 304 302 302 308 309 308 307 305 306 306 305 308 309 307 309 311 311 314 315 316 315 315
295 295 297 298 297 298 299 300 298 296 295 295 294 294 295 295 295 295 296 296 298 301 301 300 301 303 302 303 304 308 308 308 308 306 308 308 310 311 309 310 309 312 314 315 314 315 315
295 296 295 296 298 297 297 296 296 295 294 293 293 293 294 295 296 296 297 298 298 297 299 299 301 302 301 301 304 303 306 307 308 308 308 308 311 309 308 308 310 310 311 311 311 312 313
296 294 293 295 295 294 294 293 293 293 293 292 293 293 293 294 295 297 296 297 297 297 300 301 302 303 303 303 304 303 305 306 311 310 309 310 311 308 308 308 308 308 309 309 310 309 312
296 294 292 292 293 294 295 295 295 294 294 293 293 294 294 295 296 295 296 296 297 299 303 304 304 303 304 305 305 304 304 307 307 312 310 310 309 307 307 308 308 309 308 308 310 313 314
294 292 292 294 296 295 294 292 292 292 291 293 292 293 295 294 295 295 296 296 297 300 302 302 305 305 305 304 304 306 304 307 306 310 310 312 313 313 311 312 309 312 313 312 313 315 316
292 294 296 294 294 294 292 293 293 292 291 292 292 292 293 294 294 295 296 296 299 302 300 302 307 306 305 305 305 305 305 306 306 312 312 312 313 313 313 314 314 314 315 315 316 316 316
294 296 294 294 294 294 292 293 294 294 294 293 292 294 293 292 293 294 296 297 300 300 302 304 305 306 307 306 305 306 306 307 309 310 312 313 314 312 313 315 314 314 313 315 316 317 315
296 293 294 294 293 294 292 293 294 295 295 295 294 293 293 294 296 295 296 298 299 299 301 305 305 306 308 308 308 306 306 307 307 308 311 313 313 313 313 313 315 314 313 315 315 319 319
295 293 293 294 293 293 293 293 294 296 296 295 294 294 296 297 298 296 296 296 298 301 303 304 304 308 311 309 309 307 307 307 308 308 311 311 310 310 312 312 313 315 315 315 315 316 317
294 293 294 293 292 293 294 294 295 296 297 295 293 294 296 296 297 296 294 296 298 299 301 306 305 306 305 308 310 310 310 309 307 308 307 308 313 311 312 313 314 315 315 317 316 319 320
294 292 294 292 293 293 295 294 295 296 297 295 293 294 295 295 296 296 294 295 296 298 299 304 304 304 306 307 308 311 312 309 308 308 307 308 311 313 314 314 315 315 316 314 315 317 320
292 293 293 293 292 293 295 295 296 297 296 295 293 292 294 295 295 294 296 296 297 297 298 299 303 305 305 307 312 313 311 310 308 308 309 310 310 312 312 311 312 313 314 314 316 319 316
292 293 293 293 292 292 295 295 296 297 297 294 293 294 294 296 295 296 297 297 297 297 299 301 302 302 301 305 309 312 311 309 309 308 310 311 312 316 316 313 312 314 315 314 314 316 316
292 292 294 293 291 293 294 295 296 297 296 294 293 291 293 296 296 296 297 298 298 299 300 303 303 302 305 308 307 309 309 309 309 309 308 309 310 310 313 312 312 313 313 314 315 316 316
292 293 292 292 291 293 294 296 296 297 296 294 292 291 293 292 295 296 297 298 300 302 301 302 304 305 306 307 307 307 307 308 308 307 307 308 309 309 309 309 311 311 311 310 310 312 314
292 293 292 292 291 292 293 295 296 297 296 294 293 292 294 294 294 295 297 297 297 298 301 304 303 304 305 307 307 307 306 307 308 308 307 307 308 308 308 308 309 308 308 306 307 310 311
292 292 292 292 291 293 294 296 296 297 296 294 293 293 293 293 294 295 296 296 297 298 298 301 303 304 305 305 304 304 304 304 306 307 307 307 308 307 305 307 307 305 305 306 312 314 315
292 292 292 292 291 293 293 296 296 297 296 296 294 293 293 292 294 295 295 295 296 298 297 300 303 303 304 303 304 303 303 303 304 306 305 307 307 307 307 307 304 304 305 307 309 311 314
291 292 292 292 291 292 293 296 295 296 297 298 296 295 293 292 294 295 295 295 296 295 299 300 302 301 302 303 304 303 304 304 305 305 305 306 306 307 307 307 305 306 310 309 310 308 312
291 292 291 292 290 292 293 295 294 295 297 297 297 294 294 294 293 294 295 295 296 297 299 299 300 301 302 301 303 304 305 305 305 306 304 304 305 307 307 306 306 306 307 308 309 311 308
292 291 291 292 291 292 293 294 294 295 296 297 297 297 295 294 294 294 296 296 297 297 298 298 299 300 301 301 304 305 305 304 305 306 307 306 306 307 307 307 307 307 307 307 305 308 306
293 291 291 292 291 291 292 294 294 296 297 297 298 296 297 295 295 295 295 294 295 296 298 298 298 300 302 303 303 304 304 304 305 305 307 306 307 307 306 307 307 306 307 309 305 301 301
291 290 291 291 291 291 291 293 295 296 297 298 297 298 297 295 296 296 296 296 296 295 297 296 298 298 299 300 300 301 303 303 303 306 305 308 307 307 307 308 304 303 301 299 299 297 297

GFSGBSN_850_thetae_102.txt.gz
Theta_e
297 296 296 296 296 295 295 295 295 294 294 294 294 295 295 295 296 296 295 296 296 295 295 295 296 296 300 303 304 301 300 301 306 306 310 311 312 313 317 318 317 317 318 316 315 315 315
296 295 296 296 296 296 295 294 294 294 295 294 294 294 295 295 295 295 295 295 295 295 295 295 296 297 302 304 301 300 300 301 302 308 310 310 311 313 315 316 316 317 317 317 315 315 315
296 296 299 297 296 295 295 294 296 297 294 294 294 295 294 295 295 295 295 295 295 295 295 296 297 301 302 302 300 299 300 299 301 304 307 312 310 311 313 314 313 314 315 315 315 315 316
295 295 296 296 295 295 295 297 296 295 294 294 295 295 295 294 294 294 294 295 295 295 297 300 302 305 303 302 299 300 301 303 300 302 303 306 310 313 312 313 314 314 316 318 318 317 315
295 295 295 295 295 294 294 295 296 295 294 294 294 294 294 294 294 294 294 295 295 296 304 303 305 305 304 304 304 306 308 308 305 302 302 304 306 313 315 317 316 316 319 320 319 318 318
295 295 295 294 294 295 296 295 295 295 294 293 293 293 293 293 294 295 296 296 296 301 303 305 304 304 304 303 305 307 309 308 308 306 303 304 307 312 314 316 318 317 317 318 319 319 318
296 294 296 295 295 294 295 296 296 294 293 293 293 293 294 293 294 296 297 299 299 301 299 299 300 302 301 301 301 303 309 308 308 307 304 305 307 311 313 314 314 314 315 316 317 317 317
295 294 294 294 294 293 294 296 293 293 293 293 293 293 294 294 295 296 297 298 298 297 299 298 299 300 300 301 302 303 304 307 310 308 306 307 307 309 311 312 312 312 313 314 315 314 315
295 294 293 293 292 292 293 294 294 293 293 293 293 293 294 295 295 297 298 298 298 298 300 300 301 302 304 304 303 303 304 307 310 310 309 307 308 308 309 310 311 312 312 313 314 313 313
295 294 292 291 293 295 294 292 292 292 292 292 292 292 292 294 297 296 298 298 298 299 302 302 305 306 306 305 306 305 304 308 310 311 310 309 310 311 310 310 311 312 313 312 312 312 315
295 292 291 293 296 294 293 293 293 293 293 293 292 292 294 292 296 296 296 296 297 300 300 303 306 306 306 306 307 307 305 305 310 312 312 312 311 311 312 311 311 312 312 312 312 314 316
293 293 296 293 293 293 292 293 294 294 294 294 294 293 294 296 295 296 295 296 300 304 299 301 303 306 306 306 307 307 306 306 309 312 312 313 313 312 312 313 311 314 316 316 317 317 319
293 296 295 293 293 293 292 292 294 295 295 295 295 293 294 293 296 296 295 298 301 300 300 302 304 305 305 307 309 308 307 308 310 313 314 314 316 314 314 316 316 316 317 319 321 320 319
296 295 294 295 293 292 292 292 294 295 296 296 295 293 295 297 298 297 297 300 298 297 300 302 303 305 308 309 310 308 308 307 310 310 311 312 315 316 315 315 315 316 315 318 316 318 319
296 295 292 295 293 292 293 293 294 295 297 297 295 294 297 295 297 296 299 299 297 299 300 301 303 305 306 305 311 309 308 306 309 310 311 312 312 314 314 314 315 316 318 316 319 318 320
295 294 294 294 292 292 293 294 295 296 297 296 295 295 297 296 296 298 300 298 298 298 298 300 303 305 304 306 310 309 308 307 309 310 311 311 314 314 314 314 315 315 316 318 318 321 321
294 293 294 294 292 292 294 295 295 296 297 296 295 297 295 295 297 299 301 299 299 298 298 301 301 300 305 305 307 311 311 308 309 310 310 312 314 316 315 315 316 317 317 317 318 319 321
294 292 293 292 292 292 295 295 295 297 297 296 295 299 295 296 300 299 300 299 298 299 298 301 301 302 303 304 304 309 313 312 310 310 311 312 315 316 315 313 314 315 315 316 319 318 318
293 292 293 293 293 292 295 295 296 297 297 296 297 296 296 297 300 300 300 300 300 300 300 302 302 303 303 304 307 313 310 310 309 311 312 313 314 316 316 315 315 315 315 316 316 317 319
293 292 293 294 293 291 294 295 296 296 296 295 296 298 296 298 297 299 299 300 300 300 302 302 304 303 305 308 308 311 312 310 309 310 309 310 312 314 315 316 315 316 315 315 316 317 316
293 292 294 293 292 290 294 295 296 297 296 295 295 297 295 298 298 299 299 300 299 300 300 301 305 306 305 308 308 309 309 309 308 308 309 310 310 310 310 311 311 311 311 311 310 311 314
292 293 293 293 292 290 293 295 296 297 296 295 295 297 296 296 296 298 298 299 298 298 300 302 305 305 305 306 306 307 307 308 308 308 309 308 309 307 307 309 310 309 308 307 307 311 314
293 292 293 292 292 290 293 295 296 297 296 296 294 294 296 295 296 298 299 297 297 298 300 300 303 305 306 304 304 305 305 305 306 308 308 308 308 306 308 306 306 306 307 308 310 311 314
293 293 292 291 292 291 293 295 296 297 297 296 295 296 297 298 297 297 297 296 297 298 299 299 303 303 303 303 305 305 305 305 306 308 308 307 307 307 307 307 305 306 309 309 309 312 314
293 292 292 292 292 291 293 294 296 296 297 296 296 296 297 299 297 297 297 298 297 298 300 301 301 301 302 304 306 303 306 306 308 308 308 308 307 307 307 306 307 311 310 310 310 311 309
292 291 293 292 291 291 293 294 296 295 297 297 296 295 297 298 298 296 297 298 300 300 301 301 301 302 303 305 306 305 306 305 305 307 307 307 308 308 308 306 307 310 309 308 310 312 307
291 292 292 292 292 291 292 293 295 295 296 296 297 297 296 298 298 296 298 298 298 299 301 301 300 302 303 306 307 306 305 306 306 306 307 308 309 309 308 309 309 308 308 308 310 309 304
291 291 292 291 292 292 291 293 294 294 295 297 297 297 296 296 298 296 296 297 297 298 300 299 303 302 303 304 305 305 306 307 307 308 308 308 309 309 308 309 311 302 308 309 305 299 299
290 292 293 291 291 292 291 292 293 294 296 297 297 296 297 296 298 296 296 297 297 297 297 299 299 301 301 302 302 303 305 305 305 307 307 309 306 308 305 305 299 297 297 296 296 295 295

GFSGBSN_850_thetae_105.txt.gz
Theta_e
297 297 296 296 296 296 295 295 295 295 295 295 295 295 295 295 296 296 296 296 296 296 296 296 296 295 300 303 305 305 305 304 302 305 312 314 313 313 316 318 319 321 321 320 320 320 320
297 296 296 296 296 296 295 295 295 295 295 295 295 295 295 295 295 295 295 296 296 296 296 296 296 297 303 305 305 304 304 304 304 303 310 311 314 314 315 317 320 320 320 321 320 320 319
296 296 296 297 296 295 295 295 295 295 295 294 295 295 295 295 295 295 295 295 295 295 296 296 298 300 304 304 304 303 304 304 303 305 306 311 313 314 315 318 318 318 320 321 320 320 320
297 296 297 296 295 295 295 295 295 295 294 294 294 294 294 294 294 294 294 295 296 296 296 296 300 306 305 304 303 303 303 304 304 304 304 307 311 314 314 315 317 318 319 320 320 319 319
296 295 296 295 295 295 294 294 294 294 294 294 294 294 294 294 294 295 294 295 297 297 297 302 306 306 306 306 306 306 305 306 307 307 304 305 306 311 315 317 317 318 319 319 319 320 320
296 295 295 295 295 294 294 294 294 293 293 293 294 294 294 295 295 295 295 299 300 301 306 306 306 306 306 305 306 307 308 309 311 309 306 305 307 310 312 317 319 320 319 320 321 322 322
296 295 295 294 294 294 294 293 293 293 293 293 293 294 294 294 295 295 298 301 302 304 303 302 302 306 303 302 302 302 302 308 310 310 310 306 308 309 311 315 318 319 320 321 320 321 322
296 296 296 295 294 293 293 292 293 293 293 293 293 293 293 293 294 297 300 301 299 298 300 300 300 300 301 301 303 304 303 306 310 312 310 307 307 309 311 313 316 317 318 318 317 318 319
296 295 294 294 293 292 292 293 293 292 293 293 293 292 294 293 298 300 300 300 299 300 301 300 302 303 304 306 307 307 304 305 309 312 311 307 308 308 309 311 314 315 315 315 315 316 317
296 295 293 292 292 292 293 292 292 293 294 294 294 293 294 294 299 298 300 298 299 300 303 303 306 307 308 308 308 308 307 304 307 310 312 309 309 310 309 310 312 314 314 313 313 315 316
297 295 292 292 293 294 292 292 293 294 295 295 294 293 294 297 298 299 298 298 300 301 303 304 306 308 307 307 307 308 307 304 306 310 311 311 309 310 310 310 311 312 312 312 313 315 315
297 293 293 293 293 293 292 292 293 295 295 295 295 293 293 298 299 299 299 299 301 305 303 302 304 305 305 305 306 307 307 307 305 309 312 312 311 312 311 310 311 311 313 313 313 314 317
295 295 297 294 293 293 292 292 294 295 295 296 295 293 294 298 299 300 300 300 303 304 302 301 302 303 303 306 308 309 311 309 307 309 314 313 315 312 312 312 312 312 315 318 319 320 318
293 296 295 294 293 292 292 292 294 295 296 297 295 294 298 299 299 300 301 303 300 299 299 301 301 301 305 306 306 307 309 308 308 309 313 314 317 314 314 313 312 315 315 316 317 318 317
296 295 294 296 294 292 293 293 294 295 297 297 297 299 300 299 299 300 302 302 300 299 300 300 301 303 306 304 305 307 312 309 308 310 315 314 316 314 314 314 314 316 316 315 319 321 322
297 296 293 295 293 291 293 294 295 295 297 296 299 299 300 296 299 301 303 301 301 300 300 301 301 302 303 303 306 308 311 309 308 311 312 314 315 314 314 315 315 316 316 318 319 319 318
296 295 293 294 292 291 293 295 295 296 297 297 300 300 300 297 300 302 303 301 301 300 300 300 301 302 303 305 307 308 310 308 309 311 311 312 314 314 315 315 315 317 318 319 319 321 324
295 294 294 294 291 292 294 296 295 297 297 298 300 302 299 300 304 302 302 302 301 302 302 303 303 304 305 307 307 308 312 308 310 310 310 312 313 316 317 314 315 315 316 317 319 320 319
295 294 293 293 293 292 294 295 295 297 297 299 300 299 299 302 303 303 302 302 302 303 303 304 305 305 306 306 307 306 313 312 310 311 312 312 314 316 319 316 316 316 316 317 319 319 321
294 292 294 293 294 293 293 295 296 297 296 298 299 302 300 300 300 302 302 302 303 303 304 303 305 305 307 308 305 308 313 311 311 311 310 312 314 315 316 315 316 317 317 316 317 319 318
294 293 293 294 294 292 293 295 296 297 296 298 300 300 298 302 302 301 302 302 302 302 302 303 307 306 307 307 306 308 308 311 310 310 311 313 314 315 315 315 316 315 316 315 316 314 314
294 293 293 294 293 292 293 294 296 297 296 299 296 301 299 299 299 301 301 302 301 301 303 303 305 305 305 305 306 307 308 309 310 310 310 311 309 310 311 312 313 313 311 309 308 310 314
294 292 294 294 293 291 292 294 296 297 297 299 298 298 299 298 300 301 301 300 300 301 302 302 304 305 305 305 305 306 307 307 308 308 309 309 309 310 309 308 308 308 309 310 311 314 316
293 293 293 293 292 291 292 294 296 297 297 298 299 299 300 302 300 300 299 299 300 300 301 302 303 304 303 305 306 306 307 308 308 308 309 308 308 308 308 308 308 310 311 310 314 312 311
293 293 293 292 292 292 292 294 296 297 296 298 298 298 299 301 300 299 299 300 301 301 302 302 302 302 304 307 307 306 308 307 307 308 308 309 309 309 308 309 309 312 310 310 311 311 309
293 293 293 293 293 292 292 294 296 296 297 297 298 297 299 300 301 298 300 299 301 302 303 302 302 303 305 308 308 306 307 307 307 308 308 308 309 309 309 308 312 311 310 309 310 312 306
292 293 292 293 293 291 292 293 295 296 296 297 297 297 298 300 300 299 301 300 299 301 302 303 302 304 304 308 309 307 307 306 307 307 308 309 310 311 309 310 311 304 305 307 314 307 302
291 292 292 293 292 292 292 293 295 295 295 296 297 296 297 299 299 299 300 300 300 301 302 301 304 304 304 306 306 306 308 307 309 308 309 310 311 311 311 310 313 299 306 308 302 298 299
291 291 292 293 292 292 292 292 293 295 294 296 297 296 297 298 299 299 299 299 299 299 300 300 301 303 302 305 304 305 307 308 307 311 308 310 307 308 305 304 299 298 297 296 299 298 297

GFSGBSN_850_thetae_108.txt.gz
Theta_e
301 300 297 297 296 296 296 296 295 295 295 295 295 295 295 296 296 296 296 296 296 296 296 296 296 296 297 303 305 305 306 305 305 304 305 309 314 316 314 313 316 319 321 321 321 321 321
305 299 297 296 296 296 296 296 295 295 295 295 295 295 295 295 296 296 296 296 297 297 297 297 297 296 304 306 305 306 306 306 305 305 305 305 311 315 315 315 315 318 319 321 321 321 321
303 299 297 296 296 296 296 295 295 295 295 295 295 295 295 295 295 295 295 297 299 298 298 298 296 298 306 305 305 306 305 305 305 305 306 306 307 312 314 317 316 316 318 321 321 321 322
298 299 297 296 296 296 295 295 295 295 295 295 295 295 295 294 295 297 298 298 298 299 299 298 296 303 307 307 305 305 305 305 304 304 305 305 306 309 313 314 316 317 318 320 321 321 322
298 299 302 298 297 295 295 295 295 294 294 294 294 294 294 296 297 297 297 297 301 301 301 304 304 308 309 308 307 307 307 306 306 306 306 306 305 306 311 315 317 317 320 320 320 321 321
299 300 302 299 296 295 295 295 294 294 293 294 294 294 296 296 296 295 296 301 303 302 304 306 308 309 309 307 306 307 308 309 308 310 311 309 307 306 309 314 318 317 318 319 320 320 321
301 300 300 296 295 295 295 294 293 293 293 293 294 296 296 295 294 297 301 303 302 304 306 305 305 308 306 305 304 304 303 304 304 308 312 311 308 307 307 310 314 316 317 319 319 319 321
299 297 297 296 295 294 294 293 293 293 293 294 296 296 295 294 298 299 302 302 300 300 301 301 302 302 302 302 302 303 304 304 304 305 311 311 310 308 307 308 310 312 316 318 320 322 321
299 298 298 297 295 294 292 293 293 293 293 295 295 295 294 294 299 301 301 301 300 301 302 301 302 303 303 304 305 306 308 308 306 305 309 311 310 309 307 308 309 312 314 319 320 320 319
298 297 297 297 294 292 293 293 292 293 295 295 295 295 294 296 300 301 301 299 300 301 303 304 306 308 307 308 307 307 308 309 308 306 307 310 311 310 307 307 309 311 314 317 317 317 315
298 297 296 294 293 293 293 292 293 294 296 295 295 295 294 299 300 301 300 300 300 302 307 305 306 307 303 304 304 307 306 308 309 306 306 308 311 311 308 308 309 311 314 316 315 315 314
297 297 293 295 296 294 293 293 293 295 296 295 295 294 294 300 301 301 301 302 303 305 306 302 302 301 302 302 303 305 307 308 308 306 306 307 310 312 308 311 310 312 313 313 313 313 315
298 296 294 296 296 293 292 292 293 295 295 296 295 294 295 300 301 300 302 303 306 306 301 300 301 301 302 303 306 307 307 308 311 307 305 307 311 312 310 310 311 311 312 316 318 318 317
297 295 296 296 294 293 292 292 294 295 296 297 296 297 301 301 300 300 303 305 306 301 301 301 302 302 303 306 307 305 306 311 311 310 305 309 315 314 312 312 310 311 312 318 316 317 317
296 296 297 296 294 292 292 292 294 295 297 297 300 302 302 300 296 302 304 305 301 301 301 301 301 302 303 304 304 306 308 311 311 308 307 316 316 314 314 312 313 312 314 315 318 320 322
295 295 295 297 295 292 292 293 295 295 297 296 300 302 302 296 297 304 306 303 301 301 302 303 302 303 304 305 306 306 310 311 309 306 311 313 319 315 315 315 313 315 314 318 318 326 327
297 296 295 295 294 291 292 294 295 296 297 297 302 302 302 295 302 304 306 302 303 303 303 304 304 305 306 308 307 309 311 311 308 312 312 311 314 316 314 317 317 317 318 318 318 319 325
296 296 295 295 294 291 293 295 295 297 297 299 302 305 301 299 306 306 303 303 303 304 305 306 306 307 307 307 307 307 309 310 308 312 313 313 315 316 316 315 314 316 318 318 321 318 320
296 296 295 295 292 292 293 295 295 296 297 301 303 302 301 304 306 305 303 304 304 305 305 305 306 306 306 307 307 307 308 312 312 313 314 313 314 317 317 315 315 316 316 317 318 319 321
296 295 294 294 293 292 292 295 295 297 296 301 301 305 302 302 302 303 303 304 304 304 305 304 306 307 308 308 306 308 310 312 311 312 312 314 314 315 319 317 317 317 318 317 316 319 318
294 294 293 294 294 293 292 295 296 297 296 301 302 303 301 304 304 302 303 304 303 303 303 304 306 306 306 306 307 309 309 310 311 311 312 311 317 314 315 317 315 316 316 316 316 314 315
294 294 293 294 295 293 291 295 296 297 297 301 295 303 300 301 300 302 303 302 302 302 304 304 305 305 305 305 306 308 308 309 310 311 311 310 312 312 313 316 315 315 310 310 315 317 317
294 294 293 294 294 293 291 294 296 297 297 301 300 299 301 301 301 302 303 301 301 302 302 303 304 305 305 305 306 308 308 308 308 311 310 310 311 311 309 309 310 311 311 314 312 312 312
294 294 293 294 294 293 291 294 296 297 299 300 300 301 301 303 301 301 301 301 302 302 302 303 303 304 303 305 308 307 308 308 308 308 309 309 308 310 308 308 315 312 313 311 310 309 310
293 294 293 294 293 292 291 294 296 296 298 298 299 300 301 303 302 301 301 301 302 303 304 304 303 303 305 307 308 308 308 309 307 307 308 309 310 311 311 310 312 312 310 309 312 308 306
293 294 294 293 293 292 291 293 296 296 296 298 299 298 300 301 303 300 301 302 302 303 304 303 303 305 305 309 311 308 307 307 308 310 309 309 311 313 312 310 314 307 304 306 309 308 303
294 294 294 293 293 292 291 293 295 296 297 297 298 297 299 300 301 300 301 301 301 301 303 303 302 304 304 309 310 308 309 308 309 309 309 311 312 313 312 313 309 302 304 306 311 305 301
293 293 293 293 293 292 292 293 294 296 296 297 298 297 299 300 300 301 301 300 301 301 302 301 304 303 304 307 305 306 307 307 310 309 309 308 311 310 311 311 309 299 303 304 300 299 299
293 292 293 293 293 292 292 292 294 295 295 296 298 298 297 297 300 300 299 301 301 301 301 301 301 303 304 305 304 304 307 309 307 312 307 308 307 306 304 303 300 298 298 298 298 298 297

GFSGBSN_850_thetae_111.txt.gz
Theta_e
303 302 301 299 298 297 296 296 296 296 295 296 296 296 296 296 296 296 296 297 297 297 298 298 298 297 297 302 303 304 304 305 305 305 305 305 307 314 315 312 311 309 313 316 318 319 320
303 304 301 298 297 297 296 296 296 296 296 296 295 295 296 296 296 296 296 297 299 299 299 299 298 297 297 303 303 304 306 306 306 306 305 305 305 305 308 314 314 312 312 313 316 319 319
303 306 301 298 297 296 296 296 296 296 296 295 295 295 295 295 295 296 298 299 298 298 299 299 299 297 300 300 302 304 305 305 305 305 305 305 305 305 306 309 313 315 314 314 314 315 318
304 302 299 298 297 296 296 296 296 296 295 295 294 294 294 295 298 298 298 298 298 301 301 301 303 300 304 302 307 306 305 304 305 305 305 305 305 304 305 306 308 310 312 315 315 315 316
305 300 298 297 296 296 296 295 295 295 295 294 294 294 295 298 297 297 297 298 301 302 302 304 305 308 308 307 307 306 307 307 306 305 305 305 304 305 305 304 307 311 313 314 315 315 316
304 300 298 297 297 297 296 295 295 295 294 294 294 295 297 296 296 298 299 301 302 303 305 305 306 307 307 307 307 305 306 303 308 308 307 309 306 304 304 303 306 311 314 313 315 315 317
303 301 302 299 297 296 296 295 295 295 294 294 295 296 296 295 297 300 302 301 300 302 301 301 304 306 306 305 304 304 304 302 303 303 302 306 309 308 306 303 305 308 312 314 314 316 317
302 302 300 298 297 296 295 295 294 294 294 294 296 296 295 295 299 301 302 300 300 299 301 299 300 300 301 303 302 302 303 303 303 303 303 302 307 310 308 305 305 306 307 308 310 314 317
302 302 299 297 296 297 296 295 293 293 294 296 296 295 295 296 299 302 301 300 299 300 300 300 302 303 307 304 305 305 304 307 307 305 305 304 303 310 310 307 305 305 306 308 310 311 317
301 298 297 297 297 295 294 293 293 294 294 296 295 295 295 297 300 301 300 299 299 301 298 304 306 308 305 301 304 303 303 307 305 308 309 305 304 306 309 309 306 304 306 308 310 312 321
299 298 299 297 296 295 293 293 293 293 295 295 295 295 296 300 301 302 301 299 301 302 304 302 302 303 301 301 301 302 304 306 308 307 309 310 305 305 308 310 307 305 306 308 313 317 317
300 300 298 298 297 297 293 293 293 294 295 295 295 295 295 300 302 301 299 303 303 304 302 301 302 301 302 303 305 305 305 305 307 308 307 308 306 305 308 311 310 307 309 315 314 315 316
299 298 297 296 297 296 293 293 293 295 295 296 296 295 297 299 300 297 303 304 305 300 302 301 301 302 302 303 305 306 305 304 305 307 308 307 306 305 310 310 311 309 313 314 315 314 314
298 297 296 297 298 294 292 292 293 295 295 297 296 297 299 296 295 298 304 304 304 301 301 301 303 303 303 304 305 305 305 305 307 307 309 305 304 308 311 311 312 310 311 313 317 318 315
298 297 296 297 296 295 292 292 293 295 296 297 300 301 302 297 295 301 304 300 300 301 302 303 303 303 303 305 306 306 306 307 308 309 309 309 306 312 313 313 311 310 311 313 318 318 320
297 296 298 297 296 293 292 292 294 295 297 296 301 302 303 301 300 304 302 305 302 303 304 304 304 304 304 306 306 307 309 309 311 310 309 311 310 313 313 315 315 310 311 315 318 321 324
296 297 297 297 296 293 292 293 294 295 297 298 300 303 304 296 302 305 298 302 303 304 305 306 306 306 305 306 305 307 308 309 311 312 311 312 309 315 316 316 314 315 316 317 319 320 322
296 296 295 296 296 293 292 294 295 296 297 299 303 301 300 298 304 305 299 302 303 305 305 305 305 305 306 306 305 304 307 307 309 312 312 311 310 317 316 315 315 315 317 316 319 320 319
296 297 296 296 295 292 292 294 295 297 300 302 303 303 297 304 298 297 303 304 304 305 305 304 306 305 305 304 304 303 307 307 309 312 313 312 314 316 315 315 315 316 315 316 318 317 321
296 297 296 295 295 292 292 295 295 296 297 301 302 299 302 302 301 303 302 304 304 303 304 304 305 304 304 301 304 306 308 309 310 311 311 313 314 316 317 317 316 317 317 316 317 318 319
295 297 295 294 294 292 292 295 295 297 298 301 302 299 301 297 301 301 302 303 303 303 303 304 303 304 303 301 304 304 307 308 309 310 310 311 314 312 313 314 314 313 314 314 315 316 317
295 296 295 294 294 294 292 294 296 297 298 301 297 303 299 300 301 300 303 303 301 301 302 303 304 303 303 303 305 306 307 308 308 309 310 310 313 310 312 312 314 314 312 312 313 315 315
296 295 294 294 295 295 292 293 296 296 298 302 301 300 301 302 300 300 300 301 301 302 302 302 303 303 303 303 304 305 306 308 308 311 309 309 310 311 311 311 313 314 311 310 309 309 310
295 295 294 293 295 294 293 292 295 296 298 300 300 301 302 299 300 300 301 301 301 302 303 303 303 302 303 304 306 308 308 308 308 310 309 309 310 310 309 309 316 309 307 306 306 306 306
295 295 294 294 295 294 292 292 295 296 298 299 299 300 301 298 301 301 300 301 301 302 302 304 302 303 303 305 307 307 307 307 308 309 309 310 310 311 310 313 313 308 304 304 308 305 303
294 295 294 293 294 293 291 292 295 296 298 298 298 299 300 300 300 301 301 301 300 299 300 302 302 304 303 305 306 308 307 308 309 309 309 310 309 312 310 312 312 304 301 302 305 303 301
294 294 294 294 293 293 292 292 295 296 297 298 298 298 299 300 302 301 300 300 301 301 300 302 301 303 302 301 306 305 308 308 310 309 308 307 307 308 310 310 306 299 300 302 307 302 300
294 295 294 294 293 293 292 291 294 296 296 297 298 297 298 299 299 301 301 301 301 301 297 301 299 301 300 302 303 304 306 307 309 308 308 306 308 305 306 307 304 298 300 302 301 298 298
294 294 294 294 293 293 292 292 294 295 296 296 298 298 297 297 299 301 298 298 301 301 301 301 302 303 302 299 300 302 306 304 306 307 306 305 306 303 302 301 298 298 297 297 296 296 296

GFSGBSN_850_thetae_114.txt.gz
Theta_e
322 319 313 306 303 299 299 298 297 296 297 297 297 297 297 296 296 296 297 297 298 299 299 299 299 299 299 300 301 302 305 305 305 306 305 305 305 308 313 310 309 306 307 308 310 313 316
323 320 314 308 303 299 298 297 297 297 296 296 297 297 297 296 296 297 297 299 299 299 298 299 299 299 299 301 302 304 305 305 305 306 306 305 305 304 304 303 308 313 312 310 309 310 310
322 320 317 308 303 299 298 297 297 297 297 297 296 297 297 297 297 298 299 299 299 298 299 300 300 301 302 302 303 304 304 303 305 305 305 305 304 304 304 303 305 307 311 313 313 313 311
323 321 318 308 304 298 298 297 296 297 297 296 296 296 296 297 298 299 298 299 299 300 301 301 301 304 303 305 306 306 306 307 306 306 304 305 305 305 304 304 304 304 306 308 311 312 313
323 318 318 305 300 299 298 296 296 296 296 296 296 296 296 298 298 298 299 299 301 302 302 303 303 306 306 306 307 305 306 303 303 303 306 307 305 305 303 302 301 303 304 306 309 312 312
320 314 310 306 302 299 297 296 296 296 297 296 295 295 297 297 297 299 300 301 301 303 304 303 304 305 304 303 302 304 302 302 302 303 303 305 306 303 302 300 302 302 305 306 310 311 312
316 312 308 304 302 298 297 297 297 297 296 295 295 296 297 296 299 301 301 300 299 301 299 298 298 302 300 304 303 302 304 304 305 303 301 302 301 302 307 303 303 303 303 304 307 310 311
315 310 308 304 300 297 297 298 296 296 296 296 295 297 296 296 300 301 300 299 299 298 300 300 301 301 306 305 302 301 304 304 305 304 306 304 302 302 302 307 307 304 303 303 305 307 309
314 309 305 302 299 298 298 297 296 296 296 295 296 296 296 297 301 301 300 300 299 298 299 302 303 303 305 303 301 301 304 305 306 306 306 306 307 304 303 303 308 307 305 303 303 304 306
311 307 303 302 300 300 298 297 298 295 294 295 296 296 296 297 300 300 299 299 299 301 299 302 303 305 303 301 301 302 302 304 306 305 306 307 308 308 306 304 305 311 307 305 304 305 306
307 305 303 302 300 297 297 301 295 293 294 296 296 295 297 299 301 300 299 300 302 302 302 302 302 301 302 302 302 304 304 304 304 305 307 306 308 308 308 304 305 309 309 306 304 304 313
305 302 302 300 297 297 300 295 295 293 295 296 295 294 296 300 300 299 300 303 303 300 300 301 301 301 303 303 303 304 305 305 304 306 306 307 307 307 307 306 306 309 310 311 312 314 315
303 301 301 300 299 300 296 294 293 294 296 296 296 295 298 299 297 297 303 304 301 298 301 301 301 303 303 303 304 304 304 304 304 305 306 307 307 305 306 304 307 310 311 308 312 314 314
300 300 300 299 300 297 294 293 293 295 295 296 296 296 297 295 296 298 304 301 300 301 301 301 303 303 303 304 305 306 306 305 305 304 306 307 306 304 307 305 307 310 309 309 312 315 315
299 299 300 298 297 298 296 293 293 295 296 296 299 298 297 297 296 302 304 297 299 301 302 304 304 304 303 304 305 306 306 307 308 307 307 307 306 308 310 312 312 311 311 310 314 316 315
299 299 297 298 298 296 295 292 293 295 296 298 301 302 302 301 300 304 299 302 302 302 305 304 303 305 305 305 304 304 307 307 310 310 307 311 309 309 310 312 313 313 311 312 312 314 314
298 296 298 297 297 296 294 292 294 295 296 296 300 303 302 301 301 304 297 300 302 304 304 305 305 306 303 306 304 305 307 308 309 309 310 312 311 309 310 314 313 312 314 314 313 315 316
297 299 299 297 296 294 292 293 295 296 296 300 302 300 298 297 302 300 297 301 303 304 304 304 305 305 304 304 304 304 307 308 308 310 313 311 310 311 316 314 315 313 315 315 310 317 319
297 298 298 297 296 293 293 294 295 297 297 301 303 302 299 304 298 296 300 303 304 304 304 304 304 305 303 303 299 300 305 307 308 309 312 312 314 315 316 313 315 315 315 315 316 314 320
297 296 296 296 295 292 293 295 295 297 301 302 302 298 300 303 301 300 301 303 303 302 303 303 303 302 301 296 300 300 305 307 307 309 310 312 311 312 313 314 313 317 315 315 316 317 313
297 297 297 296 295 292 293 295 295 296 297 301 302 298 301 296 299 299 301 302 301 301 302 302 301 302 301 296 300 300 305 306 308 308 308 309 311 311 313 313 313 311 316 315 316 313 312
296 297 296 295 295 292 292 295 295 296 299 301 299 301 298 298 302 299 300 303 300 300 300 300 302 302 302 302 302 302 304 306 307 307 307 309 311 310 311 311 311 310 309 310 312 311 308
296 296 295 295 295 293 291 294 296 296 298 301 301 300 300 300 298 297 298 300 300 301 301 302 302 301 301 302 303 303 303 304 305 307 309 307 309 311 312 311 311 308 307 307 307 306 308
296 295 295 295 295 294 292 293 296 296 299 301 300 301 301 297 298 298 301 300 300 301 302 301 302 301 303 302 305 307 306 306 307 308 309 309 309 309 311 310 308 306 305 304 303 305 303
296 295 295 295 295 295 293 292 296 296 299 300 300 301 301 295 300 301 302 302 300 300 300 301 301 302 302 304 305 306 305 306 308 308 308 309 310 309 312 311 308 304 302 301 304 303 303
295 295 295 294 294 294 293 292 295 296 298 299 299 300 300 299 299 301 300 300 298 298 298 301 300 302 302 302 302 306 308 307 309 309 307 307 307 310 311 309 307 302 299 300 302 302 300
295 295 294 294 294 294 292 292 295 296 298 298 298 298 299 299 300 301 299 299 300 299 298 299 300 302 302 297 302 303 306 308 309 308 308 306 306 306 309 307 304 298 299 302 305 301 298
295 295 294 294 294 293 292 292 295 296 297 298 298 298 298 298 299 300 300 300 301 300 295 300 297 300 298 299 300 301 304 306 307 307 307 306 306 303 305 303 303 297 298 302 299 297 297
294 294 295 294 293 293 292 291 295 296 296 297 297 297 297 297 298 300 298 298 300 301 300 300 302 302 301 297 301 300 303 303 304 304 305 304 302 302 302 300 297 296 297 296 296 295 294

GFSGBSN_850_thetae_117.txt.gz
Theta_e
327 325 323 323 320 314 306 303 300 299 298 298 298 298 298 298 298 298 298 298 298 299 298 298 299 300 300 301 301 302 303 304 304 305 305 305 304 309 311 306 308 303 304 306 307 307 307
326 326 324 323 323 317 310 303 301 299 298 298 298 298 298 298 298 298 298 299 299 298 298 298 300 300 301 299 301 302 303 303 304 305 305 306 305 304 303 303 305 308 304 305 306 308 310
325 326 326 323 323 321 312 304 300 298 298 298 298 298 298 298 297 297 298 299 299 299 299 300 301 301 302 303 306 306 305 305 305 304 304 305 305 304 303 302 304 304 302 303 304 306 310
325 323 325 325 323 322 312 304 300 298 297 297 297 297 298 297 297 298 298 299 299 300 301 302 302 301 303 306 304 305 306 305 305 304 303 305 305 304 304 304 303 302 302 302 304 305 307
322 324 324 324 323 322 310 308 300 297 297 297 297 297 296 297 298 298 298 299 300 301 302 302 302 304 305 305 304 303 303 303 303 305 304 304 305 305 303 301 300 301 301 302 303 304 306
322 320 323 321 321 319 314 312 299 300 296 296 296 296 296 297 298 298 299 300 301 303 304 302 304 304 303 304 302 302 301 303 304 304 304 303 302 302 300 300 304 303 301 299 300 303 305
319 320 320 321 316 314 310 301 303 298 296 296 296 295 296 297 297 300 299 300 299 301 300 298 300 301 304 304 302 301 301 303 304 303 301 302 300 299 298 301 303 304 305 304 303 303 303
319 320 319 319 313 312 306 300 301 297 297 296 297 296 297 296 299 301 300 298 297 298 299 300 301 301 304 303 302 302 301 303 305 303 305 304 302 303 302 302 301 302 305 305 305 305 304
320 320 319 315 312 310 304 303 298 297 298 295 296 296 296 296 300 301 299 299 299 299 298 302 302 302 305 302 301 301 302 303 304 305 305 305 304 305 304 303 303 301 301 305 308 307 304
319 319 318 313 311 308 302 300 297 298 298 295 295 297 296 296 299 300 299 298 299 301 297 301 303 304 303 302 301 303 303 304 305 305 304 304 305 307 308 307 305 304 304 305 309 309 305
320 319 316 311 309 306 301 299 301 301 297 296 296 296 296 297 300 299 299 301 302 302 301 301 301 302 302 302 303 303 304 304 304 304 305 304 305 306 306 307 307 307 304 307 307 309 304
320 317 312 310 308 303 300 300 299 298 296 295 296 295 297 299 300 298 300 303 303 300 300 301 301 301 302 303 303 304 304 305 304 303 303 304 304 305 305 305 306 305 309 310 309 307 305
316 310 307 307 304 301 300 301 299 295 293 296 296 294 296 300 299 298 302 303 299 299 301 300 301 302 302 302 303 304 305 305 304 305 304 305 306 305 306 306 306 307 309 309 305 307 312
310 308 308 304 302 300 301 298 299 295 296 296 295 295 298 297 296 300 303 300 300 300 300 301 302 303 303 303 304 304 305 305 306 305 306 305 307 305 303 306 303 304 308 311 310 312 313
304 303 302 301 299 299 299 301 299 295 295 296 296 297 297 296 296 303 303 298 300 300 301 304 303 304 302 303 303 303 305 306 308 310 308 309 307 306 309 310 307 309 308 307 310 312 315
299 300 299 299 299 300 301 299 294 295 296 296 299 300 301 298 302 304 299 301 301 303 304 304 303 304 301 303 300 303 305 306 310 310 309 309 312 309 309 310 311 311 311 311 309 313 314
301 300 300 299 299 301 295 293 294 295 297 299 301 302 302 300 301 303 296 299 301 304 304 304 304 303 302 301 303 304 306 307 309 309 309 311 312 309 309 310 312 313 312 312 312 314 317
298 299 298 299 299 296 295 293 294 296 296 299 302 301 302 297 301 298 298 301 302 303 303 303 303 304 301 301 304 303 305 306 307 307 310 311 311 311 312 311 313 313 312 311 309 313 317
298 298 298 297 297 296 296 294 295 296 297 301 302 301 299 303 299 296 300 303 303 303 303 303 303 303 301 297 300 299 303 305 306 307 309 311 313 312 313 314 313 314 314 314 313 314 315
299 298 297 296 295 296 296 294 295 296 301 303 302 298 300 303 300 299 301 302 302 302 302 303 302 300 298 295 299 300 302 305 305 307 309 311 312 312 313 313 313 315 314 314 313 312 310
298 298 297 297 294 295 295 295 296 297 302 302 301 298 300 297 299 298 300 302 300 300 301 301 300 301 299 295 297 299 301 304 304 307 306 309 311 309 308 309 309 311 316 313 312 311 309
297 296 296 296 294 293 294 295 296 299 301 300 301 300 299 299 301 299 300 301 299 299 299 299 301 301 301 301 300 300 301 304 304 305 306 307 311 309 309 307 305 306 306 308 307 305 304
298 297 296 295 294 292 294 295 296 297 301 300 300 299 300 298 297 297 298 300 299 300 301 302 301 300 300 300 301 301 301 302 303 304 306 307 308 311 312 310 310 305 304 305 304 305 307
297 296 295 296 293 292 294 295 296 298 300 300 300 301 300 297 298 297 301 299 300 301 301 301 301 301 302 301 304 305 304 303 304 306 304 308 309 309 311 311 307 304 301 303 302 302 302
296 296 295 295 294 292 292 295 296 297 301 300 300 301 301 297 299 300 300 300 299 299 299 301 300 301 301 303 304 305 304 305 307 306 305 306 308 311 311 308 306 303 300 301 303 301 300
296 295 295 296 295 294 291 294 296 298 300 300 300 301 301 299 299 300 299 299 298 298 298 300 300 301 302 298 300 305 307 307 307 306 305 305 305 310 310 308 307 302 298 299 300 301 299
296 295 295 295 295 294 292 293 296 297 300 299 299 300 299 300 300 300 299 299 300 298 297 297 299 301 301 295 301 303 305 307 305 306 307 305 305 305 307 306 303 297 298 301 304 300 298
296 295 295 294 294 294 291 293 296 296 297 298 298 297 298 300 300 300 300 300 300 299 294 298 296 298 297 297 300 300 302 305 307 305 306 303 304 303 304 302 303 296 298 301 298 296 297
296 295 295 294 293 293 291 294 296 296 297 297 297 297 297 298 298 299 298 298 299 300 299 300 301 300 300 295 300 298 300 301 303 303 303 302 301 301 300 299 296 296 296 296 295 293 294